[[{"header":{"parameterUnit":"m.s-1","parameterCategory":1,"la1":30.6,"la2":29.2853,"lo1":-89.7004,"lo2":-87.6739,"dy":0.0162,"dx":0.0183,"nx":112,"ny":82,"refTime":"2026-04-06T00:00:00:Z","depth":0,"parameterNumber":2,"parameterNumberName":"U-component_of_WINDS"},"data":[0.0,0.0,0.0,0.0,0.0,0.0,0.0,0.0,0.0,0.0,0.0,0.0,0.0,0.0,0.0,0.0,0.0,0.0,0.0,0.0,0.0,0.0,0.0,0.0,0.0,0.0,0.0,0.0,0.0,0.0,0.0,0.0,0.0,0.0,0.0,0.0,0.0,0.0,0.0,0.0,0.0,0.0,0.0,0.0,0.0,0.0,0.0,0.0,0.0,0.0,0.0,0.0,0.0,0.0,0.0,0.0,0.0,0.0,0.0,0.0,0.0,0.0,0.0,0.0,0.0,0.0,0.0,0.0,0.0,0.0,0.0,0.0,0.0,0.0,0.0,0.0,0.0,0.0,0.0,0.0,0.0,0.0,0.0,0.0,0.0,0.0,0.0,0.0,0.0,0.0,4.7083,4.8524,5.1559,5.405,5.5403,5.3543,5.0662,4.6874,0.0,0.0,0.0,0.0,0.0,0.0,0.0,0.0,0.0,0.0,0.0,0.0,0.0,0.0,0.0,0.0,0.0,0.0,0.0,0.0,0.0,0.0,0.0,0.0,0.0,0.0,0.0,0.0,0.0,0.0,0.0,0.0,0.0,0.0,0.0,0.0,0.0,0.0,0.0,0.0,0.0,0.0,0.0,0.0,0.0,0.0,0.0,0.0,0.0,0.0,0.0,0.0,0.0,0.0,0.0,0.0,0.0,0.0,0.0,0.0,0.0,0.0,0.0,0.0,0.0,0.0,0.0,0.0,0.0,0.0,0.0,0.0,0.0,0.0,0.0,0.0,0.0,0.0,0.0,0.0,0.0,0.0,0.0,0.0,0.0,0.0,0.0,0.0,0.0,0.0,0.0,0.0,0.0,0.0,0.0,0.0,0.0,0.0,0.0,0.0,0.0,0.0,0.0,0.0,4.7193,5.1731,5.2981,5.3856,5.4702,5.3247,5.0427,4.6064,0.0,0.0,0.0,0.0,0.0,0.0,0.0,0.0,0.0,0.0,0.0,0.0,0.0,0.0,0.0,0.0,0.0,0.0,0.0,0.0,0.0,0.0,0.0,0.0,0.0,0.0,0.0,0.0,0.0,0.0,0.0,0.0,0.0,0.0,0.0,0.0,0.0,0.0,0.0,0.0,0.0,0.0,0.0,0.0,0.0,0.0,0.0,0.0,0.0,0.0,0.0,0.0,0.0,0.0,0.0,0.0,0.0,0.0,0.0,0.0,0.0,0.0,0.0,0.0,0.0,0.0,0.0,0.0,0.0,0.0,0.0,0.0,0.0,0.0,0.0,0.0,0.0,0.0,0.0,0.0,0.0,0.0,0.0,0.0,0.0,0.0,0.0,0.0,0.0,0.0,0.0,0.0,0.0,0.0,0.0,0.0,0.0,0.0,0.0,0.0,0.0,0.0,0.0,4.6581,4.8515,5.3335,5.3642,5.3788,5.4541,5.2705,4.9818,4.5843,4.3986,0.0,0.0,0.0,0.0,0.0,0.0,0.0,0.0,0.0,0.0,0.0,0.0,0.0,0.0,0.0,0.0,0.0,0.0,0.0,0.0,0.0,0.0,0.0,0.0,0.0,0.0,0.0,0.0,0.0,0.0,0.0,0.0,0.0,0.0,0.0,0.0,0.0,0.0,0.0,0.0,0.0,0.0,0.0,0.0,0.0,0.0,0.0,0.0,0.0,0.0,0.0,0.0,0.0,0.0,0.0,0.0,0.0,0.0,0.0,0.0,0.0,0.0,0.0,0.0,0.0,0.0,0.0,0.0,0.0,0.0,0.0,0.0,0.0,0.0,0.0,0.0,0.0,0.0,0.0,0.0,0.0,0.0,0.0,0.0,0.0,0.0,0.0,0.0,0.0,0.0,0.0,0.0,0.0,0.0,0.0,0.0,0.0,0.0,0.0,0.0,0.0,0.0,4.8609,5.025,5.3599,5.3694,5.3627,5.3935,5.1918,4.9016,4.5187,4.2861,0.0,0.0,0.0,0.0,0.0,0.0,0.0,0.0,0.0,0.0,0.0,0.0,0.0,0.0,0.0,0.0,0.0,0.0,0.0,0.0,0.0,0.0,0.0,0.0,0.0,0.0,0.0,0.0,0.0,0.0,0.0,0.0,0.0,0.0,0.0,0.0,0.0,0.0,0.0,0.0,0.0,0.0,0.0,0.0,0.0,0.0,0.0,0.0,0.0,0.0,0.0,0.0,0.0,0.0,0.0,0.0,0.0,0.0,0.0,0.0,0.0,0.0,0.0,0.0,0.0,0.0,0.0,0.0,0.0,0.0,0.0,0.0,0.0,0.0,0.0,0.0,0.0,0.0,0.0,0.0,0.0,0.0,0.0,0.0,0.0,0.0,0.0,0.0,0.0,0.0,0.0,0.0,0.0,0.0,0.0,0.0,0.0,0.0,0.0,0.0,0.0,0.0,4.9304,5.2001,5.2068,5.2938,5.3135,5.2182,5.0911,4.8117,4.3396,4.1857,0.0,0.0,0.0,0.0,0.0,0.0,0.0,0.0,0.0,0.0,0.0,0.0,0.0,0.0,0.0,0.0,0.0,0.0,0.0,0.0,0.0,0.0,0.0,0.0,0.0,0.0,0.0,0.0,0.0,0.0,0.0,0.0,0.0,0.0,0.0,0.0,0.0,0.0,0.0,0.0,0.0,0.0,0.0,0.0,0.0,0.0,0.0,0.0,0.0,0.0,0.0,0.0,0.0,0.0,0.0,0.0,0.0,0.0,0.0,0.0,0.0,0.0,0.0,0.0,0.0,0.0,0.0,0.0,0.0,0.0,0.0,0.0,0.0,0.0,0.0,0.0,0.0,0.0,0.0,0.0,0.0,0.0,0.0,0.0,0.0,0.0,0.0,0.0,0.0,0.0,0.0,0.0,0.0,0.0,0.0,0.0,0.0,0.0,0.0,0.0,0.0,0.0,4.8985,5.1425,5.2763,5.3272,5.3076,5.1993,5.0531,4.7743,4.3203,0.0,0.0,0.0,0.0,0.0,0.0,0.0,0.0,0.0,0.0,0.0,0.0,0.0,0.0,0.0,0.0,0.0,0.0,0.0,0.0,0.0,0.0,0.0,0.0,0.0,0.0,0.0,0.0,0.0,0.0,0.0,0.0,0.0,0.0,0.0,0.0,0.0,0.0,0.0,0.0,0.0,0.0,0.0,0.0,0.0,0.0,0.0,0.0,0.0,0.0,0.0,0.0,0.0,0.0,0.0,0.0,0.0,0.0,0.0,0.0,0.0,0.0,0.0,0.0,0.0,0.0,0.0,0.0,0.0,0.0,0.0,0.0,0.0,0.0,0.0,0.0,0.0,0.0,0.0,0.0,0.0,0.0,0.0,0.0,0.0,0.0,0.0,0.0,0.0,0.0,0.0,0.0,0.0,0.0,0.0,0.0,0.0,0.0,0.0,0.0,0.0,0.0,4.659,4.9364,5.1868,5.3653,5.3355,5.2666,5.1842,4.9664,4.6739,4.3016,0.0,0.0,0.0,0.0,0.0,0.0,0.0,0.0,0.0,0.0,0.0,0.0,0.0,0.0,0.0,0.0,0.0,0.0,0.0,0.0,0.0,0.0,0.0,0.0,0.0,0.0,0.0,0.0,0.0,0.0,0.0,0.0,0.0,0.0,0.0,0.0,0.0,0.0,0.0,0.0,0.0,0.0,0.0,0.0,0.0,0.0,0.0,0.0,0.0,0.0,0.0,0.0,0.0,0.0,0.0,0.0,0.0,0.0,0.0,0.0,0.0,0.0,0.0,0.0,0.0,0.0,0.0,0.0,0.0,0.0,0.0,0.0,0.0,0.0,0.0,0.0,0.0,0.0,0.0,0.0,0.0,0.0,0.0,0.0,0.0,0.0,0.0,0.0,0.0,0.0,0.0,0.0,0.0,0.0,0.0,0.0,0.0,0.0,0.0,0.0,0.0,0.0,4.6827,5.0744,5.378,5.4524,5.299,5.1815,5.1494,4.8115,4.5001,0.0,0.0,0.0,0.0,0.0,0.0,0.0,0.0,0.0,0.0,0.0,0.0,0.0,0.0,0.0,0.0,0.0,0.0,0.0,0.0,0.0,0.0,0.0,0.0,0.0,0.0,0.0,0.0,0.0,0.0,0.0,0.0,0.0,0.0,0.0,0.0,0.0,0.0,0.0,0.0,0.0,0.0,0.0,0.0,0.0,0.0,0.0,0.0,0.0,0.0,0.0,0.0,0.0,0.0,0.0,0.0,0.0,0.0,0.0,0.0,0.0,0.0,0.0,0.0,0.0,0.0,0.0,0.0,0.0,0.0,0.0,0.0,0.0,0.0,0.0,0.0,0.0,0.0,0.0,0.0,0.0,0.0,0.0,0.0,0.0,0.0,0.0,0.0,0.0,0.0,0.0,0.0,0.0,0.0,0.0,0.0,0.0,0.0,0.0,0.0,0.0,0.0,0.0,4.7522,5.1488,5.4239,5.418,5.3708,5.2548,5.0472,4.8433,4.5682,4.1956,0.0,0.0,0.0,0.0,0.0,0.0,0.0,0.0,0.0,0.0,0.0,0.0,0.0,0.0,0.0,0.0,0.0,0.0,0.0,0.0,0.0,0.0,0.0,0.0,0.0,0.0,0.0,0.0,0.0,0.0,0.0,0.0,0.0,0.0,0.0,0.0,0.0,0.0,0.0,0.0,0.0,0.0,0.0,0.0,0.0,0.0,0.0,0.0,0.0,0.0,0.0,0.0,0.0,0.0,0.0,0.0,0.0,0.0,0.0,0.0,0.0,0.0,0.0,0.0,0.0,0.0,0.0,0.0,0.0,0.0,0.0,0.0,0.0,0.0,0.0,0.0,0.0,0.0,0.0,0.0,0.0,0.0,0.0,0.0,0.0,0.0,0.0,0.0,0.0,0.0,0.0,0.0,0.0,0.0,0.0,0.0,0.0,0.0,0.0,0.0,0.0,0.0,4.7819,5.1413,5.4059,5.4411,5.3168,5.1746,5.0351,4.8142,4.5502,4.2434,0.0,0.0,0.0,0.0,0.0,0.0,0.0,0.0,0.0,0.0,0.0,0.0,0.0,0.0,0.0,0.0,0.0,0.0,0.0,0.0,0.0,0.0,0.0,0.0,0.0,0.0,0.0,0.0,0.0,0.0,0.0,0.0,0.0,0.0,0.0,0.0,0.0,0.0,0.0,0.0,0.0,0.0,0.0,0.0,0.0,0.0,0.0,0.0,0.0,0.0,0.0,0.0,0.0,0.0,0.0,0.0,0.0,0.0,0.0,0.0,0.0,0.0,0.0,0.0,0.0,0.0,0.0,0.0,0.0,0.0,0.0,0.0,0.0,0.0,0.0,0.0,0.0,0.0,0.0,0.0,0.0,0.0,0.0,0.0,0.0,0.0,0.0,0.0,0.0,0.0,0.0,0.0,0.0,0.0,0.0,0.0,0.0,0.0,0.0,0.0,0.0,0.0,4.7766,5.0855,5.3485,5.4766,5.2012,5.0276,5.0708,4.7569,4.4951,4.3496,0.0,0.0,0.0,0.0,0.0,0.0,0.0,0.0,0.0,0.0,0.0,0.0,0.0,0.0,0.0,0.0,0.0,0.0,0.0,0.0,0.0,0.0,0.0,0.0,0.0,0.0,0.0,0.0,0.0,0.0,0.0,0.0,0.0,0.0,0.0,0.0,0.0,0.0,0.0,0.0,0.0,0.0,0.0,0.0,0.0,0.0,0.0,0.0,0.0,0.0,0.0,0.0,0.0,0.0,0.0,0.0,0.0,0.0,0.0,0.0,4.1564,4.0518,0.0,0.0,0.0,0.0,0.0,0.0,0.0,0.0,0.0,0.0,0.0,0.0,0.0,0.0,0.0,0.0,0.0,0.0,0.0,0.0,0.0,0.0,0.0,0.0,0.0,0.0,0.0,0.0,0.0,0.0,0.0,0.0,0.0,0.0,0.0,0.0,0.0,0.0,0.0,0.0,4.7382,5.113,5.3669,5.3396,5.2688,5.1548,4.9788,4.8413,4.6207,4.2842,4.0643,0.0,0.0,0.0,0.0,0.0,0.0,0.0,0.0,0.0,0.0,0.0,0.0,0.0,0.0,0.0,0.0,0.0,0.0,0.0,0.0,0.0,0.0,0.0,0.0,0.0,0.0,0.0,0.0,0.0,0.0,0.0,0.0,0.0,0.0,0.0,0.0,0.0,0.0,0.0,0.0,0.0,0.0,0.0,0.0,0.0,0.0,0.0,0.0,0.0,0.0,0.0,0.0,0.0,0.0,0.0,0.0,0.0,0.0,0.0,4.2758,4.1707,0.0,0.0,0.0,0.0,0.0,0.0,0.0,0.0,0.0,0.0,0.0,0.0,0.0,0.0,0.0,0.0,0.0,0.0,0.0,0.0,0.0,0.0,0.0,0.0,0.0,0.0,0.0,0.0,0.0,0.0,0.0,0.0,0.0,0.0,0.0,0.0,0.0,0.0,0.0,0.0,4.7193,5.0324,5.256,5.2867,5.213,5.0966,4.9434,4.8409,4.6542,4.3489,4.1145,0.0,0.0,0.0,0.0,0.0,0.0,0.0,0.0,0.0,0.0,0.0,0.0,0.0,0.0,0.0,0.0,0.0,0.0,0.0,0.0,0.0,0.0,0.0,0.0,0.0,0.0,0.0,0.0,0.0,0.0,0.0,0.0,0.0,0.0,0.0,0.0,0.0,0.0,0.0,0.0,0.0,0.0,0.0,0.0,0.0,0.0,0.0,0.0,0.0,0.0,0.0,0.0,0.0,4.5516,4.5839,4.6172,4.685,4.685,4.6244,4.4683,4.3582,4.2906,4.2958,0.0,0.0,0.0,0.0,0.0,0.0,0.0,0.0,0.0,0.0,0.0,0.0,0.0,0.0,0.0,0.0,0.0,0.0,0.0,0.0,0.0,0.0,0.0,0.0,4.3078,4.3171,4.0922,0.0,0.0,0.0,0.0,0.0,0.0,0.0,0.0,0.0,0.0,0.0,4.7046,4.9299,5.1253,5.2477,5.1277,5.0069,4.9378,4.8278,4.6741,4.4606,4.2252,4.0316,0.0,0.0,0.0,0.0,0.0,0.0,0.0,0.0,0.0,0.0,0.0,0.0,0.0,0.0,0.0,0.0,0.0,0.0,0.0,0.0,0.0,0.0,0.0,0.0,0.0,0.0,0.0,0.0,0.0,0.0,0.0,0.0,3.9062,3.9122,0.0,0.0,0.0,0.0,0.0,0.0,0.0,0.0,0.0,0.0,0.0,0.0,0.0,4.5149,4.6953,4.7441,4.7721,4.7823,4.9513,5.0064,4.9591,5.0249,5.0518,5.041,5.0165,0.0,4.5049,4.6614,0.0,0.0,0.0,0.0,0.0,0.0,0.0,0.0,0.0,0.0,0.0,0.0,0.0,0.0,0.0,0.0,0.0,0.0,0.0,0.0,0.0,0.0,4.6141,4.5287,4.4631,4.4108,0.0,4.1905,3.9875,3.8427,3.8317,0.0,0.0,0.0,0.0,0.0,0.0,0.0,4.6738,4.9181,5.0969,5.1387,5.1221,5.0601,4.9408,4.9138,4.793,4.5334,4.3818,4.2411,4.1074,3.8452,0.0,0.0,0.0,0.0,0.0,0.0,0.0,0.0,0.0,0.0,0.0,0.0,0.0,0.0,0.0,0.0,0.0,0.0,0.0,0.0,0.0,0.0,0.0,0.0,0.0,0.0,0.0,0.0,0.0,3.9269,4.0516,4.0516,4.0855,4.0526,0.0,0.0,0.0,0.0,0.0,0.0,0.0,0.0,0.0,4.6886,4.7119,4.7808,4.905,4.9637,5.0122,5.0493,5.1349,5.1995,5.2432,5.2354,5.2546,5.2899,5.3198,5.2356,5.0706,5.0076,4.9432,4.8813,0.0,0.0,0.0,0.0,4.7562,4.6626,4.7365,4.7025,4.6104,4.538,0.0,0.0,0.0,0.0,0.0,0.0,0.0,0.0,0.0,0.0,4.766,4.7228,4.711,4.7021,4.6621,4.5364,4.3579,0.0,4.0634,4.0365,3.9424,0.0,0.0,0.0,0.0,4.5255,4.6471,4.8572,5.0278,5.1115,5.1206,5.0679,4.9408,4.9288,4.8319,4.6012,4.4975,4.3878,4.2561,4.0675,3.8999,0.0,0.0,0.0,0.0,0.0,0.0,0.0,0.0,0.0,0.0,0.0,0.0,0.0,0.0,0.0,0.0,0.0,0.0,0.0,0.0,0.0,0.0,0.0,0.0,0.0,0.0,0.0,0.0,4.0885,4.2142,4.2142,4.29,4.2621,0.0,0.0,0.0,0.0,0.0,0.0,4.6362,4.725,4.826,4.9485,5.0189,5.0942,5.1714,5.2235,5.2815,5.3443,5.3443,5.3982,5.494,5.4443,5.4473,5.4985,5.5725,5.6004,5.5755,5.3645,5.2867,5.2893,5.1908,5.153,5.1597,5.1953,5.1058,4.9845,5.0846,5.027,4.8842,4.7436,4.7095,4.7061,4.5964,0.0,0.0,0.0,0.0,4.759,4.7428,4.8091,4.8755,4.8574,4.8947,4.9168,4.8648,4.8158,4.6901,0.0,4.3,4.24,4.0861,0.0,0.0,0.0,0.0,4.5505,4.685,4.8492,4.9942,5.1068,5.1206,5.0679,4.9408,4.9288,4.8528,4.6659,4.5933,4.5125,4.4167,4.2681,4.1035,3.9209,0.0,0.0,0.0,0.0,0.0,0.0,0.0,0.0,0.0,0.0,0.0,0.0,0.0,0.0,0.0,0.0,0.0,0.0,0.0,0.0,0.0,0.0,0.0,0.0,0.0,0.0,0.0,0.0,0.0,4.4157,4.5324,0.0,0.0,0.0,0.0,4.5017,4.6337,4.7439,4.8151,4.9932,5.1288,5.1989,5.3288,5.4581,5.5893,5.5923,5.6252,5.6855,5.6855,5.6898,5.6944,5.6915,5.6915,5.7036,5.8329,5.8718,5.8349,5.7455,5.6636,5.5938,5.5562,5.5428,5.5336,5.4668,5.3938,5.3235,5.3322,5.1545,4.9453,5.0562,4.975,4.8512,4.9492,4.8381,0.0,0.0,4.8671,4.8697,4.9356,4.94,4.9254,4.9239,4.9288,4.9288,4.9258,4.9228,4.8409,0.0,4.4646,4.4017,4.3392,0.0,4.3636,4.4426,4.5613,4.6911,4.8296,4.9472,5.0416,5.1116,5.1206,5.0679,4.9408,4.9288,4.8708,4.7339,4.661,4.6211,4.6151,4.4256,4.2592,4.1283,3.9299,0.0,0.0,0.0,0.0,0.0,0.0,0.0,0.0,0.0,0.0,0.0,0.0,0.0,0.0,0.0,0.0,0.0,0.0,0.0,0.0,0.0,0.0,0.0,0.0,0.0,0.0,0.0,0.0,4.6221,4.8136,0.0,4.6711,4.711,4.7799,4.8394,4.9692,5.093,5.2037,5.3563,5.4533,5.4773,5.5598,5.6286,5.6778,5.6778,5.6898,5.7094,5.7094,5.7334,5.7739,5.7304,5.7334,5.7841,5.9537,6.0197,6.0186,6.1483,6.0737,5.8643,5.8073,5.7829,5.7713,5.6658,5.5682,5.4825,5.4516,5.3261,5.172,5.1337,5.0599,4.9891,4.9864,4.9731,4.9706,4.9995,5.0692,5.1282,5.1315,5.1551,5.1702,5.1271,5.1181,5.1061,5.0631,5.017,4.9602,4.8633,4.7597,4.6537,4.5484,4.5656,4.5748,4.5185,4.6578,4.8004,4.8925,4.9727,5.0446,5.1116,5.0817,5.023,4.9366,4.8887,4.8278,4.7369,4.7089,4.655,4.5683,4.4965,4.3778,4.2081,4.0924,3.9029,0.0,0.0,0.0,0.0,0.0,0.0,0.0,0.0,0.0,0.0,0.0,0.0,0.0,0.0,0.0,0.0,0.0,0.0,0.0,0.0,0.0,0.0,0.0,0.0,0.0,4.5693,4.7878,4.8525,5.0529,5.1289,4.9774,5.0444,5.1199,5.1834,5.2935,5.4132,5.5436,5.6555,5.7287,5.7509,5.8112,5.8441,5.8441,5.8441,5.8441,5.8441,5.8441,5.8667,5.9115,5.8637,5.856,5.8888,6.1036,6.166,6.1442,6.3933,6.3632,6.1535,6.0815,6.068,6.068,5.8986,5.7789,5.6823,5.5213,5.4152,5.3366,5.2247,5.1737,5.1467,5.1009,5.134,5.1813,5.1617,5.2234,5.2878,5.2599,5.2857,5.3109,5.2648,5.2558,5.2438,5.1977,5.1517,5.1206,5.1206,4.9823,4.8349,4.7459,4.7668,4.7589,4.6482,4.7818,4.9015,4.9258,5.0032,5.0715,5.1146,5.0817,5.02,4.9366,4.8678,4.7919,4.7029,4.655,4.5892,4.5005,4.4536,4.3619,4.2101,4.0745,3.9017,3.6891,0.0,0.0,0.0,0.0,0.0,0.0,0.0,0.0,0.0,0.0,0.0,0.0,0.0,0.0,0.0,0.0,0.0,0.0,0.0,0.0,0.0,0.0,0.0,4.6278,4.7549,4.9164,5.1068,5.2486,5.3067,5.2426,5.3521,5.4581,5.5281,5.5923,5.6838,5.8115,5.8816,5.9458,6.01,6.0761,6.109,6.109,6.109,6.109,6.109,6.109,6.109,6.109,6.109,6.0745,6.0295,6.2864,6.3224,6.2145,6.47,6.528,6.4529,6.3765,6.391,6.4227,6.1539,6.0228,5.9286,5.5554,5.4269,5.4149,5.3486,5.3258,5.3228,5.3228,5.3198,5.3198,5.3228,5.3216,5.3228,5.3258,5.3258,5.3258,5.3228,5.3216,5.3228,5.3198,5.3198,5.3198,5.3198,5.1133,4.9378,4.9378,4.9378,4.9127,4.8487,4.9441,0.0,4.9426,5.0451,5.1176,5.1176,5.1146,5.0631,4.9408,4.8678,4.7698,4.642,4.5074,4.4326,4.4307,4.308,4.2122,4.1416,3.8796,3.6936,3.5929,0.0,0.0,0.0,0.0,0.0,0.0,0.0,0.0,0.0,0.0,0.0,0.0,0.0,0.0,0.0,0.0,0.0,0.0,0.0,0.0,0.0,4.5443,4.6867,4.7001,4.9804,5.2229,5.3252,5.494,5.597,5.5777,5.6077,5.6765,5.7932,5.8201,5.889,6.0192,6.0462,6.0641,6.0821,6.1,6.109,6.109,6.109,6.109,6.109,6.109,6.109,6.109,6.109,6.1,6.0927,6.3084,6.3768,6.3589,6.5646,6.5819,6.4696,6.3425,6.3049,6.2912,6.0329,5.8736,5.773,5.6676,5.603,5.5551,5.4862,5.4311,5.3832,5.3336,5.3198,5.3306,5.3773,5.3922,5.4042,5.4533,5.4653,5.4533,5.4042,5.3922,5.3773,5.3306,5.3198,5.3198,5.3198,5.2229,5.139,5.139,5.099,5.0631,5.044,5.0697,0.0,5.069,5.0978,5.0996,5.0536,5.0092,4.9666,4.9318,4.8248,4.7429,4.7059,4.5783,4.4825,4.4326,4.3499,4.2575,4.1556,3.9431,3.7787,0.0,0.0,0.0,0.0,0.0,0.0,0.0,0.0,0.0,0.0,0.0,0.0,0.0,0.0,0.0,0.0,0.0,0.0,0.0,0.0,0.0,0.0,4.7944,4.9553,5.011,5.2157,5.4162,5.5645,5.7081,5.8052,5.8334,5.862,5.9099,5.9863,5.9923,6.0402,6.1449,6.1509,6.1642,6.1942,6.1942,6.1942,6.1942,6.1942,6.1942,6.1942,6.1942,6.1942,6.1942,6.1942,6.2084,6.2441,6.4157,6.5059,6.5425,6.709,6.681,0.0,0.0,0.0,0.0,0.0,5.8418,5.7094,5.7094,5.6868,5.6509,5.6119,5.5718,5.5329,5.4952,5.4832,5.4862,5.5012,5.5042,5.5059,5.5162,5.5192,5.5102,5.47,5.461,5.4521,5.4114,5.4024,5.4024,5.4024,5.3503,0.0,5.2677,5.1828,5.1086,5.0817,5.1026,5.1086,5.0817,5.1026,5.1056,5.0656,5.0301,4.9984,4.9703,4.8476,0.0,0.0,0.0,4.4077,4.312,4.2218,0.0,0.0,0.0,0.0,0.0,0.0,0.0,0.0,3.3294,3.2828,0.0,0.0,0.0,0.0,0.0,0.0,0.0,0.0,0.0,0.0,0.0,0.0,0.0,0.0,0.0,0.0,5.075,5.2935,5.4418,5.4688,5.5615,5.7935,5.8786,5.9488,6.016,6.0731,6.112,6.121,6.121,6.1523,6.2195,6.2211,0.0,0.0,0.0,6.3108,6.3108,6.3108,6.3108,6.3108,6.3108,6.3108,6.3108,6.3108,6.3512,6.4288,6.5547,6.6435,6.7072,6.8328,6.7602,6.5573,6.4766,6.3673,6.2338,6.0621,5.886,5.7347,5.7347,0.0,0.0,5.7214,5.7154,5.7094,5.7094,5.7094,5.6987,5.6462,5.6312,5.6162,5.5581,5.5401,5.5401,5.5341,5.5311,5.5281,5.5222,5.5192,5.5192,5.5192,5.467,5.4012,5.3426,5.2217,5.1086,5.0416,5.0817,5.0996,5.0387,5.0847,5.1176,5.1086,0.0,0.0,5.0267,4.9033,4.7788,4.66,4.4696,4.2981,4.1571,4.0488,3.983,3.9634,3.8561,3.7493,3.6491,3.6491,3.6243,3.5757,3.4371,3.3902,0.0,0.0,0.0,0.0,0.0,0.0,0.0,0.0,0.0,0.0,0.0,0.0,0.0,0.0,0.0,5.029,5.2414,5.4628,5.7008,5.7799,5.8338,5.886,5.9488,6.0176,6.0821,6.103,6.1329,6.1882,6.1912,6.2181,6.2854,6.2914,6.2988,6.3108,6.3108,6.3108,6.3108,6.3108,6.3108,6.3108,6.3108,0.0,6.3108,6.3108,6.3771,6.4962,6.5756,6.6177,6.6334,6.7107,6.5881,6.3465,6.223,6.0982,5.9798,5.9442,5.9041,5.871,5.871,5.8367,5.7919,5.7919,5.753,5.7094,5.7094,5.7094,0.0,5.6958,5.6928,5.6898,5.6778,5.6735,5.6598,5.6132,5.6013,5.5863,5.5311,5.5192,5.5192,5.5192,5.467,5.4149,5.403,5.2905,5.1798,5.1116,5.1128,5.1146,5.1026,5.1116,5.0996,5.0446,5.0387,5.0327,5.0207,4.9033,4.8188,4.7919,4.6033,4.4106,4.227,4.199,4.1187,3.9777,3.9013,3.8309,3.7663,3.7663,3.7618,3.7475,3.5855,3.5402,0.0,0.0,0.0,0.0,0.0,0.0,0.0,0.0,0.0,0.0,0.0,4.599,4.6246,0.0,5.09,5.2875,5.4581,5.6333,5.8308,5.9189,5.9608,5.9608,6.0489,6.1224,6.1583,6.1912,6.2255,6.2584,6.2614,6.2734,6.3063,6.3108,6.3108,6.3108,6.3108,6.3108,6.3108,6.3108,6.3108,6.3108,6.3108,6.3108,6.3108,6.3108,6.3831,6.5124,6.545,6.6015,6.6607,6.5859,6.4772,6.3375,6.1701,6.0654,6.0057,5.9727,5.9608,5.9608,5.9608,5.9159,5.8607,5.8607,5.8367,5.8112,5.8112,5.8112,5.8022,5.7679,5.759,5.75,5.7184,5.7094,5.7017,5.6718,5.6658,5.6492,5.585,5.57,5.5611,5.5281,5.491,5.4598,5.4269,5.3641,5.2863,5.1846,5.1427,5.1206,5.1206,5.1206,5.1056,5.0757,5.0697,5.0697,5.0697,4.9224,4.7874,4.6899,4.5276,4.3635,4.2012,4.139,4.0683,3.9816,3.8873,3.8261,3.8002,3.8291,3.8605,3.8843,3.8266,3.7889,0.0,0.0,0.0,0.0,0.0,0.0,0.0,4.278,4.3778,4.4556,4.6711,4.8775,4.9845,5.1672,5.3545,5.5281,5.6658,5.7902,5.9129,5.9967,6.0489,6.0489,6.1447,6.2151,6.2271,6.2794,6.3108,6.3108,6.3108,6.3108,6.3108,6.3108,6.3108,6.3108,6.3108,6.3108,6.3108,6.3108,6.3108,6.3108,6.3108,6.3108,6.3108,6.3108,6.3831,6.5083,6.5083,6.5728,6.6641,6.4706,6.3913,6.3729,6.1969,6.1359,6.1389,6.0595,6.022,6.01,6.01,5.9668,5.9099,5.9099,5.9099,5.9099,5.9099,5.9099,5.9009,5.8457,5.8294,5.8158,5.7633,5.7483,5.7466,5.7334,5.7304,5.7137,5.6521,5.6282,5.6042,5.5491,5.5281,5.5042,5.4491,5.4299,5.379,5.2576,5.1816,5.1385,5.1385,5.1277,5.1206,5.1206,5.1206,5.1146,5.1026,4.9326,4.7566,4.5866,4.4492,4.3161,4.1883,4.0941,4.0344,4.0089,3.9155,3.863,3.863,3.9132,3.9584,4.0023,4.0462,4.0186,4.0526,4.0217,4.0576,4.1772,4.2521,4.3758,0.0,4.7529,4.7967,4.9202,5.1109,5.26,5.2749,5.4396,5.6013,5.6778,5.8022,5.9129,5.9891,6.1088,6.1882,6.1882,6.2002,6.2331,6.2928,6.3048,6.3108,6.3108,6.3108,6.3108,6.3108,6.3108,6.3108,6.3108,6.3108,6.3108,6.3108,6.3108,6.3108,6.3108,6.3108,6.3108,6.3108,6.3108,6.3831,6.5083,6.5083,6.5179,6.5219,6.3797,6.3202,6.3128,6.2312,6.2345,6.2734,6.1449,6.0625,6.01,6.01,5.9668,5.9099,5.9099,5.9099,5.9099,5.9099,5.9099,5.9085,5.8996,5.9009,5.8979,5.889,5.889,5.874,5.8128,5.7995,5.7799,5.7124,5.6568,5.6162,5.6102,5.5611,5.5192,5.5102,5.4598,5.3952,5.3186,5.2528,5.2097,5.2097,5.1576,5.1206,5.1206,5.1206,5.0966,5.0357,4.9028,4.7869,4.7058,4.5673,4.433,4.3077,4.2886,4.2281,4.1152,4.0992,4.0938,4.0938,4.0988,4.1076,4.1113,4.1188,4.1138,4.2153,4.2951,4.3858,4.4068,4.5434,4.717,4.8558,4.9744,5.081,5.1768,5.3545,5.4935,5.4935,5.6239,5.7513,5.8171,5.9069,6.0057,6.1118,6.1746,6.2241,6.2644,6.2674,6.2794,6.3063,6.3108,6.3108,6.3108,6.3108,6.3108,6.3108,6.3108,6.3108,6.3108,6.3108,6.3108,6.3108,6.3108,6.3108,6.3108,6.3108,6.3108,6.3108,6.3108,6.3422,6.3944,6.3944,6.3944,6.3902,6.3337,6.3108,6.3063,6.2794,6.2854,6.2974,6.2032,6.1493,6.1253,6.1253,6.0579,5.9668,5.9668,5.9428,5.9099,5.9099,5.9099,5.9099,5.9099,5.9099,5.9099,5.9099,5.9099,5.9039,5.8756,5.8697,5.8487,5.7829,5.747,5.7107,5.6342,5.5983,5.5671,5.5281,5.4982,5.467,5.4413,5.3456,5.2648,5.2247,5.1947,5.1636,5.1247,5.1206,5.0774,4.9714,4.8743,4.7401,4.5575,4.4527,4.3409,4.2144,4.2092,4.1839,4.1302,4.1289,4.1289,4.1289,4.1656,4.182,4.1845,4.2445,4.2733,4.3519,4.5044,4.6491,4.6202,4.7978,4.9803,4.9726,5.1435,5.3094,5.3337,5.5164,5.6718,5.6718,5.7782,5.8816,5.9308,6.025,6.1208,6.1986,6.2391,6.2734,6.3063,6.3108,6.3168,6.3333,6.3183,6.3168,6.3333,6.3183,6.3108,6.3108,6.3108,6.3108,6.3108,6.3108,6.3108,6.3108,6.3108,6.3108,6.3108,6.3108,6.3108,6.3108,6.3108,6.3108,6.3108,6.3108,6.3108,6.3108,6.3108,6.3108,6.3108,6.3108,6.3108,6.3048,6.2555,6.2241,6.2091,6.2091,6.1238,6.01,6.01,5.9638,5.9099,5.9099,5.9099,5.9099,5.9099,5.9099,5.9099,5.9099,5.9099,5.9099,5.9099,5.9099,5.8979,5.8487,5.8248,5.7769,5.6658,5.6312,5.5983,5.5311,5.5192,5.5192,5.5192,5.4042,5.2902,5.2238,5.1811,5.1204,5.0178,5.0407,5.0107,4.8738,4.7815,4.6497,4.4547,4.3611,4.2739,4.1795,4.1768,4.1768,4.1768,4.1768,4.1829,4.198,4.2423,4.2713,4.2889,4.3664,4.4027,4.4426,4.5743,4.7429,4.8038,4.9703,5.1078,5.0823,5.2998,5.4845,5.3979,5.6044,5.8025,5.8025,5.9129,6.004,6.007,6.1716,6.2808,6.2181,6.3169,6.3722,6.3168,6.3108,6.3333,6.3917,6.3452,6.3333,6.3917,6.3422,6.3108,6.3108,6.3108,6.3108,6.3108,6.3108,6.3108,6.3108,6.3108,6.3108,6.3108,6.3108,6.3108,6.3108,6.3108,6.3108,6.3108,6.3108,6.3108,6.3108,6.3108,6.3108,6.3108,6.3108,6.3108,6.3108,6.3078,6.2674,6.2091,6.2091,6.1238,6.01,6.01,5.9638,5.9099,5.9099,5.9099,5.9099,5.9099,5.9099,5.9099,5.9099,5.9099,5.9099,5.9099,5.9099,5.9085,5.9056,5.8577,5.7919,5.7214,5.6598,5.5983,5.5311,5.5192,5.5192,5.5192,5.3948,5.2754,5.208,5.086,4.9323,4.7447,4.8452,4.8688,4.7274,4.5885,4.5075,4.4981,4.3744,4.3006,4.2964,4.2964,4.2964,4.2964,4.2964,4.3201,4.3714,4.374,4.4016,4.4529,4.4564,4.4579,4.5879,4.7092,4.8051,4.8604,5.0543,5.1992,5.0916,5.3179,5.544,5.5193,5.6354,5.756,5.8025,5.8112,5.8544,5.9891,6.1417,6.2644,6.3258,6.4111,6.4411,6.3767,6.3692,6.3947,6.459,6.3722,6.3542,6.459,6.3677,6.3273,6.3692,6.3303,6.3108,6.3108,6.3108,6.3108,6.3108,6.3108,6.3108,6.3108,6.3108,6.3108,6.3108,6.3108,6.3108,6.3108,6.3108,6.3108,6.3108,6.3108,6.3108,6.3108,6.3108,6.3108,6.3108,6.3108,6.2944,6.2764,6.2764,6.2195,6.1343,6.0924,6.0296,5.9681,5.9249,5.9099,5.9189,5.9651,5.9771,5.9861,6.0326,6.0086,5.9771,5.9771,5.9428,5.9099,5.9099,5.8906,5.8577,5.7889,5.759,5.7124,5.6042,5.5863,5.5377,5.3945,5.2932,5.1889,5.0639,4.9723,4.88,4.7731,4.8052,4.7627,4.586,4.5262,4.463,4.374,4.3254,4.3014,4.3014,4.3352,4.3528,4.3528,4.389,4.4152,4.4328,4.4328,4.4428,4.4614,4.5006,4.5196,4.7492,4.8383,4.8723,5.002,5.1375,5.2081,5.1001,5.3303,5.5562,5.5055,5.6106,5.7154,5.7393,5.7064,5.7436,5.9412,6.1074,6.254,6.3827,6.459,6.4755,6.4066,6.3797,6.3917,6.459,6.3722,6.3722,6.5233,6.4156,6.3602,6.3977,6.3632,6.3333,6.3108,6.3108,6.3108,6.3108,6.3108,6.3108,6.3108,6.3108,6.3108,6.3108,6.3108,6.3108,6.3108,6.3108,6.3108,6.3108,6.3108,6.3108,6.3108,6.3108,6.3108,6.3108,6.3108,6.3108,6.3108,6.3108,6.2495,6.1672,6.1239,6.0475,5.9668,5.9219,5.9099,5.9249,5.9921,6.01,6.019,6.0625,6.0595,6.0326,5.9861,5.9608,5.9398,5.9159,5.9099,5.8906,5.8248,5.8085,5.7769,5.6688,5.5881,5.4457,5.1799,5.1038,5.0309,4.9144,4.8598,4.7919,4.6851,4.6988,4.6545,4.4996,4.4664,4.4278,4.3595,4.3578,4.3578,4.3578,4.3915,4.4077,4.4077,4.4428,4.4704,4.493,4.493,4.5031,4.5231,4.5784,4.6075,4.9022,4.9447,4.9412,5.1972,5.2083,5.1468,5.1096,5.3374,5.5182,5.3768,5.5317,5.6748,5.6192,5.6102,5.6761,5.877,6.0805,6.26,6.3917,6.468,6.4859,6.4186,6.3602,6.3482,6.4036,6.3512,6.3931,6.5847,6.4725,6.3977,6.4006,6.3977,6.3677,6.3123,6.3108,6.3108,6.3108,6.3108,6.3108,6.3108,6.3108,6.3108,6.3108,6.3108,6.3108,6.3108,6.3108,6.3108,6.3108,6.3108,6.3108,6.3108,6.3108,6.3108,6.3108,6.3108,6.3108,6.3108,6.3108,6.2285,6.121,6.115,6.0252,5.9189,5.9159,5.9129,5.9249,5.9951,6.013,6.013,6.022,6.0655,6.0731,5.9518,5.9651,5.9861,5.9249,5.9099,5.8906,5.8264,5.8062,5.7769,5.7139,5.5166,5.2499,4.9055,4.8457,4.8203,4.7693,4.7502,4.6708,4.4849,4.5391,4.5527,4.4669,4.4127,4.4066,4.4579,4.4589,4.4589,4.4589,4.4629,4.4654,4.4654,4.4665,4.498,4.5537,4.5587,4.5849,4.6361,4.6898,4.7149,4.7653,4.8528,4.8841,4.9909,5.0674,5.1155,5.1145,5.261,5.4088,5.4387,5.4302,5.4294,5.464,5.47,5.5688,5.862,6.1208,6.3452,6.5233,6.6071,6.6251,6.5562,6.5353,6.5323,6.5473,6.4455,6.4395,6.5892,6.435,6.3542,6.3977,6.3572,6.3243,6.3108,6.3108,6.3108,6.3108,6.3108,6.3108,6.3108,6.3108,6.3108,6.3108,6.3108,6.3108,6.3108,6.3108,6.3108,6.3108,6.3108,6.3108,6.3108,6.3108,6.3108,6.3108,6.3108,6.3108,6.3108,6.3108,6.2884,6.2525,6.2002,6.1283,6.0492,6.001,5.9488,5.9325,6.0535,6.0475,6.0459,6.1956,6.1357,6.0386,6.0551,5.9967,5.9308,5.9129,5.9099,5.9069,5.8876,5.7519,5.6312,5.6081,5.2953,5.0158,4.9238,4.7822,4.6824,4.6671,4.6631,4.6265,4.5366,4.5457,4.5327,4.4658,4.4478,4.4439,4.4589,4.4589,4.4589,4.4589,4.5031,4.5271,4.5271,4.5658,4.5934,4.61,4.6512,4.6747,4.6898,4.744,4.7691,4.8205,4.8505,4.8225,4.9677,5.0582,5.0951,5.0364,5.198,5.3373,5.2743,5.2457,5.2426,5.2803,5.3132,5.4401,5.7693,6.0475,6.2989,6.5248,6.6131,6.643,6.6026,6.5727,6.5577,6.5577,6.4889,6.462,6.5084,6.4096,6.3632,6.3977,6.3692,6.3363,6.3108,6.3108,6.3108,6.3108,6.3108,6.3108,6.3108,6.3108,6.3108,6.3108,6.3108,6.3108,6.3108,6.3108,6.3108,6.3108,6.3108,6.3108,6.3108,6.3108,6.3108,6.3108,6.3108,6.3108,6.3108,6.3108,6.3108,6.2944,6.1972,6.1224,6.0535,5.9847,5.9608,5.9711,6.0446,6.0595,6.0805,6.1926,6.1597,6.0998,6.109,6.0731,6.0266,5.9668,5.9548,5.9237,5.8223,5.7038,5.5651,5.4011,5.1743,4.9718,4.8502,4.7374,4.6562,4.6336,4.6286,4.6185,4.5874,4.5623,4.5447,4.5357,4.5131,4.5095,4.5332,4.5357,4.5357,4.5357,4.5673,4.5974,4.62,4.6512,4.6763,4.6988,4.7315,4.7465,4.745,4.8033,4.8284,4.9177,4.8757,4.7926,5.042,5.1098,5.0914,4.9888,5.1654,5.2841,5.0486,5.0516,5.1008,5.1187,5.1756,5.3354,5.6915,5.9608,6.2167,6.4889,6.5757,6.6116,6.6116,6.5637,6.5278,6.5278,6.5174,6.4889,6.4306,6.4096,6.3977,6.3887,6.3887,6.3632,6.3108,6.3108,6.3108,6.3108,6.3108,6.3108,6.3108,6.3108,6.3108,6.3108,6.3108,6.3108,6.3108,6.3108,6.3108,6.3108,6.3108,6.3108,6.3108,6.3108,6.3108,6.3108,6.3108,6.3108,6.3108,6.3108,6.3108,6.2884,6.1642,6.0775,6.013,5.9548,5.9697,6.013,6.022,6.0655,6.112,6.121,6.1613,6.1852,6.1359,6.1613,6.1642,6.0489,6.016,5.942,5.7134,5.6522,5.5304,5.1895,5.1064,5.0056,4.7681,4.7249,4.7023,4.6562,4.6401,4.6286,4.6286,4.5874,4.5799,4.6261,4.5874,4.5799,4.6261,4.6361,4.6411,4.6411,4.6461,4.6737,4.7199,4.7429,4.7656,4.7908,4.8176,4.8226,4.8033,4.8626,4.8928,4.7413,4.8109,4.8935,5.0721,5.1098,5.1373,5.2673,5.2529,5.1921,5.1135,5.0248,4.9954,5.1008,5.1756,5.3803,5.8783,6.0894,6.3019,6.6221,6.6759,6.6835,6.6835,6.6729,6.664,6.664,6.6161,6.5787,6.5652,6.4635,6.3767,6.3273,6.3243,6.3213,6.3108,6.3108,6.3108,6.3108,6.3108,6.3108,6.3108,6.3108,6.3108,6.3108,6.3108,6.3108,6.3108,6.3108,6.3108,6.3108,6.3108,6.3108,6.3108,6.3108,6.3108,6.3108,6.3108,6.3108,6.3108,6.3108,6.3108,6.2974,6.2181,6.1463,6.091,6.0791,6.0446,6.022,6.0775,6.1,6.1239,6.1792,6.1613,6.1389,6.1822,6.1583,6.121,6.097,6.0475,5.942,5.7134,5.5676,5.4181,5.2199,5.039,4.9065,4.8573,4.8083,4.7716,4.7616,4.6838,4.6286,4.6286,4.621,4.62,4.6286,4.621,4.6185,4.6286,4.6737,4.6973,4.6973,4.739,4.7666,4.7767,4.9073,4.9139,4.7908,4.9749,4.9951,4.8667,4.9204,4.969,4.9946,5.0477,5.0908,5.2465,5.3412,5.3645,5.2512,5.212,5.1471,4.9543,4.8686,4.8547,4.9523,5.078,5.2833,5.6436,5.8411,6.0789,6.444,6.4979,6.5488,6.6835,6.7014,6.7014,6.7014,6.67,6.637,6.6041,6.5069,6.4231,6.3602,6.3572,6.3422,6.3108,6.3393,6.3422,6.3108,6.3108,6.3108,6.3108,6.3108,6.3108,6.3108,6.3108,6.3108,6.3108,6.3108,6.3108,6.3108,6.3108,6.3108,6.3108,6.3108,6.3108,6.3108,6.3108,6.3108,6.3108,6.3108,6.3108,6.2988,6.2315,6.1882,6.1553,6.121,6.1134,6.1134,6.112,6.1359,6.1688,6.2002,6.1852,6.1792,6.2465,6.2121,6.1598,6.1598,6.0381,5.8608,5.6416,5.4664,5.2967,5.1094,4.9898,4.9129,4.8843,4.8551,4.8234,4.7933,4.744,4.7014,4.6763,4.6461,4.6286,4.6286,4.6562,4.6737,4.6737,4.7214,4.7516,4.7516,4.7767,4.8058,4.8375,4.9121,4.929,4.8786,4.9836,5.011,4.964,4.9891,5.0318,5.3094,5.3185,5.2921,5.4848,5.5919,5.5611,5.2291,5.1778,5.1109,4.7938,4.7309,4.7549,4.8368,4.9763,5.1636,5.4221,5.6017,5.8544,6.2704,6.3542,6.453,6.6745,6.7134,6.7164,6.7014,6.7014,6.6789,6.6251,6.5577,6.48,6.3871,6.3917,6.3767,6.3303,6.3737,6.3827,6.3512,6.3363,6.3273,6.3273,6.3273,6.3227,6.3108,6.3108,6.3108,6.3108,6.3108,6.3108,6.3108,6.3108,6.3108,6.3108,6.3108,6.3108,6.3108,6.3108,6.3108,6.3108,6.3108,6.3108,6.3003,6.2495,6.2225,6.2002,6.1479,6.1432,6.1443,6.0894,6.1235,6.1724,6.1562,6.1939,6.2465,6.2974,6.2704,6.2271,6.2121,6.031,5.8092,5.5906,5.4132,5.2343,5.0325,4.9866,4.9615,4.9204,4.9028,4.8802,4.8335,4.8159,4.7933,4.7516,4.6963,4.6637,4.6637,4.7039,4.7274,4.7274,4.7792,4.8083,4.8083,4.8209,4.8485,4.8953,4.9419,4.9697,4.9766,5.0238,5.05,5.0578,5.0578,5.0921,5.4189,5.4414,5.4405,5.7537,5.7039,5.5442,5.4184,5.2527,5.0529,4.7837,4.7309,4.7698,4.8977,4.9348,5.0893,5.5294,5.6628,5.8693,6.3258,6.4964,6.6041,6.6894,6.7523,6.7673,6.7074,6.7014,6.6969,6.6909,6.6281,6.5114,6.3273,6.3707,6.3977,6.3917,6.3977,6.4276,6.4815,6.4216,6.3917,6.3917,6.3917,6.3632,6.3108,6.3108,6.3108,6.3108,6.3108,6.3108,6.3108,6.3108,6.3108,6.3108,6.3108,6.3108,6.3108,6.3108,6.3108,6.3108,6.3108,6.3108,6.3108,6.3048,6.2614,6.2091,6.2032,6.0953,5.9736,5.965,6.0142,6.0503,5.9896,6.1366,6.3003,6.3108,6.3048,6.2824,6.2241,6.0677,5.8764,5.6558,5.4705,5.3026,5.1437,5.0695,5.0302,5.0252,4.9841,4.9515,4.9439,4.9028,4.8718,4.8667,4.8109,4.7741,4.7741,4.7807,4.7817,4.7817,4.84,4.8718,4.8718,4.9179,4.9464,4.9531,5.1441,5.1741,5.0327,5.2278,5.253,5.1214,5.1214,5.1515,5.6634,5.7461,5.7798,5.9683,5.9241,5.7624,5.4831,5.2965,5.096,4.7938,4.7309,4.7459,4.8008,4.8768,5.0025,5.2235,5.3132,5.5166,5.9803,6.091,6.2376,6.5428,6.64,6.6849,6.6984,6.7014,6.6819,6.643,6.6161,6.5488,6.4291,6.4844,6.5009,6.462,6.4979,6.5129,6.4994,6.474,6.459,6.459,6.4186,6.3857,6.3632,6.3273,6.3108,6.3108,6.3108,6.3108,6.3108,6.3108,6.3108,6.3108,6.3108,6.3108,6.3108,6.3108,6.3108,6.3108,6.3108,6.3108,6.2919,6.188,6.1365,6.1145,6.1145,6.0642,5.9895,5.8861,5.9519,6.0437,6.0163,6.1586,6.3108,6.3108,6.3108,6.3048,6.2764,6.0537,5.8246,5.7058,5.457,5.2399,5.1456,5.1113,5.082,5.0452,5.0201,4.995,4.964,4.9414,4.928,4.928,4.846,4.7908,4.7908,4.8234,4.8451,4.8451,4.8978,4.943,4.9741,4.9967,5.0243,5.0611,5.1443,5.1587,5.0946,5.1816,5.2079,5.1774,5.1774,5.2076,5.8305,5.9529,5.9959,6.1363,6.0595,5.862,5.5269,5.2982,5.087,4.8147,4.7608,4.7668,4.7848,4.8648,4.9576,5.0368,5.1385,5.3491,5.7517,5.8786,6.0581,6.4022,6.5188,6.5981,6.664,6.7074,6.7104,6.664,6.64,6.6101,6.5607,6.6026,6.5996,6.5338,6.5757,6.5877,6.5607,6.5383,6.5203,6.4994,6.453,6.4096,6.3722,6.3273,6.3108,6.3108,6.3108,6.3108,6.3108,6.3108,6.3108,6.3108,6.3108,6.3108,6.3108,6.3108,6.3108,6.3108,6.3108,6.2774,6.2116,6.09,6.0161,5.9659,5.9166,5.8983,5.8734,5.7565,5.8449,5.9994,6.099,6.2189,6.3108,6.3108,6.2716,6.2321,6.2321,5.9642,5.712,5.6759,5.4334,5.2226,5.1825,5.1624,5.1398,5.0971,5.077,5.0544,5.0142,5.0108,5.0108,5.0108,4.9389,4.8837,4.8645,4.8862,4.9195,4.9522,4.9732,5.0092,5.0628,5.067,5.087,5.1289,5.1465,5.154,5.154,5.2201,5.2705,5.3071,5.3071,5.3114,5.8721,5.9795,6.0059,6.2478,6.0565,5.762,5.5628,5.2623,4.9848,4.8577,4.8278,4.8498,4.9168,4.9288,4.9726,5.0978,5.2863,5.5077,5.7726,6.0372,6.2301,6.3048,6.4231,6.5263,6.5936,6.7224,6.7987,6.7987,6.7373,6.6984,6.6984,6.6984,6.667,6.5996,6.5996,6.6311,6.6969,6.6311,6.5667,6.4994,6.4994,6.4321,6.3108,6.3108,6.3108,6.3108,6.3108,6.3108,6.3108,6.3108,6.3108,6.3108,6.3108,6.3108,6.3108,6.3108,6.3108,6.3108,6.3108,6.1969,6.0525,6.051,5.9395,5.7692,5.5994,5.5452,5.5452,5.5436,5.6666,5.8806,6.2189,6.3093,6.3108,6.3108,6.1762,6.0525,6.0525,5.7839,5.5436,5.5436,5.4055,5.2895,5.287,5.2435,5.2101,5.2076,5.1641,5.1289,5.1289,5.1289,5.1289,5.1289,5.1264,5.1021,5.0427,4.9891,5.0067,5.1188,5.072,5.067,5.1264,5.1289,5.1289,5.1289,5.1825,5.2101,5.2101,5.4289,5.537,5.537,5.537,5.4759,5.4826,5.6604,5.7953,5.8317,5.7599,5.6269,5.4294,5.2665,5.1079,4.9337,4.8977,4.9048,4.9258,4.9655,5.0499,5.2276,5.3473,5.5107,5.7726,5.9608,6.1148,6.2285,6.4755,6.664,6.7313,6.7748,6.7987,6.7987,6.7373,6.7014,6.7014,6.7014,6.6894,6.67,6.667,6.6789,6.7014,6.6789,6.634,6.5667,6.5203,6.456,6.3692,6.3273,6.3108,6.3108,6.3108,6.3108,6.3108,6.3108,6.3108,6.3108,6.3108,6.3108,6.3108,6.3108,6.3108,6.2919,6.1733,6.096,6.0102,5.7775,5.6666,5.5912,5.4224,5.4474,5.5403,5.5403,5.665,5.8524,6.0735,6.2219,6.2803,6.1614,6.09,6.0192,5.9027,5.7005,5.5403,5.5403,5.4055,5.2895,5.2895,5.2762,5.2511,5.2176,5.195,5.1699,5.1339,5.1289,5.1289,5.1289,5.1289,5.1214,5.1021,5.0862,5.0912,5.1264,5.1113,5.1264,5.1825,5.185,5.2026,5.2385,5.2561,5.2837,5.3206,5.5152,5.6295,5.6667,5.5426,5.4662,5.3067,5.4952,5.6419,5.6509,5.6,5.5042,5.3545,5.2276,5.1098,4.9894,4.9655,4.9714,4.9954,5.032,5.0996,5.2247,5.3653,5.5149,5.6782,5.877,6.0699,6.2285,6.4934,6.6984,6.7928,6.8211,6.8391,6.8391,6.7523,6.7014,6.7014,6.7014,6.7014,6.7014,6.7014,6.7014,6.7014,6.6759,6.64,6.5996,6.5069,6.453,6.4366,6.3482,6.3213,6.3422,6.3183,6.3108,0.0,6.3108,6.3108,6.3108,6.3108,6.3108,6.3108,6.3108,6.2672,6.1969,6.0885,5.9659,5.8218,5.6082,5.4966,5.4265,5.323,5.3623,5.4591,5.5231,5.665,5.8399,6.007,6.1303,6.1851,6.0765,5.9521,5.828,5.7245,5.5676,5.4467,5.4467,5.3606,5.2895,5.2895,5.2895,5.2787,5.246,5.241,5.2285,5.195,5.19,5.19,5.19,5.19,5.19,5.19,5.154,5.1465,5.1875,5.1699,5.185,5.2385,5.241,5.2561,5.2895,5.3784,5.4372,5.4723,5.6703,5.7881,5.8208,5.6591,5.5512,0.0,5.4281,5.5042,5.6179,5.5179,5.376,5.3126,5.1576,0.0,5.0267,5.0267,5.0476,5.1146,5.1236,5.1265,5.1445,5.3623,5.5299,5.5388,5.8215,6.0998,6.3063,6.4934,6.658,6.7868,6.8571,6.8944,6.8944,6.7717,6.7014,6.7014,6.7014,6.7014,6.7014,6.7014,6.7014,6.7014,6.637,6.6026,6.5906,6.4725,6.4395,6.4829,6.3677,6.3452,6.3887,6.3333,6.3108,6.3108,6.3108,6.3108,6.3108,6.3108,6.3036,6.2904,6.2904,6.1821,6.0313,6.0192,5.806,5.537,5.5254,5.4164,5.2895,5.2895,5.2895,5.323,5.4792,5.6456,5.8167,5.9721,6.0237,6.0298,6.0176,5.7712,5.537,5.5238,5.4004,5.2895,5.2945,5.2962,5.297,5.2995,5.302,5.302,5.302,5.2988,5.297,5.3013,5.2988,5.297,5.3013,5.302,5.2995,5.2945,5.2,5.1825,5.2837,5.2435,5.2385,5.2887,5.2895,5.2937,5.2962,5.5291,5.658,5.6714,5.875,5.9742,5.9693,5.8396,5.6942,4.9284,0.0,5.0624,5.0433,5.0769,5.1104,0.0,5.0936,5.0966,5.0966,5.0966,5.1176,5.1858,5.1546,5.1876,5.3922,5.5222,5.6299,5.729,5.9847,6.2555,6.5024,6.6161,6.7104,6.7928,6.8122,6.8257,6.8257,6.7463,6.7014,6.7014,6.7014,6.7014,6.7014,6.7014,6.7014,6.7014,6.6819,6.6251,6.5233,6.5428,6.4844,6.3542,6.3707,6.3602,6.3303,6.3168,6.3108,6.3108,6.3108,6.3108,6.3108,6.3108,6.2292,6.1095,6.1095,6.0039,5.8387,5.7069,5.6065,5.5198,5.3886,5.323,5.2895,5.2895,5.2895,5.2973,5.3376,5.4708,5.6082,5.6504,5.7596,5.8245,5.6924,5.5967,5.5049,5.3776,5.3179,5.302,5.3414,5.349,5.3658,5.4127,5.4202,5.4202,5.4202,5.3808,5.3683,5.4152,5.3808,5.3683,5.4152,5.4202,5.4009,5.3557,5.2912,5.2636,5.287,5.2787,5.2787,5.2895,5.2895,5.3088,5.349,5.6288,5.8377,5.9758,5.9341,5.9104,5.907,5.7395,5.6392,4.7728,4.8745,4.9703,4.9643,5.038,5.1128,5.1128,5.1146,5.1206,5.1206,5.1206,5.1295,5.1666,5.1696,5.2115,5.3593,5.5162,5.7077,5.9564,6.1194,6.3079,6.5697,6.658,6.7254,6.7928,6.7987,6.7987,6.7987,6.7373,6.7014,6.7014,6.7014,6.7014,6.7014,6.7014,6.6849,6.655,6.6251,6.5727,6.4994,6.4784,6.4425,6.3947,6.3707,6.3572,6.3512,6.3213,6.3108,6.3108,6.3108,6.3108,6.3036,6.2219,6.1333,6.0404,5.9657,5.8277,5.665,5.5732,5.4899,5.4106,5.3196,5.2895,5.2895,5.2895,5.2895,5.2895,5.2895,5.4122,5.5403,5.5403,5.6108,5.658,5.5633,5.4799,5.4004,5.3093,5.2895,5.3063,5.3607,5.3708,5.3884,5.4496,5.4597,5.4597,5.4597,5.4303,5.4228,5.4572,5.4303,5.4228,5.4572,5.4597,5.4471,5.4152,5.3833,5.3457,5.292,5.3138,5.3264,5.3264,5.3532,5.4328,5.57,5.8109,5.9947,6.1176,6.0478,5.9712,5.885,5.7032,5.62,4.7549,4.8933,5.0416,5.0697,5.1409,5.2037,5.1917,5.1546,5.1206,5.1206,5.1206,5.1265,5.1457,5.1977,5.2456,5.2755,5.5042,5.8125,6.2002,6.254,6.3438,6.5847,6.664,6.7224,6.7808,6.7868,6.7868,6.7868,6.7313,6.7014,6.7014,6.7014,6.7014,6.7014,6.7014,6.667,6.5996,6.5458,6.5054,6.4859,6.3947,6.3947,6.468,6.3797,6.3572,6.3827,6.3422,0.0,6.3108,6.3183,6.3197,6.2948,6.1452,6.0599,5.9963,5.854,5.6742,5.5015,5.5015,5.4106,5.2895,5.2895,5.2895,5.2895,5.2895,5.2895,5.2895,5.2895,5.392,5.5015,5.5015,5.5015,5.5015,5.5015,5.392,5.2895,5.2895,5.2945,5.3188,5.3733,5.3909,5.4135,5.473,5.483,5.483,5.483,5.4755,5.4723,5.4723,5.4723,5.4723,5.4723,5.4798,5.4823,5.4723,5.4723,5.4278,5.3213,5.3582,5.3833,5.3833,5.4403,5.5917,5.8462,5.9825,6.0881,6.1595,6.1309,6.0264,5.8454,5.6913,5.634,4.8678,5.0002,5.0679,4.9134,5.0062,5.1206,5.0637,5.0877,5.1206,5.1206,5.1206,5.1546,5.2677,5.2977,5.3605,5.5324,5.7809,6.0685,6.4082,6.4545,6.5129,6.667,6.6954,6.7044,6.7134,6.7164,6.7164,6.7164,6.7074,6.7014,6.7014,6.7014,6.7014,6.7014,6.7014,6.667,6.5996,6.5906,6.5293,6.4156,6.5114,6.4784,6.3422,6.4291,6.4171,6.3243,0.0,6.3572,6.3123,6.3662,6.3572,6.3079,6.2817,6.0929,5.8367,5.81,5.6004,5.3273,5.3273,5.311,5.2895,5.2895,5.2895,5.2895,5.2895,5.2895,5.2895,5.2895,5.3076,5.3273,5.3273,5.3273,5.3273,5.3273,5.3076,5.2895,5.2895,5.3264,5.3758,5.4353,5.483,5.5315,5.5867,5.5968,5.5968,5.5968,5.5566,5.5282,5.5282,5.5282,5.5282,5.5282,5.5666,5.5767,5.5308,5.5282,5.5006,5.4378,5.4421,5.4454,5.4454,5.4981,5.6892,6.033,5.9586,5.9994,6.1595,6.0058,5.8366,5.6605,5.6321,5.7014,4.8588,4.9942,5.1068,5.0541,5.1606,5.2743,5.2432,5.2324,5.2276,5.2276,5.2276,5.2239,5.2037,5.3823,5.6209,5.8933,6.04,6.2061,6.4635,6.4994,6.5518,6.6819,6.7014,6.7014,6.7014,6.7014,6.7014,6.7014,6.7014,6.7014,6.7014,6.7014,6.7014,6.7014,6.7014,6.667,6.5996,6.5996,6.5323,6.4006,6.4276,6.3961,6.3123,6.3722,6.3647,6.3123,0.0,6.3662,6.3168,6.3737,6.3105,6.1614,6.0703,5.8821,5.6499,5.5561,5.424,5.2895,5.2895,5.2895,5.2895,5.2895,5.2895,5.2895,5.2895,5.2895,5.2895,5.2895,5.2895,5.2895,5.2895,5.2895,5.2895,5.2895,5.2895,5.2895,5.2895,5.3314,5.3884,5.4496,5.5031,5.5566,5.6118,5.62,5.62,5.62,5.5993,5.5842,5.5842,5.5842,5.5842,5.5842,5.605,5.61,5.5867,5.5842,5.5591,5.5056,5.5031,5.5157,5.544,5.5691,5.6596,5.8289,5.8683,5.8815,5.8683,5.8815,5.7966,5.62,5.62,5.7177,4.8656,4.9841,5.1206,5.2187,5.3204,5.4132,5.473,5.4251,5.3785,5.4264,5.4114,5.3483,5.2149,5.4953,5.8418,6.128,6.2474,6.3588,6.5248,6.5458,6.5847,6.6894,6.7014,6.7014,6.7014,6.7014,6.7014,6.7014,6.7014,6.7014,6.7014,6.7014,6.7014,6.7014,6.6849,6.652,6.6011,6.5847,6.5248,6.4246,6.3782,6.3452,6.3303,6.3303,6.3213,6.3123,6.3887,6.3797,6.3168,6.3917,6.2765,6.0374,5.9227,5.7561,5.5592,5.3911,5.3213,5.3113,5.3239,5.3113,5.2937,5.3063,5.2995,5.2895,5.2895,5.2895,5.2895,5.2895,5.2895,5.2895,5.2895,5.2895,5.2895,5.2895,5.2895,5.292,5.3063,5.3532,5.4077,5.4655,5.5232,5.5717,5.6143,5.62,5.62,5.62,5.62,5.615,5.6043,5.61,5.615,5.6043,5.6143,5.62,5.62,5.62,5.6018,5.5616,5.5609,5.5767,5.6175,5.62,5.6394,5.6823,5.777,5.777,5.6841,5.7788,5.7752,5.6841,5.6841,5.8037,4.974,5.0177,5.0715,5.2648,5.3198,5.3905,5.6359,5.594,5.5568,5.738,5.6795,5.5694,5.472,5.6734,5.9073,6.0564,6.3577,6.5981,6.6759,6.6864,6.6894,6.6984,6.7014,6.7014,6.7014,6.7014,6.7014,6.7014,6.7014,6.7014,6.7014,6.7014,6.7014,6.7014,6.64,6.6056,6.5996,6.5383,6.5024,6.4934,6.4874,6.453,6.3947,6.3947,6.3632,6.3168,6.4411,6.4246,6.3183,6.4411,6.3163,6.0537,6.0914,5.9379,5.6775,5.5115,5.4127,5.3708,5.4278,5.3783,5.2988,5.3482,5.3314,5.2895,5.2895,5.2895,5.2895,5.2895,5.2895,5.2895,5.2895,5.2895,5.2895,5.2895,5.2895,5.3038,5.3532,5.4127,5.4697,5.5232,5.5767,5.615,5.6175,5.62,5.62,5.62,5.62,5.6018,5.5516,5.5892,5.6018,5.5491,5.5917,5.62,5.62,5.62,5.6175,5.6125,5.6125,5.615,5.62,5.62,5.6978,5.8683,5.7177,5.7159,5.8701,5.7159,5.7195,5.8719,5.8719,6.0562,4.9505,5.023,5.1295,5.3324,5.4144,5.5012,5.7201,5.7663,5.7758,5.8205,5.879,5.8961,5.8002,5.7902,5.8827,6.1447,6.4549,6.67,6.6954,6.7014,6.7014,6.7014,6.7014,6.7014,6.7014,6.7014,6.7014,6.7014,6.7014,6.7014,6.7014,6.7014,6.7014,6.7014,6.6759,6.661,6.661,6.637,6.6251,6.6236,6.5398,6.4874,6.462,6.4186,6.3887,6.3692,6.4186,6.3283,6.1583,6.2794,6.1177,5.784,5.7344,5.6475,5.548,5.4819,5.4471,5.4278,5.4522,5.4321,5.4002,5.4202,5.4127,5.3976,5.3976,5.3976,5.3876,5.349,5.3389,5.3314,5.2988,5.2895,5.2895,5.2895,5.3163,5.3439,5.3658,5.4454,5.5157,5.5358,5.5541,5.5817,5.6125,5.5917,5.5691,5.5691,5.5691,5.5616,5.5433,5.5566,5.5742,5.5892,5.6376,5.6552,5.6226,5.6502,5.6552,5.6226,5.62,5.62,5.62,5.62,5.6522,5.7213,5.6558,5.654,5.7231,5.7671,5.8224,5.892,6.0058,6.1914,4.9235,4.9756,5.0793,5.3005,5.4563,5.6149,5.8517,5.8945,5.9031,5.953,5.9441,5.9061,5.8206,5.7553,5.7933,6.0269,6.3741,6.6137,6.6137,6.6646,6.7014,6.7014,6.7014,6.7014,6.7014,6.7014,6.7014,6.7014,6.7014,6.7014,6.7014,6.7014,6.7014,6.7014,6.6789,6.667,6.667,6.667,6.667,6.667,6.5981,6.5518,6.5308,6.462,6.401,6.346,6.3505,6.2264,6.0282,6.1147,5.9646,5.6686,5.5361,5.4956,5.5107,5.5107,5.5006,5.4881,5.5056,5.4881,5.4622,5.4798,5.4748,5.4572,5.4353,5.4321,5.4228,5.3808,5.3708,5.3658,5.3482,5.3289,5.3163,5.3163,5.3582,5.4027,5.421,5.4838,5.5458,5.5616,5.5641,5.5767,5.6143,5.5892,5.5641,5.5641,5.5641,5.5641,5.5641,5.5641,5.5867,5.6401,5.6784,5.6928,5.6771,5.7079,5.7129,5.6771,5.6746,5.6595,5.62,5.62,5.6276,5.6451,5.6276,5.6561,5.7313,5.86,5.9815,6.0964,6.2414,6.3728,4.9097,4.8787,4.8883,5.1548,5.4234,5.709,6.0372,5.974,5.9162,6.1765,5.8608,5.5222,5.4635,5.5568,5.6407,5.6381,6.0851,6.4297,6.4297,6.5843,6.7014,6.7014,6.7014,6.7014,6.7014,6.7014,6.7014,6.7014,6.7014,6.7014,6.7014,6.7014,6.7014,6.7014,6.637,6.5996,6.5996,6.5996,6.5996,6.5981,6.6654,6.6624,6.5951,6.5278,6.4003,6.2284,6.2409,6.1377,5.9582,5.9691,5.9,5.7712,5.6038,5.5742,5.62,5.62,5.5867,5.5483,5.6018,5.5491,5.4697,5.5232,5.5056,5.4504,5.3909,5.3733,5.3733,5.3708,5.3708,5.3858,5.4446,5.4152,5.3708,5.3708,5.4177,5.4748,5.5282,5.539,5.5566,5.6118,5.6219,5.6175,5.62,5.6219,5.6175,5.6175,5.6175,5.6175,5.6175,5.62,5.6401,5.6935,5.6985,5.7255,5.7826,5.7901,5.7901,5.7876,5.7876,5.7374,5.6251,5.62,5.6451,5.6985,5.6495,5.7367,5.9703,5.988,6.1787,6.5309,6.5989,6.6227,4.8667,4.944,5.0846,5.3047,5.5927,5.9099,6.2391,6.2068,6.1445,6.2743,5.8937,5.5621,5.6326,5.677,5.6883,5.646,6.0851,6.4297,6.4297,6.5843,6.7014,6.7014,6.7014,6.7014,6.7014,6.7014,6.7014,6.7014,6.7014,6.7014,6.7014,6.7014,6.7014,6.7014,6.6819,6.67,6.67,6.67,6.6057,6.4814,6.5018,6.4988,6.4769,6.4096,6.2835,6.1051,6.0262,5.8906,5.7217,5.6476,5.6155,5.6117,5.5991,5.6068,5.62,5.62,5.6118,5.5993,5.6125,5.5993,5.5742,5.5917,5.5867,5.5691,5.5516,5.5465,5.5315,5.4554,5.4604,5.4737,5.4127,5.4411,5.4805,5.4429,5.4755,5.5207,5.5383,5.5691,5.6018,5.615,5.5892,5.5767,5.6125,5.5892,5.5641,5.5641,5.5641,5.5641,5.5641,5.5968,5.6251,5.6426,5.7154,5.7399,5.6771,5.7449,5.7549,5.6771,5.6721,5.6922,5.7374,5.6979,5.6835,5.6985,5.8179,5.9135,5.9863,6.2915,6.4263,6.3997,6.5469,6.5421,4.9727,5.0686,5.224,5.504,5.725,5.942,6.1974,6.243,6.2073,6.1299,5.8422,5.6204,5.676,5.7451,5.7758,5.7184,6.1124,6.4297,6.4297,6.5843,6.7014,6.7014,6.7014,6.7014,6.7014,6.7014,6.7014,6.7014,6.7014,6.7014,6.7014,6.7014,6.7014,6.7014,6.7014,6.7014,6.7014,6.6307,6.5374,6.4281,6.3558,6.2854,6.2181,6.2476,6.1651,5.9823,5.818,5.6762,5.559,5.5115,5.5232,5.5742,5.6068,5.62,5.62,5.62,5.62,5.62,5.62,5.62,5.62,5.62,5.62,5.615,5.5942,5.5892,5.5742,5.5107,5.5157,5.529,5.4813,5.5214,5.5566,5.5056,5.5333,5.5717,5.5717,5.5968,5.62,5.62,5.5942,5.5817,5.6125,5.5942,5.5717,5.5717,5.5717,5.5717,5.5717,5.6018,5.6276,5.6502,5.7129,5.7355,5.6922,5.7499,5.77,5.723,5.7887,5.873,5.9653,5.8705,5.8729,5.9926,6.0882,6.1825,6.2775,6.5402,6.6072,6.4915,6.6267,6.548,5.1619,5.2137,5.3084,5.7043,5.8301,5.8896,6.0057,6.1395,6.1569,5.8593,5.7506,5.6885,5.6301,5.7689,5.8718,5.8189,6.1591,6.4297,6.4297,6.5843,6.7014,6.7014,6.7014,6.7014,6.7014,6.7014,6.7014,6.7014,6.7014,6.7014,6.7014,6.7014,6.7014,6.7014,6.6831,6.6754,6.6754,6.4949,6.3975,6.3797,6.2131,6.0418,5.8736,6.0511,6.0357,5.8473,5.6339,5.5107,5.4647,5.5182,5.5691,5.6143,5.6175,5.62,5.62,5.62,5.62,5.62,5.62,5.62,5.62,5.62,5.62,5.61,5.5616,5.5465,5.544,5.539,5.5433,5.5566,5.6,5.615,5.6093,5.5591,5.5842,5.62,5.62,5.62,5.62,5.62,5.62,5.62,5.62,5.62,5.62,5.62,5.62,5.62,5.62,5.62,5.6401,5.6935,5.6985,5.7211,5.7775,5.7876,5.8077,5.851,6.0376,6.1766,6.2558,6.1137,6.1592,6.4345,6.4118,6.4909,6.6852,6.719,6.7118,6.6684,6.7301,6.5614,5.1135,5.1946,5.3319,5.6703,5.9532,6.1201,6.0111,6.1162,6.1661,5.9072,5.8083,5.7399,5.6394,5.7689,5.8718,5.8189,6.1591,6.4297,6.4297,6.5843,6.7014,6.7014,6.7014,6.7014,6.7014,6.7014,6.7014,6.7014,6.7014,6.7014,6.7014,6.7014,6.7014,6.7014,6.5623,6.487,6.487,6.31,6.1461,6.0058,5.9661,5.8525,5.6841,5.8666,5.8271,5.6127,5.5613,5.5107,5.4647,5.5182,5.5483,5.5616,5.6043,5.62,5.62,5.62,5.62,5.62,5.62,5.62,5.62,5.62,5.62,5.6194,5.605,5.6043,5.5942,5.5516,5.5691,5.5968,5.5641,5.5892,5.615,5.6068,5.61,5.62,5.62,5.62,5.62,5.62,5.62,5.62,5.62,5.62,5.62,5.62,5.62,5.62,5.62,5.62,5.6401,5.6935,5.6985,5.7035,5.7179,5.7631,5.775,5.7405,5.9564,6.1781,6.3868,6.36,6.3729,6.439,6.5776,6.5981,6.4983,6.6948,6.6376,6.3423,6.3576,6.2368,5.2193,5.3272,5.4529,5.6965,5.9589,6.1059,5.9238,5.9577,5.9786,5.819,5.8108,5.7932,5.6803,5.8766,6.0394,5.9852,6.3066,6.5592,6.5592,6.6415,6.7014,6.7014,6.7014,6.7014,6.7014,6.7014,6.7014,6.7014,6.7014,6.7014,6.7014,6.7014,6.6585,6.5717,6.479,6.3894,6.3035,6.1208,5.9834,5.8885,5.802,5.7105,5.6237,5.7177,5.6798,5.5408,5.5408,5.5232,5.5006,5.5282,5.5541,5.5817,5.6093,5.62,5.62,5.62,5.62,5.62,5.62,5.62,5.62,5.62,5.62,5.62,5.62,5.62,5.6125,5.5867,5.5993,5.6143,5.5867,5.5993,5.62,5.62,5.62,5.62,5.62,5.62,5.62,5.62,5.62,5.62,5.62,5.62,5.62,5.62,5.62,5.62,5.62,5.62,5.6401,5.6935,5.6985,5.7111,5.7405,5.7725,5.7876,5.7832,5.9876,6.1787,6.3389,6.4319,6.5656,6.748,6.7627,6.7186,6.617,6.6515,6.5241,6.2413,6.2413,6.1354,5.3162,5.4728,5.5894,5.6989,5.8608,5.956,5.7973,5.775,5.77,5.7004,5.7706,5.8177,5.7454,6.0137,6.2392,6.2264,6.5099,6.7298,6.7194,6.7284,6.7254,6.7044,6.7104,6.7134,6.7014,6.7014,6.7014,6.7014,6.6708,6.6524,6.6524,6.6231,6.5374,6.3894,6.3525,6.2628,6.114,5.9251,5.8279,5.8262,5.6677,5.5968,5.605,5.605,5.5867,5.5559,5.5559,5.5559,5.5559,5.5559,5.5792,5.62,5.62,5.62,5.62,5.62,5.62,5.62,5.62,5.62,5.62,5.62,5.62,5.62,5.62,5.62,5.62,5.62,5.62,5.62,5.62,5.62,5.62,5.62,5.62,5.62,5.62,5.62,5.62,5.62,5.62,5.62,5.62,5.62,5.62,5.62,5.62,5.62,5.62,5.6276,5.6552,5.7104,5.7154,5.7405,5.8001,5.8052,5.8227,5.866,6.0557,6.1885,6.2386,6.4192,6.6691,6.9834,6.8388,6.7421,6.7111,6.5498,6.3748,6.1891,6.1891,6.1033,5.1917,5.444,5.6285,5.527,5.6255,5.7293,5.66,5.7198,5.76,5.6527,5.6803,5.7503,5.8459,6.0804,6.3073,6.4548,6.7009,6.8525,6.7942,6.8361,6.8286,6.7134,6.7493,6.7643,6.7074,6.7014,6.7014,6.7014,6.556,6.4662,6.4662,6.3166,6.2197,6.1964,6.0453,5.9504,5.927,5.6986,5.5861,5.5861,5.5156,5.5056,5.5509,5.5509,5.5717,5.6075,5.6075,5.6075,5.6075,5.6075,5.6143,5.62,5.62,5.62,5.62,5.62,5.62,5.62,5.62,5.62,5.62,5.62,5.62,5.62,5.62,5.62,5.62,5.62,5.62,5.62,5.62,5.62,5.62,5.62,5.62,5.62,5.62,5.62,5.62,5.62,5.62,5.62,5.62,5.62,5.62,5.62,5.62,5.62,5.62,5.6602,5.7129,5.7725,5.7775,5.8001,5.8535,5.8585,5.861,5.8685,6.0946,6.2307,6.2413,6.4192,6.5445,6.5957,6.5728,6.4786,6.318,6.2904,6.1779,5.9907,5.9907,5.9753,5.1418,5.404,5.5963,5.5237,5.5817,5.6502,5.6251,5.6595,5.6821,5.6301,5.7182,5.826,5.8798,6.1444,6.3951,6.5109,6.708,6.8481,6.8541,6.8481,6.8211,6.7613,6.6579,6.5806,6.5527,6.4583,6.3975,6.3975,6.3248,6.2805,6.2805,6.2031,6.114,6.0127,5.9322,5.8401,5.7385,5.6074,5.5257,5.4956,5.4723,5.4881,5.5408,5.5408,5.5691,5.62,5.62,5.62,5.62,5.62,5.62,5.62,5.62,5.62,5.62,5.62,5.62,5.62,5.62,5.62,5.62,5.62,5.62,5.62,5.62,5.62,5.62,5.62,5.62,5.62,5.62,5.62,5.62,5.62,5.62,5.62,5.62,5.62,5.62,5.62,5.62,5.62,5.62,5.62,5.62,5.62,5.62,5.6301,5.6602,5.6835,5.7355,5.8234,5.8334,5.8579,5.9106,5.9156,5.9156,5.9156,6.0176,6.0774,6.0774,6.1591,6.2007,6.2007,6.3072,6.3227,6.2413,6.1316,6.0342,5.9483,5.9483,5.9659,5.0575,5.2937,5.4901,5.5015,5.5793,5.6544,5.6405,5.6862,5.7105,5.6351,5.802,5.9462,5.8973,6.2158,6.5122,6.6083,6.7249,6.8145,6.8471,6.7819,6.7105,6.6651,6.5102,6.3932,6.3635,6.238,6.1595,6.1595,6.1157,6.0903,6.0903,6.0487,5.9609,5.8242,5.8215,5.7487,5.6011,5.5315,5.4705,5.4177,5.4321,5.4655,5.5207,5.5333,5.5691,5.62,5.62,5.62,5.62,5.62,5.62,5.62,5.62,5.62,5.62,5.62,5.62,5.62,5.62,5.62,5.62,5.62,5.62,5.62,5.62,5.62,5.62,5.62,5.62,5.62,5.62,5.62,5.62,5.62,5.62,5.62,5.62,5.62,5.62,5.62,5.62,5.62,5.62,5.62,5.6251,5.6376,5.6401,5.6602,5.7154,5.7355,5.7757,5.861,5.8811,5.9081,5.9458,5.9483,5.9483,5.9483,5.9483,5.9483,5.9483,5.9483,5.9483,5.9483,6.0919,6.1647,6.1647,6.0208,5.9558,5.9709,5.9709,6.001,4.8751,5.0725,5.2862,5.3772,5.5823,5.7504,5.6986,5.8674,5.9589,5.6794,5.899,6.0937,5.9218,6.2903,6.6761,6.8534,6.8412,6.7872,6.7295,6.6141,6.4676,6.2888,6.3131,6.3003,6.184,6.1663,6.1595,6.1595,6.0006,5.9043,5.9043,5.7403,5.6449,5.634,5.634,5.6033,5.5458,5.4336,5.3532,5.2995,5.349,5.4077,5.4672,5.5157,5.5691,5.62,5.62,5.62,5.62,5.62,5.62,5.62,5.62,5.62,5.62,5.62,5.62,5.62,5.62,5.62,5.62,5.62,5.62,5.62,5.62,5.62,5.62,5.62,5.62,5.62,5.62,5.62,5.62,5.62,5.62,5.62,5.62,5.62,5.62,5.62,5.62,5.62,5.62,5.62,5.6376,5.6885,5.696,5.7179,5.7775,5.8284,5.8635,5.8685,5.9156,5.9458,5.9483,5.9483,5.9483,5.9483,5.9483,5.9483,5.9483,5.9483,5.9483,5.9483,5.9599,5.9657,5.9657,5.9541,5.9759,6.0267,6.0267,6.0588,4.8631,4.9671,5.1114,5.2833,5.4585,5.6276,5.7656,5.8453,5.8691,5.8067,5.8955,5.9661,5.9025,6.1292,6.375,6.5162,6.5233,6.5283,6.5799,6.5132,6.4195,6.3163,6.1831,6.0736,5.9949,5.8815,5.8144,5.8144,5.7528,5.7177,5.7177,5.6558,5.62,5.62,5.5867,5.5239,5.431,5.4303,5.4002,5.3432,5.3607,5.4185,5.5107,5.5308,5.5691,5.62,5.62,5.62,5.62,5.62,5.62,5.62,5.62,5.62,5.62,5.62,5.62,5.62,5.62,5.62,5.62,5.62,5.62,5.62,5.62,5.62,5.62,5.62,5.62,5.62,5.62,5.62,5.62,5.62,5.6451,5.6728,5.6728,5.6451,5.62,5.62,5.6477,5.6728,5.6728,5.7029,5.7204,5.7035,5.733,5.7675,5.7876,5.8359,5.8836,5.9182,5.9382,5.9483,5.9483,5.9483,5.9483,5.9483,5.9834,5.9859,5.9508,5.9834,5.9859,5.9508,5.9483,5.9483,5.9483,5.9483,5.9784,6.0292,6.0292,6.0814,4.8167,4.8895,5.0179,5.2704,5.3994,5.5529,5.8771,5.9418,5.9226,5.8961,5.9392,5.9444,5.8233,5.8973,6.0536,6.2749,6.2925,6.3049,6.3856,6.319,6.2354,6.1631,6.0112,5.8823,5.808,5.6913,5.62,5.62,5.62,5.62,5.62,5.62,5.62,5.62,5.5509,5.478,5.4027,5.4027,5.3926,5.3708,5.3909,5.4504,5.5408,5.5609,5.5867,5.62,5.62,5.62,5.62,5.62,5.62,5.62,5.62,5.62,5.62,5.62,5.62,5.62,5.62,5.62,5.62,5.62,5.62,5.62,5.62,5.62,5.62,5.62,5.62,5.62,5.62,5.6326,5.6527,5.6702,5.7029,5.7305,5.7305,5.7029,5.6771,5.6771,5.7054,5.7305,5.7305,5.7631,5.7826,5.7606,5.7907,5.8227,5.8403,5.8755,5.9106,5.9458,5.9483,5.9483,5.9483,5.9483,5.9483,5.9483,5.9834,5.9885,5.9508,5.9859,5.9859,5.9508,5.9483,5.9583,5.9784,5.9784,6.006,6.0613,6.0794,6.1744,0.0,0.0,0.0,5.3264,5.4065,5.5302,6.0012,6.1439,6.1216,5.9222,6.0183,6.0303,5.6834,5.62,5.7546,6.1719,6.1835,6.1363,6.139,6.0269,5.9081,5.8001,5.7901,5.7449,5.6301,5.62,5.62,5.62,5.62,5.62,5.62,5.62,5.6175,5.6194,5.5182,5.4622,5.4597,5.3532,5.3239,5.3758,5.4328,5.4906,5.5458,5.5968,5.62,5.62,5.62,5.62,5.62,5.62,5.62,5.62,5.62,5.62,5.62,5.62,5.62,5.62,5.62,5.62,5.62,5.62,5.62,5.62,5.62,5.62,5.62,5.62,5.62,5.62,5.62,5.6627,5.7161,5.7775,5.7901,5.7926,5.7926,5.7926,5.7926,5.7901,5.7901,5.7926,5.7926,5.7926,5.8127,5.861,5.871,5.8886,5.9408,5.9483,5.9483,5.9483,5.9483,5.9483,5.9483,5.9483,5.9483,5.9483,5.9533,5.9533,5.9483,5.9533,5.9533,5.9508,5.9508,5.9784,6.0317,6.0317,6.0613,6.1235,6.1768,6.339,4.6188,0.0,0.0,0.0,0.0,0.0,5.5133,5.5091,5.4813,5.6701,5.645,5.5956,5.6149,5.62,5.659,5.777,5.8123,5.8394,5.8827,5.8896,5.851,5.738,5.7631,5.7449,5.6301,5.62,5.62,5.62,5.62,5.62,5.62,5.62,5.6018,5.5616,5.5717,5.5383,5.4622,5.468,5.4787,5.4913,5.5107,5.5458,5.5993,5.6125,5.62,5.62,5.62,5.62,5.62,5.62,5.62,5.62,5.62,5.62,5.62,5.62,5.62,5.62,5.62,5.62,5.62,5.62,5.62,5.62,5.62,5.62,5.62,5.62,5.62,5.6276,5.6677,5.7204,5.77,5.7851,5.8202,5.8485,5.8485,5.878,5.883,5.8052,5.8227,5.8485,5.8485,5.8805,5.8981,5.8736,5.871,5.8761,5.8886,5.8911,5.9062,5.9458,5.9483,5.9483,5.9483,5.9483,5.9483,5.9483,6.0261,6.0356,5.9533,6.0306,6.0512,6.0111,6.0085,6.0362,6.0939,6.0493,6.0814,6.1793,6.2325,6.3728,0.0,0.0,0.0,4.8155,0.0,0.0,5.3208,5.3038,5.2741,5.5762,5.5766,5.525,5.5502,5.5516,5.5591,5.5842,5.6143,5.6602,5.7405,5.8008,5.8108,5.7455,5.7455,5.7355,5.6947,5.6477,5.6301,5.6527,5.6326,5.62,5.62,5.62,5.6068,5.5742,5.5817,5.5566,5.4949,5.5006,5.5182,5.5408,5.5408,5.5666,5.62,5.62,5.62,5.62,5.62,5.62,5.62,5.62,5.62,5.62,5.62,5.62,5.62,5.62,5.62,5.62,5.62,5.62,5.62,5.62,5.62,5.62,5.62,5.62,5.62,5.62,5.6351,5.6652,5.723,5.7782,5.8303,5.8504,5.8805,5.9037,5.9037,5.9282,5.9307,5.8679,5.883,5.9037,5.9037,5.9307,5.9382,5.9062,5.9037,5.9037,5.9037,5.9037,5.9156,5.9458,5.9483,5.9483,5.9483,5.9483,5.9583,5.9834,6.0462,6.0638,6.0211,6.0858,6.1014,6.0688,6.0688,6.0964,6.1517,6.119,6.1472,6.2325,6.2651,6.4338,4.3697,4.4371,0.0,0.0,4.5693,0.0,5.2124,5.2628,5.2491,5.488,5.5886,5.593,5.4486,5.4295,5.4454,5.4881,5.5157,5.5691,5.6778,5.743,5.7801,5.7801,5.738,5.7305,5.7851,5.6997,5.6552,5.696,5.6502,5.62,5.62,5.62,5.62,5.62,5.5742,5.5509,5.5509,5.5006,5.5006,5.5509,5.5509,5.5742,5.62,5.62,5.62,5.62,5.62,5.62,5.62,5.62,5.62,5.62,5.62,5.62,5.62,5.62,5.62,5.62,5.62,5.62,5.62,5.62,5.62,5.62,5.62,5.62,5.62,5.6276,5.6677,5.7255,5.7832,5.8403,5.8911,5.9382,5.9483,5.9483,5.9483,5.9483,5.9483,5.9483,5.9483,5.9483,5.9483,5.9483,5.9483,5.9483,5.9433,5.9433,5.9483,5.9433,5.9433,5.9483,5.9483,5.9483,5.9483,5.9483,5.9709,6.0166,6.0317,6.0613,6.1085,6.1235,6.1285,6.1285,6.1361,6.1617,6.2094,6.2094,6.2325,6.2802,6.3047,6.5207,4.2716,4.397,4.5767,4.4542,4.4232,0.0,4.5262,4.5832,4.6685,4.8538,4.9736,5.0765,5.1758,5.2294,5.2477,5.2143,5.3575,5.5132,5.62,5.6828,5.7179,5.7179,5.7506,5.7775,5.7901,5.77,5.7405,5.7035,5.6502,5.62,5.62,5.62,5.62,5.62,5.6118,5.6043,5.6043,5.5942,5.5942,5.6043,5.6043,5.6118,5.62,5.62,5.62,5.62,5.62,5.62,5.62,5.62,5.62,5.62,5.62,5.62,5.62,5.62,5.62,5.62,5.62,5.62,5.62,5.62,5.62,5.62,5.62,5.62,5.6276,5.6728,5.728,5.7851,5.8384,5.8956,5.9357,5.9483,5.9483,5.9483,5.9483,5.9483,5.9483,5.9483,5.9483,5.9483,5.9483,5.9483,5.9483,5.9483,5.9112,5.9012,5.9433,5.9112,5.9012,5.9458,5.9483,5.9483,5.9483,5.9483,5.9533,5.9659,6.0512,6.0864,6.0493,6.1366,6.1843,6.1843,6.227,6.2526,6.2651,6.2651,6.2701,6.2843,6.4478,6.6546,4.1706,4.2637,4.4068,4.3097,0.0,0.0,0.0,4.384,4.4443,4.6647,4.7566,4.8284,4.9389,4.9816,5.0193,5.077,5.2268,5.3725,5.4813,5.5899,5.6684,5.696,5.728,5.7656,5.8234,5.7782,5.7204,5.6652,5.6351,5.62,5.62,5.62,5.62,5.62,5.62,5.62,5.62,5.62,5.62,5.62,5.62,5.62,5.62,5.62,5.62,5.62,5.62,5.62,5.62,5.62,5.62,5.62,5.62,5.62,5.62,5.62,5.62,5.62,5.62,5.62,5.62,5.62,5.62,5.62,5.62,5.62,5.6301,5.6835,5.743,5.8027,5.856,5.9106,5.9483,5.9483,5.9483,5.9483,5.9483,5.9483,5.9483,5.9483,5.9483,5.9483,5.9483,5.9483,5.9483,5.9483,5.9282,5.9207,5.9458,5.9282,5.9207,5.9458,5.9483,5.9483,5.9483,5.9483,5.9608,5.9885,6.0733,6.1165,6.1145,6.1948,6.24,6.24,6.2676,6.2802,6.2802,6.3801,6.4298,6.4318,6.5339,6.7464,4.1513,4.2058,4.301,0.0,0.0,4.1868,0.0,0.0,0.0,4.5909,4.6471,4.6747,4.7189,4.7355,4.7883,4.9222,5.067,5.1925,5.2779,5.4443,5.5874,5.6734,5.6835,5.7305,5.8434,5.743,5.6602,5.6376,5.6068,5.5993,5.6175,5.62,5.62,5.62,5.62,5.62,5.62,5.62,5.62,5.62,5.62,5.62,5.62,5.62,5.62,5.62,5.62,5.62,5.62,5.62,5.62,5.62,5.62,5.62,5.62,5.62,5.62,5.62,5.62,5.62,5.62,5.62,5.62,5.62,5.62,5.62,5.6301,5.6835,5.743,5.8027,5.856,5.9106,5.9483,5.9483,5.9483,5.9483,5.9483,5.9483,5.9483,5.9483,5.9483,5.9483,5.9483,5.9483,5.9483,5.9483,5.9483,5.9483,5.9483,5.9483,5.9483,5.9483,5.9483,5.9483,5.9483,5.9483,5.9734,6.0267,6.0864,6.1461,6.1994,6.2526,6.2802,6.2802,6.2802,6.2802,6.2802,6.483,6.5804,6.5824,6.6616,6.8747,0.0,0.0,0.0,0.0,4.3173,0.0,4.1567,0.0,4.4227,4.3603,0.0,4.489,4.4966,0.0,0.0,4.6039,4.8209,4.9916,5.0042,5.1908,5.4042,5.605,5.6276,5.6728,5.7876,5.652,5.5968,5.6835,5.5609,5.5207,5.615,5.62,5.62,5.62,5.62,5.62,5.62,5.62,5.62,5.62,5.62,5.62,5.62,5.62,5.62,5.62,5.62,5.62,5.62,5.62,5.62,5.62,5.62,5.62,5.62,5.62,5.62,5.62,5.62,5.62,5.62,5.62,5.62,5.62,5.62,5.62,5.6301,5.6835,5.743,5.8027,5.856,5.9106,5.9483,5.9483,5.9483,5.9483,5.9483,5.9483,5.9483,5.9483,5.9483,5.9483,5.9483,5.9483,5.9483,5.9483,5.9483,5.9483,5.9483,5.9483,5.9483,5.9483,5.9483,5.9483,5.9483,5.9483,5.9734,6.0267,6.0864,6.1461,6.1994,6.2526,6.2802,6.2802,6.2802,6.2802,6.2802,6.483,6.5804,6.5883,6.9533,7.1449,0.0,0.0,0.0,0.0,0.0,0.0,4.1945,0.0,4.227,0.0,0.0,0.0,0.0,0.0,0.0,0.0,4.7255,4.8736,4.9079,5.0469,5.2159,5.4067,5.4293,5.4594,5.539,5.5157,5.5257,5.6,5.5157,5.5056,5.6125,5.62,5.62,5.62,5.62,5.62,5.62,5.62,5.62,5.62,5.62,5.62,5.62,5.62,5.62,5.62,5.62,5.62,5.62,5.62,5.62,5.62,5.62,5.62,5.62,5.62,5.62,5.62,5.62,5.62,5.62,5.62,5.62,5.62,5.62,5.62,5.6376,5.7255,5.77,5.8102,5.8956,5.9332,5.9483,5.9483,5.9483,5.9483,5.9483,5.9483,5.9483,5.9483,5.9483,5.9483,5.9483,5.9483,5.9483,5.9483,5.9483,5.9483,5.9483,5.9483,5.9608,5.9935,5.9684,5.9633,5.996,5.994,6.0041,6.0292,6.1165,6.1893,6.2425,6.2676,6.2802,6.2802,6.2802,6.3387,6.4532,6.6604,6.8181,6.9384,7.1105,7.2528,4.5156,0.0,0.0,0.0,0.0,0.0,0.0,0.0,0.0,0.0,4.3215,0.0,0.0,0.0,4.4719,0.0,0.0,4.7767,4.8074,4.8912,5.016,5.2009,5.2636,5.3188,5.3884,5.3801,5.4152,5.529,5.4479,5.4529,5.5917,5.61,5.6125,5.5993,5.61,5.62,5.62,5.62,5.62,5.62,5.62,5.62,5.62,5.62,5.62,5.62,5.62,5.62,5.62,5.62,5.62,5.62,5.62,5.62,5.62,5.62,5.62,5.62,5.62,5.62,5.62,5.62,5.62,5.62,5.62,5.6301,5.6602,5.7405,5.7876,5.8303,5.9081,5.9382,5.9483,5.9483,5.9483,5.9483,5.9483,5.9483,5.9483,5.9483,5.9483,5.9483,5.9483,5.9483,5.9483,5.9483,5.9483,5.9483,5.9483,5.9633,5.9885,6.0267,6.0111,6.0111,6.0512,6.0563,6.0613,6.0744,6.1672,6.2375,6.2802,6.2802,6.2802,6.2802,6.3347,6.4338,6.5804,6.8454,7.0466,7.1909,7.2474,7.3486,0.0,0.0,0.0,4.4618,0.0,0.0,0.0,0.0,4.4478,0.0,0.0,0.0,0.0,0.0,0.0,0.0,0.0,0.0,0.0,4.6863,4.8027,5.0226,5.1908,5.3339,5.4454,5.2645,5.252,5.5207,5.3406,5.313,5.5308,5.5917,5.5968,5.5458,5.5942,5.62,5.62,5.62,5.62,5.62,5.62,5.62,5.62,5.62,5.62,5.62,5.62,5.62,5.62,5.62,5.62,5.62,5.62,5.62,5.62,5.62,5.62,5.62,5.62,5.62,5.62,5.62,5.62,5.62,5.62,5.6552,5.6985,5.701,5.7813,5.8685,5.871,5.9106,5.9483,5.9483,5.9483,5.9483,5.9483,5.9483,5.9483,5.9483,5.9483,5.9483,5.9483,5.9483,5.9483,5.9483,5.9483,5.9483,5.9483,5.994,6.0292,6.0292,6.0814,6.116,6.1185,6.1185,6.1411,6.1918,6.2476,6.2802,6.2802,6.2802,6.2802,6.2802,6.4711,6.5726,6.5804,6.9848,7.1838,7.1945,7.3882,7.4834,0.0,0.0,4.9656,4.6301,0.0,0.0,0.0,0.0,0.0,0.0,0.0,0.0,0.0,0.0,0.0,0.0,0.0,0.0,0.0,4.5583,4.612,4.8002,4.9699,5.072,5.0753,5.1088,5.1841,5.3105,5.2528,5.2904,5.4755,5.5383,5.5609,5.5408,5.5917,5.62,5.62,5.62,5.62,5.62,5.62,5.62,5.62,5.62,5.62,5.62,5.62,5.62,5.62,5.62,5.62,5.62,5.62,5.62,5.62,5.62,5.62,5.62,5.62,5.62,5.62,5.62,5.62,5.62,5.62,5.6577,5.7085,5.7481,5.8127,5.878,5.9131,5.9357,5.9483,5.9483,5.9483,5.9483,5.9483,5.9483,5.9483,5.9483,5.9483,5.9483,5.9483,5.9483,5.9483,5.9483,5.9483,5.9633,5.9985,6.0191,6.0593,6.1346,6.1291,6.1361,6.1692,6.1718,6.1969,6.2501,6.2701,6.2802,6.2802,6.2802,6.3423,6.4751,6.5457,6.7111,6.9848,7.1232,7.2563,7.3882,7.4564,7.4886,5.0594,5.0887,0.0,4.8344,4.7716,0.0,4.4758,0.0,4.6662,0.0,0.0,0.0,0.0,0.0,0.0,0.0,0.0,0.0,0.0,4.4729,4.5066,4.6386,4.7992,4.9179,4.9631,4.9933,5.072,5.226,5.1473,5.206,5.4738,5.5034,5.5385,5.5998,5.6118,5.62,5.62,5.62,5.62,5.62,5.62,5.62,5.62,5.62,5.62,5.62,5.62,5.62,5.62,5.62,5.62,5.62,5.62,5.62,5.62,5.62,5.62,5.62,5.62,5.62,5.62,5.62,5.62,5.6244,5.6426,5.6878,5.7455,5.8008,5.8554,5.9075,5.9408,5.9483,5.9483,5.9483,5.9483,5.9483,5.9483,5.9483,5.9483,5.9483,5.9483,5.9483,5.9483,5.9483,5.9483,5.9483,5.9659,5.991,6.0242,6.0643,6.119,6.1918,6.1868,6.1918,6.225,6.2275,6.2425,6.2777,6.2802,6.2802,6.2802,6.3483,6.4497,6.5765,6.7226,6.9272,7.1891,7.2616,7.3638,7.4886,7.4886,7.4886]},{"header":{"parameterUnit":"m.s-1","parameterCategory":1,"la1":30.6,"la2":29.2853,"lo1":-89.7004,"lo2":-87.6739,"dy":0.0162,"dx":0.0183,"nx":112,"ny":82,"refTime":"2026-04-06T00:00:00:Z","depth":0,"parameterNumber":3,"parameterNumberName":"V-component_of_WINDS"},"data":[0.0,0.0,0.0,0.0,0.0,0.0,0.0,0.0,0.0,0.0,0.0,0.0,0.0,0.0,0.0,0.0,0.0,0.0,0.0,0.0,0.0,0.0,0.0,0.0,0.0,0.0,0.0,0.0,0.0,0.0,0.0,0.0,0.0,0.0,0.0,0.0,0.0,0.0,0.0,0.0,0.0,0.0,0.0,0.0,0.0,0.0,0.0,0.0,0.0,0.0,0.0,0.0,0.0,0.0,0.0,0.0,0.0,0.0,0.0,0.0,0.0,0.0,0.0,0.0,0.0,0.0,0.0,0.0,0.0,0.0,0.0,0.0,0.0,0.0,0.0,0.0,0.0,0.0,0.0,0.0,0.0,0.0,0.0,0.0,0.0,0.0,0.0,0.0,0.0,0.0,2.7665,2.8529,2.9993,3.1226,3.2007,3.0932,2.936,2.7404,0.0,0.0,0.0,0.0,0.0,0.0,0.0,0.0,0.0,0.0,0.0,0.0,0.0,0.0,0.0,0.0,0.0,0.0,0.0,0.0,0.0,0.0,0.0,0.0,0.0,0.0,0.0,0.0,0.0,0.0,0.0,0.0,0.0,0.0,0.0,0.0,0.0,0.0,0.0,0.0,0.0,0.0,0.0,0.0,0.0,0.0,0.0,0.0,0.0,0.0,0.0,0.0,0.0,0.0,0.0,0.0,0.0,0.0,0.0,0.0,0.0,0.0,0.0,0.0,0.0,0.0,0.0,0.0,0.0,0.0,0.0,0.0,0.0,0.0,0.0,0.0,0.0,0.0,0.0,0.0,0.0,0.0,0.0,0.0,0.0,0.0,0.0,0.0,0.0,0.0,0.0,0.0,0.0,0.0,0.0,0.0,0.0,0.0,0.0,0.0,0.0,0.0,0.0,0.0,2.9885,3.2502,3.1657,3.1094,3.1582,3.0742,2.9685,2.8523,0.0,0.0,0.0,0.0,0.0,0.0,0.0,0.0,0.0,0.0,0.0,0.0,0.0,0.0,0.0,0.0,0.0,0.0,0.0,0.0,0.0,0.0,0.0,0.0,0.0,0.0,0.0,0.0,0.0,0.0,0.0,0.0,0.0,0.0,0.0,0.0,0.0,0.0,0.0,0.0,0.0,0.0,0.0,0.0,0.0,0.0,0.0,0.0,0.0,0.0,0.0,0.0,0.0,0.0,0.0,0.0,0.0,0.0,0.0,0.0,0.0,0.0,0.0,0.0,0.0,0.0,0.0,0.0,0.0,0.0,0.0,0.0,0.0,0.0,0.0,0.0,0.0,0.0,0.0,0.0,0.0,0.0,0.0,0.0,0.0,0.0,0.0,0.0,0.0,0.0,0.0,0.0,0.0,0.0,0.0,0.0,0.0,0.0,0.0,0.0,0.0,0.0,0.0,2.7747,2.9458,3.2206,3.1538,3.1055,3.1469,3.1434,3.0622,2.8803,2.9582,0.0,0.0,0.0,0.0,0.0,0.0,0.0,0.0,0.0,0.0,0.0,0.0,0.0,0.0,0.0,0.0,0.0,0.0,0.0,0.0,0.0,0.0,0.0,0.0,0.0,0.0,0.0,0.0,0.0,0.0,0.0,0.0,0.0,0.0,0.0,0.0,0.0,0.0,0.0,0.0,0.0,0.0,0.0,0.0,0.0,0.0,0.0,0.0,0.0,0.0,0.0,0.0,0.0,0.0,0.0,0.0,0.0,0.0,0.0,0.0,0.0,0.0,0.0,0.0,0.0,0.0,0.0,0.0,0.0,0.0,0.0,0.0,0.0,0.0,0.0,0.0,0.0,0.0,0.0,0.0,0.0,0.0,0.0,0.0,0.0,0.0,0.0,0.0,0.0,0.0,0.0,0.0,0.0,0.0,0.0,0.0,0.0,0.0,0.0,0.0,0.0,0.0,2.8383,2.9213,3.1612,3.1294,3.1177,3.181,3.1679,3.1021,2.9679,3.052,0.0,0.0,0.0,0.0,0.0,0.0,0.0,0.0,0.0,0.0,0.0,0.0,0.0,0.0,0.0,0.0,0.0,0.0,0.0,0.0,0.0,0.0,0.0,0.0,0.0,0.0,0.0,0.0,0.0,0.0,0.0,0.0,0.0,0.0,0.0,0.0,0.0,0.0,0.0,0.0,0.0,0.0,0.0,0.0,0.0,0.0,0.0,0.0,0.0,0.0,0.0,0.0,0.0,0.0,0.0,0.0,0.0,0.0,0.0,0.0,0.0,0.0,0.0,0.0,0.0,0.0,0.0,0.0,0.0,0.0,0.0,0.0,0.0,0.0,0.0,0.0,0.0,0.0,0.0,0.0,0.0,0.0,0.0,0.0,0.0,0.0,0.0,0.0,0.0,0.0,0.0,0.0,0.0,0.0,0.0,0.0,0.0,0.0,0.0,0.0,0.0,0.0,2.9662,3.0784,3.2773,3.173,3.1475,3.2885,3.0628,3.003,3.2111,2.9977,0.0,0.0,0.0,0.0,0.0,0.0,0.0,0.0,0.0,0.0,0.0,0.0,0.0,0.0,0.0,0.0,0.0,0.0,0.0,0.0,0.0,0.0,0.0,0.0,0.0,0.0,0.0,0.0,0.0,0.0,0.0,0.0,0.0,0.0,0.0,0.0,0.0,0.0,0.0,0.0,0.0,0.0,0.0,0.0,0.0,0.0,0.0,0.0,0.0,0.0,0.0,0.0,0.0,0.0,0.0,0.0,0.0,0.0,0.0,0.0,0.0,0.0,0.0,0.0,0.0,0.0,0.0,0.0,0.0,0.0,0.0,0.0,0.0,0.0,0.0,0.0,0.0,0.0,0.0,0.0,0.0,0.0,0.0,0.0,0.0,0.0,0.0,0.0,0.0,0.0,0.0,0.0,0.0,0.0,0.0,0.0,0.0,0.0,0.0,0.0,0.0,0.0,2.8746,2.999,3.1566,3.1243,3.1498,3.2964,3.2639,3.2393,3.25,0.0,0.0,0.0,0.0,0.0,0.0,0.0,0.0,0.0,0.0,0.0,0.0,0.0,0.0,0.0,0.0,0.0,0.0,0.0,0.0,0.0,0.0,0.0,0.0,0.0,0.0,0.0,0.0,0.0,0.0,0.0,0.0,0.0,0.0,0.0,0.0,0.0,0.0,0.0,0.0,0.0,0.0,0.0,0.0,0.0,0.0,0.0,0.0,0.0,0.0,0.0,0.0,0.0,0.0,0.0,0.0,0.0,0.0,0.0,0.0,0.0,0.0,0.0,0.0,0.0,0.0,0.0,0.0,0.0,0.0,0.0,0.0,0.0,0.0,0.0,0.0,0.0,0.0,0.0,0.0,0.0,0.0,0.0,0.0,0.0,0.0,0.0,0.0,0.0,0.0,0.0,0.0,0.0,0.0,0.0,0.0,0.0,0.0,0.0,0.0,0.0,0.0,2.6882,2.8483,2.9927,3.0976,3.1409,3.2254,3.3848,3.3875,3.3492,3.2747,0.0,0.0,0.0,0.0,0.0,0.0,0.0,0.0,0.0,0.0,0.0,0.0,0.0,0.0,0.0,0.0,0.0,0.0,0.0,0.0,0.0,0.0,0.0,0.0,0.0,0.0,0.0,0.0,0.0,0.0,0.0,0.0,0.0,0.0,0.0,0.0,0.0,0.0,0.0,0.0,0.0,0.0,0.0,0.0,0.0,0.0,0.0,0.0,0.0,0.0,0.0,0.0,0.0,0.0,0.0,0.0,0.0,0.0,0.0,0.0,0.0,0.0,0.0,0.0,0.0,0.0,0.0,0.0,0.0,0.0,0.0,0.0,0.0,0.0,0.0,0.0,0.0,0.0,0.0,0.0,0.0,0.0,0.0,0.0,0.0,0.0,0.0,0.0,0.0,0.0,0.0,0.0,0.0,0.0,0.0,0.0,0.0,0.0,0.0,0.0,0.0,0.0,2.7018,2.9297,3.1069,3.1499,3.2472,3.389,3.5764,3.3847,3.2695,0.0,0.0,0.0,0.0,0.0,0.0,0.0,0.0,0.0,0.0,0.0,0.0,0.0,0.0,0.0,0.0,0.0,0.0,0.0,0.0,0.0,0.0,0.0,0.0,0.0,0.0,0.0,0.0,0.0,0.0,0.0,0.0,0.0,0.0,0.0,0.0,0.0,0.0,0.0,0.0,0.0,0.0,0.0,0.0,0.0,0.0,0.0,0.0,0.0,0.0,0.0,0.0,0.0,0.0,0.0,0.0,0.0,0.0,0.0,0.0,0.0,0.0,0.0,0.0,0.0,0.0,0.0,0.0,0.0,0.0,0.0,0.0,0.0,0.0,0.0,0.0,0.0,0.0,0.0,0.0,0.0,0.0,0.0,0.0,0.0,0.0,0.0,0.0,0.0,0.0,0.0,0.0,0.0,0.0,0.0,0.0,0.0,0.0,0.0,0.0,0.0,0.0,0.0,2.7454,2.9726,3.191,3.3446,3.3907,3.5049,3.739,3.6269,3.5112,3.428,0.0,0.0,0.0,0.0,0.0,0.0,0.0,0.0,0.0,0.0,0.0,0.0,0.0,0.0,0.0,0.0,0.0,0.0,0.0,0.0,0.0,0.0,0.0,0.0,0.0,0.0,0.0,0.0,0.0,0.0,0.0,0.0,0.0,0.0,0.0,0.0,0.0,0.0,0.0,0.0,0.0,0.0,0.0,0.0,0.0,0.0,0.0,0.0,0.0,0.0,0.0,0.0,0.0,0.0,0.0,0.0,0.0,0.0,0.0,0.0,0.0,0.0,0.0,0.0,0.0,0.0,0.0,0.0,0.0,0.0,0.0,0.0,0.0,0.0,0.0,0.0,0.0,0.0,0.0,0.0,0.0,0.0,0.0,0.0,0.0,0.0,0.0,0.0,0.0,0.0,0.0,0.0,0.0,0.0,0.0,0.0,0.0,0.0,0.0,0.0,0.0,0.0,2.7643,3.0474,3.3046,3.4622,3.5526,3.6697,3.8396,3.774,3.6418,3.4497,0.0,0.0,0.0,0.0,0.0,0.0,0.0,0.0,0.0,0.0,0.0,0.0,0.0,0.0,0.0,0.0,0.0,0.0,0.0,0.0,0.0,0.0,0.0,0.0,0.0,0.0,0.0,0.0,0.0,0.0,0.0,0.0,0.0,0.0,0.0,0.0,0.0,0.0,0.0,0.0,0.0,0.0,0.0,0.0,0.0,0.0,0.0,0.0,0.0,0.0,0.0,0.0,0.0,0.0,0.0,0.0,0.0,0.0,0.0,0.0,0.0,0.0,0.0,0.0,0.0,0.0,0.0,0.0,0.0,0.0,0.0,0.0,0.0,0.0,0.0,0.0,0.0,0.0,0.0,0.0,0.0,0.0,0.0,0.0,0.0,0.0,0.0,0.0,0.0,0.0,0.0,0.0,0.0,0.0,0.0,0.0,0.0,0.0,0.0,0.0,0.0,0.0,2.7891,3.147,3.4403,3.5587,3.74,3.8687,3.9086,3.8585,3.7034,3.4232,0.0,0.0,0.0,0.0,0.0,0.0,0.0,0.0,0.0,0.0,0.0,0.0,0.0,0.0,0.0,0.0,0.0,0.0,0.0,0.0,0.0,0.0,0.0,0.0,0.0,0.0,0.0,0.0,0.0,0.0,0.0,0.0,0.0,0.0,0.0,0.0,0.0,0.0,0.0,0.0,0.0,0.0,0.0,0.0,0.0,0.0,0.0,0.0,0.0,0.0,0.0,0.0,0.0,0.0,0.0,0.0,0.0,0.0,0.0,0.0,2.9716,2.8421,0.0,0.0,0.0,0.0,0.0,0.0,0.0,0.0,0.0,0.0,0.0,0.0,0.0,0.0,0.0,0.0,0.0,0.0,0.0,0.0,0.0,0.0,0.0,0.0,0.0,0.0,0.0,0.0,0.0,0.0,0.0,0.0,0.0,0.0,0.0,0.0,0.0,0.0,0.0,0.0,2.9805,3.2574,3.5691,3.9084,3.9839,4.0297,4.0746,4.0265,3.8579,3.5355,3.354,0.0,0.0,0.0,0.0,0.0,0.0,0.0,0.0,0.0,0.0,0.0,0.0,0.0,0.0,0.0,0.0,0.0,0.0,0.0,0.0,0.0,0.0,0.0,0.0,0.0,0.0,0.0,0.0,0.0,0.0,0.0,0.0,0.0,0.0,0.0,0.0,0.0,0.0,0.0,0.0,0.0,0.0,0.0,0.0,0.0,0.0,0.0,0.0,0.0,0.0,0.0,0.0,0.0,0.0,0.0,0.0,0.0,0.0,0.0,3.2698,3.15,0.0,0.0,0.0,0.0,0.0,0.0,0.0,0.0,0.0,0.0,0.0,0.0,0.0,0.0,0.0,0.0,0.0,0.0,0.0,0.0,0.0,0.0,0.0,0.0,0.0,0.0,0.0,0.0,0.0,0.0,0.0,0.0,0.0,0.0,0.0,0.0,0.0,0.0,0.0,0.0,3.0465,3.4224,3.7708,4.0315,4.1073,4.1341,4.1297,4.0575,3.9032,3.6471,3.4525,0.0,0.0,0.0,0.0,0.0,0.0,0.0,0.0,0.0,0.0,0.0,0.0,0.0,0.0,0.0,0.0,0.0,0.0,0.0,0.0,0.0,0.0,0.0,0.0,0.0,0.0,0.0,0.0,0.0,0.0,0.0,0.0,0.0,0.0,0.0,0.0,0.0,0.0,0.0,0.0,0.0,0.0,0.0,0.0,0.0,0.0,0.0,0.0,0.0,0.0,0.0,0.0,0.0,3.6023,3.7058,3.8743,3.9333,3.9333,3.8718,3.6003,3.5253,3.5645,3.1914,0.0,0.0,0.0,0.0,0.0,0.0,0.0,0.0,0.0,0.0,0.0,0.0,0.0,0.0,0.0,0.0,0.0,0.0,0.0,0.0,0.0,0.0,0.0,0.0,3.3562,3.3824,3.2134,0.0,0.0,0.0,0.0,0.0,0.0,0.0,0.0,0.0,0.0,0.0,3.1047,3.5818,3.9595,4.0884,4.1825,4.206,4.1364,4.0487,3.922,3.7449,3.5454,3.3811,0.0,0.0,0.0,0.0,0.0,0.0,0.0,0.0,0.0,0.0,0.0,0.0,0.0,0.0,0.0,0.0,0.0,0.0,0.0,0.0,0.0,0.0,0.0,0.0,0.0,0.0,0.0,0.0,0.0,0.0,0.0,0.0,3.2813,3.2864,0.0,0.0,0.0,0.0,0.0,0.0,0.0,0.0,0.0,0.0,0.0,0.0,0.0,3.4781,3.6151,3.8246,3.9447,3.9752,4.1202,4.1823,4.1658,4.221,4.2436,4.2322,4.1884,0.0,3.7467,3.4591,0.0,0.0,0.0,0.0,0.0,0.0,0.0,0.0,0.0,0.0,0.0,0.0,0.0,0.0,0.0,0.0,0.0,0.0,0.0,0.0,0.0,0.0,3.5027,3.4986,3.588,3.6644,0.0,3.4833,3.3182,3.2173,3.1939,0.0,0.0,0.0,0.0,0.0,0.0,0.0,3.2954,3.6704,4.0023,4.2431,4.2813,4.2459,4.1389,4.1163,4.0173,3.804,3.6747,3.5568,3.4427,3.2265,0.0,0.0,0.0,0.0,0.0,0.0,0.0,0.0,0.0,0.0,0.0,0.0,0.0,0.0,0.0,0.0,0.0,0.0,0.0,0.0,0.0,0.0,0.0,0.0,0.0,0.0,0.0,0.0,0.0,3.2932,3.3997,3.3997,3.4262,3.3986,0.0,0.0,0.0,0.0,0.0,0.0,0.0,0.0,0.0,3.5271,3.7334,3.8909,3.992,4.1237,4.2057,4.2345,4.3087,4.3653,4.4044,4.3955,4.4091,4.4338,4.3055,4.1669,4.0041,3.6675,3.4213,3.227,0.0,0.0,0.0,0.0,2.8844,3.0334,3.1836,3.268,3.3171,3.3829,0.0,0.0,0.0,0.0,0.0,0.0,0.0,0.0,0.0,0.0,3.7215,3.8074,3.8899,3.9433,3.912,3.8065,3.6547,0.0,3.4039,3.3017,2.9725,0.0,0.0,0.0,0.0,3.3012,3.4979,3.8205,4.101,4.2819,4.3014,4.2548,4.1389,4.1289,4.0499,3.863,3.7739,3.6798,3.5693,3.4112,3.2706,0.0,0.0,0.0,0.0,0.0,0.0,0.0,0.0,0.0,0.0,0.0,0.0,0.0,0.0,0.0,0.0,0.0,0.0,0.0,0.0,0.0,0.0,0.0,0.0,0.0,0.0,0.0,0.0,3.4288,3.5342,3.5342,3.5958,3.5743,0.0,0.0,0.0,0.0,0.0,0.0,3.4798,3.6916,3.8473,3.9318,4.1304,4.2721,4.3441,4.3854,4.4317,4.4844,4.4844,4.5296,4.61,4.5658,4.5683,4.5985,4.3832,4.2514,4.161,3.7868,3.5345,3.3514,3.0787,2.9732,2.9771,3.0014,3.1289,3.3188,3.5191,3.621,3.67,3.7249,3.6158,3.4114,3.1259,0.0,0.0,0.0,0.0,3.3168,3.6045,3.7742,3.9043,4.0376,4.1026,4.1188,4.0775,4.0387,3.9333,0.0,3.6021,3.4971,3.196,0.0,0.0,0.0,0.0,3.5532,3.6603,3.9554,4.1907,4.2875,4.3014,4.2548,4.1389,4.1289,4.0675,3.9195,3.8542,3.7864,3.7061,3.5794,3.4413,3.2882,0.0,0.0,0.0,0.0,0.0,0.0,0.0,0.0,0.0,0.0,0.0,0.0,0.0,0.0,0.0,0.0,0.0,0.0,0.0,0.0,0.0,0.0,0.0,0.0,0.0,0.0,0.0,0.0,0.0,3.7073,3.8052,0.0,0.0,0.0,0.0,3.7628,3.8667,3.9542,4.0091,4.1736,4.2916,4.3479,4.4665,4.5799,4.6848,4.6873,4.7149,4.7707,4.7707,4.7716,4.7782,4.7757,4.7757,4.7673,4.5829,4.3648,4.1094,3.7826,3.6146,3.5423,3.2974,3.2042,3.1968,3.1562,3.3909,3.7297,3.7445,3.9019,4.1152,4.2262,4.0422,3.7456,3.5752,3.4351,0.0,0.0,3.6015,3.7599,3.8216,3.9736,4.1146,4.1225,4.1289,4.1289,4.1264,4.1239,4.0575,0.0,3.7462,3.6386,3.4112,0.0,3.3351,3.2092,3.443,3.6651,3.7606,4.033,4.2375,4.2939,4.3014,4.2548,4.1389,4.1289,4.0826,3.9722,3.9132,3.8818,3.8768,3.7197,3.5778,3.4603,3.2957,0.0,0.0,0.0,0.0,0.0,0.0,0.0,0.0,0.0,0.0,0.0,0.0,0.0,0.0,0.0,0.0,0.0,0.0,0.0,0.0,0.0,0.0,0.0,0.0,0.0,0.0,0.0,0.0,3.8806,4.0413,0.0,3.9195,3.9508,4.0086,4.0652,4.1719,4.2735,4.3664,4.4945,4.5733,4.5934,4.6652,4.723,4.7616,4.7616,4.7716,4.7908,4.7908,4.8109,4.8476,4.8083,4.8109,4.8293,4.4966,4.3012,4.1874,3.8419,3.6269,3.4976,3.3867,3.343,3.3552,3.4486,3.6398,3.8702,4.0133,4.1847,4.3374,4.3101,4.1111,3.8673,3.7746,3.6485,3.5722,3.7311,3.8722,4.0066,4.1531,4.2661,4.3335,4.2997,4.2922,4.2822,4.2484,4.2121,4.1644,4.0853,3.9961,3.8855,3.737,3.7407,3.7232,3.6063,3.7697,3.9287,3.9951,4.1312,4.24,4.2939,4.2688,4.2171,4.1378,4.0976,4.0487,3.9747,3.9534,3.9082,3.8354,3.7751,3.6734,3.5232,3.4301,3.2731,0.0,0.0,0.0,0.0,0.0,0.0,0.0,0.0,0.0,0.0,0.0,0.0,0.0,0.0,0.0,0.0,0.0,0.0,0.0,0.0,0.0,0.0,0.0,0.0,0.0,3.8341,4.0174,4.074,4.2423,4.3037,4.1742,4.2281,4.2961,4.3542,4.4418,4.5422,4.6542,4.7456,4.8043,4.8203,4.8761,4.9038,4.9038,4.9038,4.9038,4.9038,4.9038,4.9254,4.9631,4.9229,4.9138,4.9112,4.5113,4.3175,4.2599,3.8987,3.6738,3.5527,3.5134,3.5056,3.5366,3.6814,3.8454,4.0275,4.2582,4.4048,4.4754,4.384,4.2436,4.103,4.0665,3.9864,3.9377,4.0715,4.1572,4.2392,4.3722,4.4328,4.4514,4.4152,4.4077,4.3976,4.3614,4.3251,4.3014,4.3014,4.1806,4.0524,3.9823,3.9998,3.991,3.8981,4.0124,4.1128,4.1264,4.1982,4.2626,4.2964,4.2688,4.2146,4.1378,4.08,4.0186,3.9484,3.9082,3.8529,3.7764,3.735,3.656,3.5269,3.4151,3.3049,3.1928,0.0,0.0,0.0,0.0,0.0,0.0,0.0,0.0,0.0,0.0,0.0,0.0,0.0,0.0,0.0,0.0,0.0,0.0,0.0,0.0,0.0,0.0,0.0,3.8617,3.9898,4.1254,4.2875,4.4041,4.4503,4.3991,4.4934,4.5799,4.6361,4.6873,4.7666,4.8818,4.938,4.9891,5.0402,5.1013,5.1289,5.1289,5.1289,5.1289,5.1289,5.1289,5.1289,5.1289,5.1289,5.0971,5.023,4.6517,4.4347,4.3162,3.9454,3.7713,3.7373,3.6977,3.7038,3.7503,3.8477,4.0148,4.2337,4.4737,4.5562,4.5462,4.4855,4.464,4.4614,4.4614,4.4589,4.4589,4.4614,4.4629,4.4614,4.464,4.464,4.464,4.4614,4.4629,4.4614,4.4589,4.4589,4.4589,4.4589,4.2858,4.1364,4.1364,4.1364,4.1177,4.0663,4.1532,0.0,4.1428,4.2333,4.2989,4.2989,4.2964,4.2484,4.1389,4.08,4.0023,3.8994,3.7864,3.7235,3.7198,3.6108,3.5305,3.481,3.2644,3.2055,3.3122,0.0,0.0,0.0,0.0,0.0,0.0,0.0,0.0,0.0,0.0,0.0,0.0,0.0,0.0,0.0,0.0,0.0,0.0,0.0,0.0,0.0,3.6554,3.8763,3.9395,4.1768,4.3801,4.4708,4.61,4.6938,4.6803,4.7054,4.7631,4.8611,4.8837,4.9414,5.0535,5.0761,5.0912,5.1063,5.1214,5.1289,5.1289,5.1289,5.1289,5.1289,5.1289,5.1289,5.1289,5.1289,5.1214,5.0814,4.668,4.4728,4.4165,4.008,3.911,4.0133,3.944,3.923,3.967,4.2488,4.4664,4.6333,4.7006,4.6988,4.6587,4.601,4.5573,4.5171,4.4729,4.4589,4.4704,4.5121,4.5246,4.5347,4.5733,4.5834,4.5733,4.5347,4.5246,4.5121,4.4704,4.4589,4.4589,4.4589,4.3801,4.3098,4.3098,4.2785,4.2484,4.2347,4.2587,0.0,4.2534,4.2799,4.2838,4.2475,4.2032,4.1628,4.1314,4.0462,3.9798,3.9509,3.8417,3.7613,3.7235,3.652,3.6463,3.7152,3.5368,3.5026,0.0,0.0,0.0,0.0,0.0,0.0,0.0,0.0,0.0,0.0,0.0,0.0,0.0,0.0,0.0,0.0,0.0,0.0,0.0,0.0,0.0,0.0,3.9544,4.158,4.2071,4.3765,4.5447,4.6718,4.7923,4.8711,4.8921,4.9188,4.959,5.0259,5.0309,5.0711,5.159,5.1641,5.1724,5.1975,5.1975,5.1975,5.1975,5.1975,5.1975,5.1975,5.1975,5.1975,5.1975,5.1975,5.1377,5.0198,4.6934,4.4923,4.369,4.0486,4.0118,0.0,0.0,0.0,0.0,0.0,4.6598,4.7908,4.7908,4.7691,4.739,4.7064,4.6753,4.6426,4.6085,4.5984,4.601,4.6135,4.616,4.62,4.6261,4.6286,4.621,4.5899,4.5824,4.5748,4.5382,4.5307,4.5307,4.5307,4.4895,0.0,4.4177,4.3489,4.2914,4.2688,4.2864,4.2914,4.2688,4.2864,4.2889,4.2576,4.2208,4.1918,4.1706,4.0676,0.0,0.0,0.0,3.6985,3.6182,3.6338,0.0,0.0,0.0,0.0,0.0,0.0,0.0,0.0,3.7303,3.7351,0.0,0.0,0.0,0.0,0.0,0.0,0.0,0.0,0.0,0.0,0.0,0.0,0.0,0.0,0.0,0.0,4.2585,4.4418,4.5688,4.5914,4.6692,4.8667,4.9355,4.9916,5.0452,5.0987,5.1314,5.1389,5.1389,5.1624,5.2159,5.2201,0.0,0.0,0.0,5.2895,5.2895,5.2895,5.2895,5.2895,5.2895,5.2895,5.2895,5.2895,5.1546,4.9108,4.7214,4.5128,4.2884,4.1005,4.1224,4.2685,4.2135,4.3075,4.4851,4.5993,4.7108,4.8093,4.8093,0.0,0.0,4.8008,4.7958,4.7908,4.7908,4.7908,4.7792,4.7324,4.7199,4.7074,4.6612,4.6461,4.6461,4.6411,4.6386,4.6361,4.6311,4.6286,4.6286,4.6286,4.5874,4.5321,4.4805,4.3815,4.2914,4.2375,4.2688,4.2838,4.235,4.2713,4.2989,4.2914,0.0,0.0,4.2249,4.1167,4.0099,3.9145,3.7525,3.6165,3.5231,3.6236,3.6959,3.7284,3.8226,3.9273,4.0417,4.0417,4.1214,4.2661,3.9322,3.885,0.0,0.0,0.0,0.0,0.0,0.0,0.0,0.0,0.0,0.0,0.0,0.0,0.0,0.0,0.0,4.2222,4.4005,4.5864,4.7889,4.8526,4.8978,4.9389,4.9916,5.0494,5.1063,5.1239,5.149,5.1925,5.195,5.2176,5.2711,5.2762,5.2795,5.2895,5.2895,5.2895,5.2895,5.2895,5.2895,5.2895,5.2895,0.0,5.2895,5.2895,5.1785,4.9706,4.7392,4.6123,4.5483,4.319,4.4202,4.7149,4.6126,4.6872,4.8559,4.881,4.905,4.9264,4.9264,4.9003,4.8626,4.8626,4.83,4.7908,4.7908,4.7908,0.0,4.7767,4.7741,4.7716,4.7616,4.7606,4.7465,4.7048,4.6948,4.6823,4.6386,4.6286,4.6286,4.6286,4.5874,4.5462,4.5361,4.4392,4.3463,4.2939,4.2925,4.2964,4.2864,4.2939,4.2838,4.24,4.235,4.2299,4.2199,4.1167,4.0412,4.0186,3.8605,3.7857,3.8227,3.8477,3.973,4.2168,4.1974,4.2617,4.422,4.422,4.4412,4.4686,4.2424,4.1887,0.0,0.0,0.0,0.0,0.0,0.0,0.0,0.0,0.0,0.0,0.0,3.7554,3.8655,0.0,4.271,4.4367,4.5799,4.7295,4.8953,4.9665,5.0017,5.0017,5.0728,5.1373,5.1674,5.195,5.2209,5.2485,5.2511,5.2611,5.2887,5.2895,5.2895,5.2895,5.2895,5.2895,5.2895,5.2895,5.2895,5.2895,5.2895,5.2895,5.2895,5.2895,5.1834,4.9943,4.8735,4.7634,4.6666,4.6168,4.7086,4.8822,4.8997,4.9611,5.0393,5.0117,5.0017,5.0017,5.0017,4.964,4.9204,4.9204,4.9003,4.8761,4.8761,4.8761,4.8686,4.8426,4.835,4.8275,4.7983,4.7908,4.7817,4.7566,4.7516,4.735,4.6838,4.6712,4.6637,4.6361,4.6075,4.5839,4.5562,4.5035,4.4382,4.3528,4.3176,4.3014,4.3014,4.3014,4.2889,4.2637,4.2587,4.2587,4.2587,4.1304,4.0663,4.1016,3.9728,3.9397,4.0394,4.1031,4.2059,4.3571,4.3842,4.4428,4.5315,4.5633,4.5982,4.6292,4.5654,4.5155,0.0,0.0,0.0,0.0,0.0,0.0,0.0,3.5857,3.6673,3.7387,3.9195,4.0927,4.1779,4.331,4.4905,4.6361,4.7516,4.8586,4.9615,5.0318,5.0728,5.0728,5.1532,5.2151,5.2251,5.2661,5.2895,5.2895,5.2895,5.2895,5.2895,5.2895,5.2895,5.2895,5.2895,5.2895,5.2895,5.2895,5.2895,5.2895,5.2895,5.2895,5.2895,5.2895,5.1834,4.9997,4.9997,4.9081,4.7699,4.9204,4.985,4.9958,5.1026,5.1515,5.154,5.0845,5.0503,5.0402,5.0402,5.0067,4.959,4.959,4.959,4.959,4.959,4.959,4.9515,4.9079,4.8969,4.8827,4.836,4.8234,4.8193,4.8109,4.8083,4.7917,4.7375,4.7174,4.6973,4.6537,4.6361,4.616,4.5723,4.5587,4.516,4.4116,4.3503,4.3165,4.3165,4.3051,4.3014,4.3014,4.3014,4.2964,4.2864,4.185,4.144,4.1937,4.1353,4.1566,4.2854,4.3808,4.4464,4.4694,4.5617,4.6063,4.6063,4.661,4.7149,4.7698,4.8248,4.7919,3.3986,3.3746,3.4048,3.4993,3.568,3.6758,0.0,3.986,4.0249,4.1331,4.2886,4.4088,4.4213,4.5593,4.6948,4.7616,4.8686,4.9615,5.0226,5.123,5.1925,5.1925,5.2026,5.2302,5.2744,5.2845,5.2895,5.2895,5.2895,5.2895,5.2895,5.2895,5.2895,5.2895,5.2895,5.2895,5.2895,5.2895,5.2895,5.2895,5.2895,5.2895,5.2895,5.2895,5.1834,4.9997,4.9997,4.9872,4.9819,5.169,5.2477,5.2444,5.2141,5.2285,5.2611,5.159,5.087,5.0402,5.0402,5.0067,4.959,4.959,4.959,4.959,4.959,4.959,4.9606,4.9531,4.9515,4.949,4.9414,4.9414,4.9289,4.8802,4.8718,4.8526,4.7933,4.744,4.7074,4.7023,4.6637,4.6286,4.621,4.5839,4.5271,4.4604,4.4052,4.3714,4.3714,4.3302,4.3014,4.3014,4.3014,4.2813,4.2324,4.321,4.3625,4.3239,4.4251,4.5432,4.6728,4.6904,4.7502,4.8637,4.8772,4.8869,4.8869,4.8929,4.9007,4.9078,4.9168,4.9108,3.539,3.608,3.6822,3.6936,3.8103,3.9559,4.07,4.1717,4.2635,4.3438,4.4905,4.6045,4.6045,4.7164,4.8259,4.8812,4.9565,5.0393,5.1256,5.1783,5.2226,5.2536,5.2561,5.2661,5.2887,5.2895,5.2895,5.2895,5.2895,5.2895,5.2895,5.2895,5.2895,5.2895,5.2895,5.2895,5.2895,5.2895,5.2895,5.2895,5.2895,5.2895,5.2895,5.2895,5.2456,5.1694,5.1694,5.1694,5.1747,5.256,5.2895,5.2887,5.2661,5.2711,5.2812,5.2051,5.1599,5.1398,5.1398,5.0804,5.0067,5.0067,4.9866,4.959,4.959,4.959,4.959,4.959,4.959,4.959,4.959,4.959,4.954,4.933,4.928,4.9104,4.8551,4.825,4.7892,4.7224,4.6923,4.6687,4.6361,4.611,4.5874,4.5633,4.483,4.4152,4.384,4.3589,4.3352,4.3025,4.3014,4.3222,4.379,4.4057,4.4761,4.6126,4.6437,4.7166,4.8455,4.8501,4.8771,4.9277,4.9288,4.9288,4.9288,4.9643,4.9811,4.9841,5.0612,5.0983,3.6557,3.7838,3.9032,3.8768,4.0236,4.1952,4.2705,4.3712,4.4774,4.5755,4.6803,4.7566,4.7566,4.8485,4.938,4.9766,5.0528,5.1331,5.1983,5.2352,5.2611,5.2887,5.2895,5.2945,5.3113,5.2988,5.2945,5.3113,5.2988,5.2895,5.2895,5.2895,5.2895,5.2895,5.2895,5.2895,5.2895,5.2895,5.2895,5.2895,5.2895,5.2895,5.2895,5.2895,5.2895,5.2895,5.2895,5.2895,5.2895,5.2895,5.2895,5.2895,5.2895,5.2895,5.2845,5.246,5.2226,5.2101,5.2101,5.1356,5.0402,5.0402,5.0042,4.959,4.959,4.959,4.959,4.959,4.959,4.959,4.959,4.959,4.959,4.959,4.959,4.949,4.9104,4.8903,4.8501,4.7516,4.7199,4.6923,4.6386,4.6286,4.6286,4.6286,4.5952,4.5482,4.4936,4.4594,4.434,4.415,4.3769,4.4112,4.5449,4.5573,4.6421,4.8349,4.8461,4.8869,4.9781,4.9804,4.9804,4.9804,4.9804,4.9905,5.0085,5.0529,5.0847,5.1056,5.2037,5.2498,3.7299,3.8404,3.9798,4.0287,4.1706,4.3649,4.624,4.6503,4.6816,4.8924,4.9014,4.8743,4.8743,4.9615,5.0352,5.0377,5.1758,5.2644,5.2176,5.3005,5.3439,5.2945,5.2895,5.3113,5.3632,5.3213,5.3113,5.3632,5.3188,5.2895,5.2895,5.2895,5.2895,5.2895,5.2895,5.2895,5.2895,5.2895,5.2895,5.2895,5.2895,5.2895,5.2895,5.2895,5.2895,5.2895,5.2895,5.2895,5.2895,5.2895,5.2895,5.2895,5.2895,5.2895,5.2895,5.287,5.2561,5.2101,5.2101,5.1356,5.0402,5.0402,5.0042,4.959,4.959,4.959,4.959,4.959,4.959,4.959,4.959,4.959,4.959,4.959,4.959,4.9606,4.9581,4.9179,4.8626,4.8008,4.7465,4.6923,4.6386,4.6286,4.6286,4.6286,4.7493,4.8181,4.7644,4.6605,4.6196,4.6906,4.5753,4.5502,4.6914,4.8273,4.9083,4.9169,5.0377,5.1111,5.1146,5.1146,5.1146,5.1146,5.1146,5.1457,5.2097,5.2127,5.2456,5.3097,5.3169,5.3156,3.8969,4.0734,4.284,4.3452,4.521,4.7278,4.9169,4.9563,4.9754,5.0492,4.9312,4.8325,4.8743,4.8761,4.9097,5.0226,5.1507,5.2536,5.308,5.3826,5.4077,5.3507,5.3414,5.3658,5.4228,5.3439,5.3289,5.4228,5.3432,5.3063,5.3414,5.3088,5.2895,5.2895,5.2895,5.2895,5.2895,5.2895,5.2895,5.2895,5.2895,5.2895,5.2895,5.2895,5.2895,5.2895,5.2895,5.2895,5.2895,5.2895,5.2895,5.2895,5.2895,5.2895,5.2895,5.2895,5.2787,5.2636,5.2636,5.2159,5.1473,5.1122,5.0594,5.0051,4.9715,4.959,4.9665,5.0026,5.0126,5.0201,5.0619,5.0419,5.0126,5.0126,4.9866,4.959,4.959,4.9455,4.9179,4.8601,4.835,4.7933,4.6973,4.6823,4.7036,4.7674,4.7869,4.8255,4.9062,4.8491,4.7982,4.7783,4.7349,4.7445,4.8405,4.8911,4.9594,5.0484,5.0952,5.1206,5.1206,5.1636,5.1846,5.1846,5.2306,5.2648,5.2857,5.2857,5.2977,5.3228,5.3665,5.3862,4.0809,4.3231,4.6035,4.6364,4.8118,5.0267,5.224,5.1925,5.1361,5.1904,4.9829,4.7958,4.8159,4.7883,4.8168,4.9825,5.1247,5.2477,5.3557,5.4228,5.4396,5.3758,5.3532,5.3632,5.4228,5.3439,5.3439,5.4798,5.3833,5.3339,5.3683,5.3364,5.3113,5.2895,5.2895,5.2895,5.2895,5.2895,5.2895,5.2895,5.2895,5.2895,5.2895,5.2895,5.2895,5.2895,5.2895,5.2895,5.2895,5.2895,5.2895,5.2895,5.2895,5.2895,5.2895,5.2895,5.2895,5.2895,5.2895,5.241,5.1749,5.1414,5.0745,5.0067,4.969,4.959,4.9715,5.0252,5.0402,5.0477,5.087,5.0845,5.0619,5.0201,5.0017,4.9841,4.964,4.959,4.9455,4.8903,4.8793,4.8501,4.7541,4.7648,4.8392,4.9885,4.9828,4.9845,5.0558,5.038,5.0112,4.994,4.9272,4.9316,5.0524,5.0401,5.074,5.184,5.1905,5.1905,5.1905,5.2336,5.2558,5.2558,5.2977,5.3306,5.3575,5.3575,5.3695,5.3935,5.4593,5.491,4.292,4.5833,4.9251,4.9024,5.0434,5.2603,5.5275,5.352,5.1712,5.3069,5.0356,4.7591,4.7099,4.7023,4.7575,4.9314,5.1021,5.2528,5.3632,5.4303,5.4454,5.3858,5.3339,5.3239,5.3733,5.3264,5.3615,5.5282,5.431,5.3683,5.3708,5.3683,5.3432,5.2937,5.2895,5.2895,5.2895,5.2895,5.2895,5.2895,5.2895,5.2895,5.2895,5.2895,5.2895,5.2895,5.2895,5.2895,5.2895,5.2895,5.2895,5.2895,5.2895,5.2895,5.2895,5.2895,5.2895,5.2895,5.2895,5.2234,5.1389,5.1339,5.0586,4.9665,4.964,4.9615,4.9715,5.0277,5.0427,5.0427,5.0503,5.0896,5.0987,4.9941,5.0026,5.0201,4.9715,4.959,4.9455,4.8944,4.8882,4.8743,4.8158,4.8887,5.034,5.2692,5.3084,5.2893,5.2248,5.221,5.2504,5.3184,5.1531,5.1149,5.3029,5.2618,5.2516,5.3156,5.3198,5.3198,5.3198,5.3216,5.3246,5.3246,5.3288,5.3635,5.4239,5.4299,5.464,5.5281,5.5953,5.6252,4.6752,4.9248,5.209,5.2478,5.3691,5.5007,5.5601,5.4272,5.2575,5.1359,4.8095,4.5533,4.5849,4.5899,4.6728,4.9188,5.1331,5.3213,5.4737,5.544,5.5591,5.5013,5.4838,5.4813,5.4938,5.4084,5.4034,5.529,5.3966,5.3289,5.3683,5.3314,5.3038,5.2895,5.2895,5.2895,5.2895,5.2895,5.2895,5.2895,5.2895,5.2895,5.2895,5.2895,5.2895,5.2895,5.2895,5.2895,5.2895,5.2895,5.2895,5.2895,5.2895,5.2895,5.2895,5.2895,5.2895,5.2895,5.2895,5.2737,5.2435,5.2026,5.1423,5.0787,5.0327,4.9916,4.9807,5.0795,5.0745,5.0703,5.1958,5.1456,5.067,5.0837,5.0318,4.9766,4.9615,4.959,4.9565,4.943,5.0056,5.0537,5.0385,5.1669,5.2942,5.3587,5.4231,5.4582,5.4404,5.4387,5.4289,5.3975,5.3489,5.3189,5.3192,5.3037,5.3019,5.3198,5.3198,5.3198,5.3198,5.3695,5.3952,5.3952,5.4443,5.4773,5.494,5.5461,5.5773,5.5953,5.6568,5.6868,4.9565,5.1816,5.4448,5.472,5.5322,5.5726,5.5204,5.3359,5.1122,4.8942,4.6054,4.3991,4.4331,4.4608,4.5648,4.841,5.0745,5.2854,5.478,5.5491,5.5742,5.5433,5.5182,5.5056,5.5056,5.4479,5.4253,5.4612,5.3783,5.3364,5.3683,5.3414,5.3138,5.2895,5.2895,5.2895,5.2895,5.2895,5.2895,5.2895,5.2895,5.2895,5.2895,5.2895,5.2895,5.2895,5.2895,5.2895,5.2895,5.2895,5.2895,5.2895,5.2895,5.2895,5.2895,5.2895,5.2895,5.2895,5.2895,5.2895,5.2787,5.2,5.1373,5.0795,5.0218,5.0017,5.0076,5.072,5.0845,5.1021,5.1933,5.1657,5.1155,5.1289,5.0987,5.0569,5.0067,4.9967,5.0093,5.0556,5.1132,5.1896,5.2989,5.4022,5.4736,5.4881,5.5345,5.5521,5.5251,5.5192,5.5072,5.467,5.4371,5.4162,5.4084,5.3815,5.3743,5.4054,5.4084,5.4084,5.4084,5.4431,5.479,5.5059,5.5461,5.576,5.603,5.6419,5.6598,5.6611,5.7244,5.7543,5.1935,5.3972,5.6363,5.5997,5.5856,5.5442,5.3998,5.1373,4.8606,4.6262,4.4179,4.2824,4.2975,4.3452,4.4769,4.7757,5.0017,5.2193,5.4479,5.5207,5.5509,5.5509,5.5107,5.4805,5.4805,5.4748,5.4479,5.3959,5.3783,5.3683,5.3607,5.3607,5.3364,5.2895,5.2895,5.2895,5.2895,5.2895,5.2895,5.2895,5.2895,5.2895,5.2895,5.2895,5.2895,5.2895,5.2895,5.2895,5.2895,5.2895,5.2895,5.2895,5.2895,5.2895,5.2895,5.2895,5.2895,5.2895,5.2895,5.2895,5.2737,5.1724,5.0996,5.0427,4.9967,5.0092,5.0427,5.0503,5.0896,5.1314,5.1389,5.1699,5.19,5.1515,5.1699,5.1724,5.0728,5.0452,5.0722,5.1783,5.2163,5.3058,5.5438,5.594,5.6114,5.6417,5.6372,5.6102,5.5521,5.5299,5.5192,5.5192,5.467,5.4581,5.5162,5.467,5.4581,5.5162,5.5281,5.5341,5.5341,5.5401,5.573,5.6312,5.6118,5.6387,5.7094,5.697,5.703,5.7244,5.7919,5.8278,5.5208,5.6515,5.7454,5.6146,5.5856,5.491,5.1172,4.9172,4.7239,4.4182,4.2514,4.1893,4.2824,4.3452,4.5146,4.9298,5.1096,5.2879,5.5566,5.6018,5.605,5.605,5.5993,5.5917,5.5917,5.5516,5.5232,5.5089,5.4235,5.3507,5.3063,5.3038,5.3013,5.2895,5.2895,5.2895,5.2895,5.2895,5.2895,5.2895,5.2895,5.2895,5.2895,5.2895,5.2895,5.2895,5.2895,5.2895,5.2895,5.2895,5.2895,5.2895,5.2895,5.2895,5.2895,5.2895,5.2895,5.2895,5.2895,5.2895,5.2812,5.2176,5.1574,5.1138,5.1038,5.072,5.0503,5.0996,5.1214,5.1414,5.185,5.1699,5.154,5.1875,5.1674,5.1389,5.1188,5.0745,5.0722,5.1783,5.3066,5.4536,5.6222,5.7175,5.7702,5.7759,5.7304,5.6898,5.6778,5.585,5.5192,5.5192,5.5102,5.5059,5.5192,5.5102,5.5072,5.5192,5.573,5.6042,5.6042,5.6509,5.6838,5.6958,5.568,5.5725,5.7094,5.6386,5.6677,5.7935,5.8607,5.9219,5.4686,5.5998,5.6976,5.5438,5.4471,5.286,4.9076,4.6903,4.4867,4.1895,4.0852,4.0713,4.1555,4.261,4.4357,4.7355,4.9012,5.0979,5.4042,5.4494,5.492,5.605,5.62,5.62,5.62,5.5968,5.5691,5.5415,5.4629,5.3926,5.3339,5.3314,5.3188,5.2895,5.3163,5.3188,5.2895,5.2895,5.2895,5.2895,5.2895,5.2895,5.2895,5.2895,5.2895,5.2895,5.2895,5.2895,5.2895,5.2895,5.2895,5.2895,5.2895,5.2895,5.2895,5.2895,5.2895,5.2895,5.2895,5.2895,5.2795,5.226,5.1925,5.1649,5.1389,5.1297,5.1297,5.1314,5.1515,5.1791,5.2026,5.19,5.185,5.2385,5.2126,5.1716,5.1716,5.1942,5.2482,5.3478,5.4992,5.6521,5.7751,5.8326,5.8517,5.8145,5.7829,5.7483,5.7124,5.6568,5.606,5.576,5.5401,5.5192,5.5192,5.5521,5.573,5.573,5.6299,5.6658,5.6658,5.6958,5.7274,5.762,5.6882,5.7046,5.8141,5.771,5.8092,5.9159,5.9458,5.9967,5.3853,5.5346,5.6565,5.4698,5.3036,5.0903,4.7472,4.5109,4.2886,4.0224,3.9697,3.9898,4.0563,4.1756,4.3352,4.5497,4.7004,4.9097,5.2586,5.3289,5.4117,5.5974,5.6301,5.6326,5.62,5.62,5.6043,5.5591,5.5056,5.4403,5.3565,5.3632,5.3507,5.3088,5.3482,5.3557,5.3264,5.3138,5.3063,5.3063,5.3063,5.2995,5.2895,5.2895,5.2895,5.2895,5.2895,5.2895,5.2895,5.2895,5.2895,5.2895,5.2895,5.2895,5.2895,5.2895,5.2895,5.2895,5.2895,5.2895,5.2837,5.241,5.2184,5.2026,5.1615,5.2035,5.2564,5.2124,5.2386,5.2776,5.2666,5.2464,5.2385,5.2812,5.2586,5.2251,5.2126,5.3095,5.4261,5.524,5.6764,5.826,5.9348,5.9428,5.9129,5.8607,5.8397,5.8128,5.7603,5.7393,5.7124,5.6658,5.6,5.5611,5.5611,5.609,5.6402,5.6402,5.6987,5.7304,5.7304,5.7453,5.7782,5.8308,5.8118,5.8446,5.9308,5.9114,5.9455,6.031,6.031,6.0685,5.5023,5.6656,5.7582,5.4452,5.2467,5.0277,4.6508,4.4295,4.2423,4.0162,3.9697,4.0023,4.1051,4.1339,4.2657,4.6346,4.749,4.9222,5.308,5.4511,5.5415,5.61,5.6627,5.6753,5.6251,5.62,5.6194,5.6143,5.5616,5.4637,5.3063,5.3457,5.3683,5.3632,5.3683,5.3934,5.4446,5.3884,5.3632,5.3632,5.3632,5.3364,5.2895,5.2895,5.2895,5.2895,5.2895,5.2895,5.2895,5.2895,5.2895,5.2895,5.2895,5.2895,5.2895,5.2895,5.2895,5.2895,5.2895,5.2895,5.2895,5.2845,5.2511,5.2101,5.2051,5.3132,5.438,5.4301,5.4689,5.4988,5.4495,5.3609,5.2837,5.2895,5.2845,5.2686,5.2226,5.3388,5.4858,5.5914,5.7459,5.9117,6.0659,6.0416,5.998,5.9921,5.9398,5.9009,5.8919,5.8397,5.7995,5.7935,5.7334,5.6928,5.6928,5.6974,5.7017,5.7017,5.7649,5.7995,5.7995,5.8577,5.8949,5.8996,5.8175,5.8483,6.001,5.9155,5.9506,6.1,6.1,6.1359,5.181,5.3906,5.5481,5.2861,5.1469,4.9816,4.629,4.4443,4.276,4.0224,3.9697,3.9823,4.0261,4.0876,4.193,4.3854,4.4608,4.6316,5.0209,5.1138,5.2369,5.4931,5.5717,5.6093,5.6175,5.62,5.6068,5.5742,5.5516,5.4981,5.3976,5.4411,5.4579,5.4253,5.4554,5.468,5.4597,5.4353,5.4228,5.4228,5.3858,5.3582,5.3364,5.3063,5.2895,5.2895,5.2895,5.2895,5.2895,5.2895,5.2895,5.2895,5.2895,5.2895,5.2895,5.2895,5.2895,5.2895,5.2895,5.2895,5.3059,5.4089,5.4261,5.4097,5.4097,5.4543,5.5305,5.6347,5.6051,5.535,5.5129,5.401,5.2895,5.2895,5.2895,5.2845,5.2636,5.4718,5.6648,5.6686,5.8872,6.0812,6.1052,6.088,6.0565,6.016,5.9861,5.9561,5.9159,5.889,5.8697,5.8697,5.7752,5.7094,5.7094,5.7483,5.7709,5.7709,5.8338,5.8876,5.9279,5.9548,5.9877,6.0282,5.9934,6.0068,6.0715,6.0335,6.0675,6.1702,6.1702,6.2061,4.9742,5.2148,5.4076,5.2236,5.0845,4.9188,4.6376,4.4482,4.2685,4.04,3.9948,3.9998,4.0149,4.0775,4.1553,4.2311,4.3165,4.4909,4.8316,4.9355,5.0862,5.375,5.473,5.5365,5.5917,5.6251,5.6276,5.5917,5.5717,5.5465,5.5082,5.5433,5.5408,5.4856,5.5207,5.5308,5.5082,5.4924,5.4773,5.4597,5.4177,5.3783,5.3439,5.3063,5.2895,5.2895,5.2895,5.2895,5.2895,5.2895,5.2895,5.2895,5.2895,5.2895,5.2895,5.2895,5.2895,5.2895,5.2895,5.323,5.3818,5.5015,5.5765,5.6245,5.6763,5.6897,5.7154,5.8387,5.7501,5.5945,5.4916,5.3793,5.2895,5.2895,5.3299,5.364,5.364,5.632,5.8604,5.8138,6.041,6.2241,6.1762,6.1523,6.1253,6.0745,6.0505,6.0236,5.9757,5.9684,5.9684,5.9684,5.886,5.8201,5.8005,5.8231,5.8563,5.8952,5.9235,5.9697,6.037,6.0386,6.0625,6.109,6.1299,6.1389,6.1389,6.1085,6.1167,6.1626,6.1626,6.2257,5.0097,5.2438,5.4315,5.3156,5.082,4.8375,4.6677,4.4181,4.1897,4.0738,4.0487,4.065,4.1188,4.1289,4.1679,4.2799,4.4382,4.624,4.8492,5.0686,5.2277,5.2845,5.3926,5.4823,5.5358,5.6376,5.6985,5.6985,5.6502,5.6175,5.6175,5.6175,5.5942,5.5408,5.5408,5.5641,5.6194,5.5641,5.5132,5.4597,5.4597,5.4002,5.2895,5.2895,5.2895,5.2895,5.2895,5.2895,5.2895,5.2895,5.2895,5.2895,5.2895,5.2895,5.2895,5.2895,5.2895,5.2895,5.2895,5.3987,5.537,5.5386,5.658,5.8261,5.9948,6.0449,6.0449,6.0465,5.9259,5.7192,5.3793,5.2912,5.2895,5.2895,5.4164,5.537,5.537,5.806,6.0465,6.0465,6.191,6.3108,6.3078,6.2525,6.2091,6.2061,6.1509,6.109,6.109,6.109,6.109,6.109,6.106,6.0805,6.013,5.9458,5.9668,6.097,6.0446,6.0386,6.106,6.109,6.109,6.109,6.1762,6.2091,6.2091,6.1027,6.0525,6.0525,6.0525,6.1758,4.6235,4.8185,4.9853,4.9124,4.8278,4.7189,4.5533,4.4192,4.2861,4.1352,4.1051,4.1088,4.1264,4.1642,4.2397,4.3865,4.4869,4.6265,4.8492,5.0017,5.1281,5.2234,5.4336,5.5917,5.6451,5.6784,5.6985,5.6985,5.6502,5.62,5.62,5.62,5.61,5.5968,5.5942,5.6043,5.62,5.6043,5.5666,5.5132,5.4773,5.4202,5.3414,5.3063,5.2895,5.2895,5.2895,5.2895,5.2895,5.2895,5.2895,5.2895,5.2895,5.2895,5.2895,5.2895,5.2895,5.3059,5.4198,5.4949,5.5771,5.8123,5.9259,6.0024,6.1762,6.1437,6.0495,6.0495,5.9274,5.748,5.5198,5.3759,5.3196,5.4332,5.5015,5.5732,5.6908,5.8933,6.0495,6.0495,6.191,6.3108,6.3108,6.2914,6.2614,6.2181,6.1912,6.1613,6.115,6.109,6.109,6.109,6.109,6.1,6.0805,6.0581,6.0641,6.106,6.088,6.106,6.1762,6.1792,6.2002,6.2465,6.2674,6.3003,6.3408,6.1827,6.1267,6.1774,6.2993,6.3966,4.4503,4.6085,4.7315,4.739,4.6963,4.616,4.4905,4.3865,4.29,4.1843,4.1642,4.1692,4.1893,4.2247,4.2838,4.384,4.502,4.6276,4.7672,4.9314,5.0904,5.2234,5.4486,5.6175,5.6935,5.7204,5.7355,5.7355,5.6627,5.62,5.62,5.62,5.62,5.62,5.62,5.62,5.62,5.6018,5.5717,5.5408,5.4629,5.4177,5.4009,5.3239,5.3013,5.3188,5.2988,5.2895,0.0,5.2895,5.2895,5.2895,5.2895,5.2895,5.2895,5.2895,5.3291,5.3987,5.5032,5.6245,5.768,5.9812,6.0945,6.1674,6.2774,6.2336,6.1333,6.0705,5.9274,5.7608,5.5863,5.4625,5.4122,5.5165,5.6391,5.7617,5.87,6.0296,6.1496,6.1496,6.235,6.3108,6.3108,6.3108,6.2944,6.2555,6.2495,6.2345,6.1912,6.1852,6.1852,6.1852,6.1852,6.1852,6.1852,6.1389,6.1299,6.1822,6.1613,6.1792,6.2465,6.2495,6.2674,6.3108,6.2661,6.2617,6.2986,6.1475,6.0961,6.1405,6.3475,6.4781,0.0,4.5547,4.616,4.7114,4.6301,4.5135,4.4554,4.3302,0.0,4.2249,4.2249,4.2425,4.2964,4.3039,4.3065,4.3215,4.4995,4.6401,4.6476,4.8821,5.1155,5.2887,5.4486,5.5867,5.6885,5.7506,5.7851,5.7851,5.6821,5.62,5.62,5.62,5.62,5.62,5.62,5.62,5.62,5.5691,5.5433,5.5333,5.431,5.4034,5.4429,5.3432,5.3213,5.3607,5.3113,5.2895,5.2895,5.2895,5.2895,5.2895,5.2895,5.2981,5.3076,5.3076,5.4156,5.5601,5.5732,5.7839,6.0525,6.0631,6.1762,6.3108,6.3108,6.3108,6.2774,6.1154,5.946,5.7787,5.618,5.5683,5.5617,5.5748,5.8186,6.0525,6.0646,6.1954,6.3108,6.3168,6.3153,6.3197,6.3227,6.3257,6.3257,6.3257,6.3183,6.3197,6.3213,6.3183,6.3197,6.3213,6.3257,6.3227,6.3168,6.1972,6.1762,6.3003,6.2525,6.2465,6.3063,6.3108,6.3123,6.3153,6.2017,6.1376,6.1252,6.0506,6.0134,6.0183,6.2622,6.4574,4.1354,0.0,4.2431,4.2295,4.2624,4.2953,0.0,4.2788,4.2813,4.2813,4.2813,4.2989,4.3514,4.3277,4.3553,4.5246,4.6311,4.7214,4.8099,5.0218,5.246,5.4561,5.5516,5.6276,5.6935,5.7129,5.7211,5.7211,5.6577,5.62,5.62,5.62,5.62,5.62,5.62,5.62,5.62,5.6068,5.5591,5.4798,5.4931,5.4411,5.3289,5.3457,5.3339,5.3088,5.2945,5.2895,5.2895,5.2895,5.2895,5.2895,5.2895,5.3674,5.4799,5.4799,5.5896,5.7565,5.8871,5.9828,6.0735,6.2057,6.2774,6.3108,6.3108,6.3108,6.2991,6.2599,6.1228,5.9812,5.9413,5.8355,5.7708,5.9011,5.9919,6.087,6.2204,6.2817,6.3257,6.3692,6.3782,6.3947,6.447,6.456,6.456,6.456,6.4126,6.3977,6.45,6.4126,6.3977,6.45,6.456,6.4366,6.3827,6.3093,6.2764,6.3078,6.2944,6.2944,6.3108,6.3108,6.3303,6.3782,6.3169,6.2158,6.0777,6.243,6.3243,6.3275,6.5267,6.6392,4.0049,4.0902,4.1706,4.1656,4.2297,4.2925,4.2925,4.2964,4.3014,4.3014,4.3014,4.309,4.3377,4.3402,4.3754,4.497,4.6261,4.7867,5.0008,5.1348,5.2929,5.5157,5.5867,5.6401,5.6935,5.6985,5.6985,5.6985,5.6502,5.62,5.62,5.62,5.62,5.62,5.62,5.6093,5.5842,5.5591,5.5182,5.4597,5.4361,5.4059,5.3658,5.3457,5.3314,5.3264,5.3013,5.2895,5.2895,5.2895,5.2895,5.2981,5.3759,5.4591,5.5502,5.6304,5.7676,5.9274,6.0192,6.1005,6.1866,6.2803,6.3108,6.3108,6.3108,6.3108,6.3108,6.3108,6.1851,6.0495,6.0495,5.9841,5.9395,6.0283,6.1095,6.1954,6.289,6.3108,6.3273,6.3887,6.4006,6.4216,6.4874,6.4994,6.4994,6.4994,6.468,6.459,6.4964,6.468,6.459,6.4964,6.4994,6.4845,6.45,6.4156,6.3707,6.3138,6.3363,6.3512,6.3512,6.3797,6.3892,6.3689,6.2622,6.1739,6.1076,6.2422,6.3476,6.4329,6.6153,6.7014,3.9898,4.1105,4.2375,4.2587,4.3137,4.3664,4.3564,4.3277,4.3014,4.3014,4.3014,4.3065,4.3201,4.3614,4.4016,4.4267,4.616,4.8746,5.2026,5.2477,5.3231,5.5282,5.5917,5.6376,5.6835,5.6885,5.6885,5.6885,5.6451,5.62,5.62,5.62,5.62,5.62,5.62,5.5942,5.5408,5.4956,5.4647,5.4454,5.3658,5.3658,5.4303,5.3532,5.3314,5.3557,5.3188,0.0,5.2895,5.2988,5.297,5.3025,5.4457,5.5347,5.5978,5.7464,5.9241,6.09,6.09,6.1866,6.3108,6.3108,6.3108,6.3108,6.3108,6.3108,6.3108,6.3108,6.2028,6.09,6.09,6.09,6.09,6.09,6.2028,6.3108,6.3108,6.3168,6.3422,6.4036,6.4246,6.4515,6.5188,6.5308,6.5308,6.5308,6.5218,6.5144,6.5144,6.5144,6.5144,6.5144,6.5233,6.5263,6.5144,6.5144,6.465,6.3452,6.3857,6.4156,6.4156,6.48,6.4432,6.2934,6.1748,6.1315,6.1595,6.188,6.2953,6.4742,6.6307,6.6846,4.08,4.1957,4.2548,4.1229,4.2007,4.3014,4.2537,4.2738,4.3014,4.3014,4.3014,4.3277,4.4177,4.4428,4.4955,4.6371,4.8454,5.0921,5.3801,5.422,5.468,5.5942,5.615,5.6226,5.6301,5.6326,5.6326,5.6326,5.6251,5.62,5.62,5.62,5.62,5.62,5.62,5.5942,5.5408,5.5333,5.4787,5.3833,5.4637,5.4361,5.3188,5.3976,5.3876,5.3038,0.0,5.3314,5.2937,5.3389,5.3314,5.2929,5.3179,5.5042,5.764,5.791,5.9992,6.2686,6.2686,6.2875,6.3108,6.3108,6.3108,6.3108,6.3108,6.3108,6.3108,6.3108,6.2904,6.2686,6.2686,6.2686,6.2686,6.2686,6.2904,6.3108,6.3108,6.3512,6.4066,6.474,6.5308,6.5922,6.658,6.67,6.67,6.67,6.6221,6.5847,6.5847,6.5847,6.5847,6.5847,6.634,6.646,6.5877,6.5847,6.5518,6.477,6.4785,6.4859,6.4859,6.5488,6.4305,6.1091,6.279,6.3048,6.1595,6.315,6.4822,6.657,6.6861,6.6168,4.0725,4.1907,4.2875,4.2409,4.3327,4.4281,4.4044,4.393,4.3865,4.3865,4.3865,4.4273,4.5585,4.6148,4.7139,4.9423,5.0653,5.2076,5.4295,5.4597,5.5006,5.6068,5.62,5.62,5.62,5.62,5.62,5.62,5.62,5.62,5.62,5.62,5.62,5.62,5.62,5.5942,5.5408,5.5408,5.4813,5.3708,5.3934,5.364,5.2937,5.3439,5.3406,5.2937,0.0,5.3389,5.2945,5.3482,5.3926,5.4332,5.529,5.7176,5.9472,6.0402,6.1747,6.3108,6.3108,6.3108,6.3108,6.3108,6.3108,6.3108,6.3108,6.3108,6.3108,6.3108,6.3108,6.3108,6.3108,6.3108,6.3108,6.3108,6.3108,6.3108,6.3108,6.3572,6.4216,6.4874,6.5547,6.6221,6.6879,6.7014,6.7014,6.7014,6.6729,6.655,6.655,6.655,6.655,6.655,6.6835,6.6894,6.658,6.655,6.6251,6.5577,6.5547,6.5697,6.6071,6.637,6.5755,6.4101,6.4217,6.4361,6.4535,6.4361,6.5232,6.7014,6.7014,6.6028,4.0827,4.1845,4.3014,4.379,4.4644,4.5422,4.5924,4.5522,4.5106,4.5508,4.5382,4.5704,4.7395,4.8538,5.0031,5.2454,5.2859,5.3356,5.478,5.4956,5.5282,5.61,5.62,5.62,5.62,5.62,5.62,5.62,5.62,5.62,5.62,5.62,5.62,5.62,5.6093,5.5817,5.539,5.5282,5.478,5.3909,5.349,5.3213,5.3088,5.3088,5.3013,5.2937,5.3607,5.3532,5.2945,5.3632,5.4501,5.5535,5.7039,5.8992,6.1168,6.2913,6.3452,6.3333,6.3482,6.3333,6.3123,6.3273,6.3227,6.3108,6.3108,6.3108,6.3108,6.3108,6.3108,6.3108,6.3108,6.3108,6.3108,6.3108,6.3108,6.3138,6.3273,6.3797,6.4411,6.5099,6.5787,6.64,6.6909,6.7014,6.7014,6.7014,6.7014,6.6954,6.6789,6.6894,6.6954,6.6789,6.6909,6.7014,6.7014,6.7014,6.6759,6.6281,6.6236,6.646,6.6984,6.7014,6.68,6.6384,6.5405,6.5405,6.6369,6.5389,6.5421,6.6369,6.6369,6.5168,4.1783,4.2174,4.2626,4.4152,4.4589,4.5206,4.7265,4.6913,4.6627,4.8174,4.7657,4.7567,4.9677,5.1759,5.3599,5.4862,5.5114,5.5365,5.6018,5.6075,5.61,5.6175,5.62,5.62,5.62,5.62,5.62,5.62,5.62,5.62,5.62,5.62,5.62,5.62,5.5717,5.5458,5.5408,5.4924,5.4622,5.4547,5.4496,5.4177,5.3658,5.3658,5.3364,5.2945,5.4077,5.3909,5.2988,5.4077,5.4876,5.5472,5.6216,5.8895,6.2573,6.4247,6.447,6.4006,6.465,6.4096,6.3183,6.3737,6.3572,6.3108,6.3108,6.3108,6.3108,6.3108,6.3108,6.3108,6.3108,6.3108,6.3108,6.3108,6.3108,6.3243,6.3797,6.447,6.5114,6.5787,6.646,6.6954,6.6984,6.7014,6.7014,6.7014,6.7014,6.6759,6.6161,6.661,6.6759,6.6131,6.664,6.7014,6.7014,6.7014,6.6984,6.6924,6.6924,6.6954,6.7014,6.7014,6.62,6.4535,6.6028,6.6044,6.4519,6.6044,6.6013,6.4503,6.4503,6.2612,4.1517,4.2171,4.309,4.4744,4.5407,4.6135,4.8024,4.8385,4.9059,5.1524,5.0796,5.0357,5.2512,5.435,5.5703,5.6214,5.608,5.5968,5.615,5.62,5.62,5.62,5.62,5.62,5.62,5.62,5.62,5.62,5.62,5.62,5.62,5.62,5.62,5.62,5.6018,5.5892,5.5892,5.5691,5.5591,5.5609,5.4906,5.4496,5.4253,5.3858,5.3607,5.3414,5.3858,5.4198,5.4544,5.577,5.7424,5.9375,6.1092,6.2687,6.4139,6.4755,6.4845,6.465,6.4904,6.4665,6.4321,6.456,6.447,6.4291,6.4291,6.4291,6.4171,6.3782,6.3662,6.3572,6.3183,6.3108,6.3108,6.3108,6.3393,6.3722,6.3947,6.4859,6.5697,6.5936,6.6191,6.652,6.6924,6.664,6.637,6.637,6.637,6.6281,6.6026,6.6221,6.643,6.661,6.7224,6.7433,6.7044,6.7373,6.7433,6.7044,6.7014,6.7014,6.7014,6.7014,6.6692,6.5997,6.6661,6.6677,6.5981,6.5545,6.4949,6.4265,6.315,6.1276,4.1473,4.2309,4.3621,4.4698,4.5759,4.7089,4.9129,5.0316,5.1769,5.449,5.4587,5.4596,5.5902,5.724,5.8186,5.8265,5.7582,5.705,5.705,5.6576,5.62,5.62,5.62,5.62,5.62,5.62,5.62,5.62,5.62,5.62,5.62,5.62,5.62,5.62,5.6043,5.5942,5.5942,5.5942,5.5942,5.5942,5.5365,5.5006,5.483,5.4253,5.4309,5.4832,5.478,5.5542,5.6894,5.7742,5.9678,6.2338,6.4499,6.5458,6.5637,6.5637,6.5518,6.5368,6.5577,6.5368,6.5024,6.5233,6.5174,6.4964,6.474,6.4665,6.459,6.4126,6.4006,6.3947,6.3737,6.3542,6.3393,6.3393,6.3857,6.4351,6.4605,6.5353,6.6056,6.6281,6.6311,6.646,6.6909,6.661,6.6311,6.6311,6.6311,6.6311,6.6311,6.6311,6.658,6.7254,6.7748,6.7882,6.7657,6.8062,6.8122,6.7657,6.7627,6.7448,6.7014,6.7014,6.7104,6.7313,6.7104,6.6813,6.6478,6.5189,6.3969,6.2821,6.177,6.0641,4.1817,4.2714,4.4135,4.388,4.5482,4.7851,5.0686,5.2737,5.4659,5.6908,5.9058,6.0396,5.982,6.0608,6.1322,6.1294,5.9961,5.8885,5.8885,5.7331,5.62,5.62,5.62,5.62,5.62,5.62,5.62,5.62,5.62,5.62,5.62,5.62,5.62,5.62,5.5691,5.5408,5.5408,5.5408,5.5408,5.5426,5.5961,5.5936,5.5401,5.4866,5.5637,5.7324,5.7188,5.8181,5.9908,5.9854,6.1297,6.3675,6.5359,6.643,6.7014,6.7014,6.658,6.6086,6.6759,6.6131,6.5114,6.5787,6.5577,6.4919,6.4246,6.4036,6.4036,6.4006,6.4006,6.4186,6.4815,6.45,6.4006,6.4006,6.453,6.5174,6.5847,6.6011,6.6221,6.6879,6.6999,6.6984,6.7014,6.6999,6.6984,6.6984,6.6984,6.6984,6.6984,6.7014,6.7254,6.7928,6.7987,6.8271,6.8914,6.9004,6.9004,6.8974,6.8974,6.8375,6.7074,6.7014,6.7313,6.7987,6.7328,6.6431,6.5297,6.5134,6.3219,5.9747,6.0335,6.0653,4.0995,4.2017,4.3619,4.4709,4.6928,4.959,5.2352,5.4763,5.7424,6.0988,6.3133,6.3809,6.1874,6.1785,6.184,6.138,5.9961,5.8885,5.8885,5.7331,5.62,5.62,5.62,5.62,5.62,5.62,5.62,5.62,5.62,5.62,5.62,5.62,5.62,5.62,5.6068,5.5968,5.5968,5.5968,5.6605,5.7848,5.803,5.8004,5.784,5.7303,5.8052,5.9701,5.8833,5.9422,6.1157,6.2792,6.4173,6.5343,6.6322,6.6819,6.7014,6.7014,6.6879,6.6729,6.6924,6.6729,6.643,6.664,6.658,6.637,6.6161,6.6101,6.5922,6.4979,6.5039,6.5233,6.447,6.4844,6.5278,6.4829,6.5218,6.5757,6.5966,6.637,6.6759,6.6954,6.661,6.646,6.6924,6.661,6.6311,6.6311,6.6311,6.6311,6.6311,6.67,6.7074,6.7284,6.8151,6.8405,6.7657,6.8465,6.8585,6.7657,6.7597,6.7837,6.8375,6.7942,6.7808,6.7987,6.645,6.5496,6.515,6.2983,6.2058,6.2275,6.1185,6.1408,4.1981,4.3266,4.5113,4.6466,4.9113,5.2686,5.7602,5.9114,6.0668,6.4879,6.6289,6.6244,6.4473,6.3596,6.2893,6.2201,6.0296,5.8885,5.8885,5.7331,5.62,5.62,5.62,5.62,5.62,5.62,5.62,5.62,5.62,5.62,5.62,5.62,5.62,5.62,5.62,5.62,5.62,5.6913,5.7806,5.8903,5.9626,6.0367,6.1005,5.9971,6.0485,6.2185,6.1915,6.2216,6.3006,6.471,6.5787,6.643,6.6819,6.7014,6.7014,6.7014,6.7014,6.7014,6.7014,6.7014,6.7014,6.7014,6.7014,6.6954,6.667,6.661,6.643,6.5637,6.5697,6.5892,6.5323,6.5802,6.6221,6.5577,6.5906,6.64,6.64,6.67,6.7014,6.7014,6.667,6.652,6.6924,6.667,6.64,6.64,6.64,6.64,6.64,6.6759,6.7104,6.7373,6.8122,6.8391,6.7837,6.8525,6.8764,6.8241,6.7479,6.7524,6.8586,6.7495,6.6747,6.6518,6.511,6.4162,6.3672,6.1827,6.1512,6.2619,6.1761,6.2821,4.3917,4.5648,4.7876,4.8935,5.2064,5.6875,6.4545,6.4627,6.4245,6.8263,6.8571,6.7868,6.7134,6.5529,6.408,6.3398,6.0824,5.8885,5.8885,5.7331,5.62,5.62,5.62,5.62,5.62,5.62,5.62,5.62,5.62,5.62,5.62,5.62,5.62,5.62,5.6358,5.6449,5.6449,5.8224,5.9235,5.9427,6.1056,6.2805,6.4487,6.2661,6.2809,6.4515,6.5565,6.5637,6.5054,6.5727,6.637,6.6909,6.6984,6.7014,6.7014,6.7014,6.7014,6.7014,6.7014,6.7014,6.7014,6.7014,6.7014,6.6894,6.6281,6.6101,6.6071,6.6011,6.6026,6.6221,6.6775,6.6954,6.6849,6.6251,6.655,6.7014,6.7014,6.7014,6.7014,6.7014,6.7014,6.7014,6.7014,6.7014,6.7014,6.7014,6.7014,6.7014,6.7014,6.7014,6.7254,6.7928,6.7987,6.8257,6.8854,6.8974,6.9213,6.9768,6.8055,6.7221,6.7712,6.5994,6.4763,6.4205,6.3491,6.2682,6.1763,6.1568,6.1705,6.2116,6.2657,6.4867,4.3098,4.5807,4.9126,5.1561,5.6493,6.1603,6.4815,6.6237,6.7476,6.9395,6.9259,6.8405,6.7208,6.5529,6.408,6.3398,6.0824,5.8885,5.8885,5.7331,5.62,5.62,5.62,5.62,5.62,5.62,5.62,5.62,5.62,5.62,5.62,5.62,5.62,5.62,5.7582,5.8313,5.8313,6.0109,6.173,6.315,6.3525,6.4678,6.6369,6.4551,6.4434,6.5643,6.5875,6.5637,6.5054,6.5727,6.6086,6.6281,6.6789,6.7014,6.7014,6.7014,6.7014,6.7014,6.7014,6.7014,6.7014,6.7014,6.7014,6.6969,6.6835,6.6789,6.667,6.6161,6.637,6.67,6.6311,6.661,6.6954,6.6819,6.6894,6.7014,6.7014,6.7014,6.7014,6.7014,6.7014,6.7014,6.7014,6.7014,6.7014,6.7014,6.7014,6.7014,6.7014,6.7014,6.7254,6.7928,6.7987,6.8047,6.8181,6.872,6.8824,6.8451,6.7104,6.5927,6.5063,6.4614,6.4322,6.4215,6.2624,6.2409,6.3615,6.2635,6.3749,6.6688,6.6812,6.81,4.3843,4.7079,5.138,5.6779,6.127,6.4837,6.6662,6.7822,6.8625,6.8965,6.9289,6.9079,6.7732,6.5302,6.3261,6.259,5.9749,5.7618,5.7618,5.6787,5.62,5.62,5.62,5.62,5.62,5.62,5.62,5.62,5.62,5.62,5.62,5.62,5.6587,5.7474,5.8401,5.9322,6.0178,6.1981,6.3362,6.4297,6.5184,6.6091,6.6983,6.6028,6.5736,6.5996,6.5996,6.5787,6.5518,6.5847,6.6191,6.652,6.6849,6.7014,6.7014,6.7014,6.7014,6.7014,6.7014,6.7014,6.7014,6.7014,6.7014,6.7014,6.7014,6.7014,6.6924,6.658,6.6729,6.6909,6.658,6.6729,6.7014,6.7014,6.7014,6.7014,6.7014,6.7014,6.7014,6.7014,6.7014,6.7014,6.7014,6.7014,6.7014,6.7014,6.7014,6.7014,6.7014,6.7014,6.7254,6.7928,6.7987,6.8137,6.8451,6.8794,6.8974,6.896,6.7454,6.6403,6.6072,6.5167,6.382,6.2003,6.1901,6.2379,6.3344,6.3604,6.5241,6.8112,6.8112,6.9119,4.4633,4.8793,5.436,6.1955,6.5234,6.6951,6.8329,6.8824,6.8764,6.7972,6.881,6.918,6.7643,6.4737,6.229,6.1421,5.8583,5.647,5.6351,5.6426,5.6401,5.6226,5.6276,5.6301,5.62,5.62,5.62,5.62,5.6503,5.666,5.666,5.6942,5.7806,5.9322,5.9661,6.0545,6.2047,6.3748,6.4584,6.46,6.5995,6.67,6.6835,6.6835,6.658,6.6176,6.6176,6.6176,6.6176,6.6176,6.649,6.7014,6.7014,6.7014,6.7014,6.7014,6.7014,6.7014,6.7014,6.7014,6.7014,6.7014,6.7014,6.7014,6.7014,6.7014,6.7014,6.7014,6.7014,6.7014,6.7014,6.7014,6.7014,6.7014,6.7014,6.7014,6.7014,6.7014,6.7014,6.7014,6.7014,6.7014,6.7014,6.7014,6.7014,6.7014,6.7014,6.7014,6.7014,6.7104,6.7433,6.8092,6.8151,6.8451,6.9123,6.9183,6.9393,6.9947,6.826,6.7536,6.8083,6.622,6.3703,6.0539,6.2051,6.3043,6.3374,6.4929,6.6701,6.8586,6.8586,6.9403,4.3564,5.0214,5.7999,6.3441,6.6304,6.7677,6.7342,6.8166,6.8645,6.7403,6.7732,6.755,6.5211,6.3517,6.188,6.0225,5.8668,5.7499,5.6979,5.733,5.7298,5.6301,5.6602,5.6728,5.6251,5.62,5.62,5.62,5.7653,5.8542,5.8542,6.0041,6.0988,6.1225,6.2772,6.3671,6.3943,6.5159,6.5767,6.5767,6.5442,6.5577,6.6116,6.6116,6.64,6.6864,6.6864,6.6864,6.6864,6.6864,6.6909,6.7014,6.7014,6.7014,6.7014,6.7014,6.7014,6.7014,6.7014,6.7014,6.7014,6.7014,6.7014,6.7014,6.7014,6.7014,6.7014,6.7014,6.7014,6.7014,6.7014,6.7014,6.7014,6.7014,6.7014,6.7014,6.7014,6.7014,6.7014,6.7014,6.7014,6.7014,6.7014,6.7014,6.7014,6.7014,6.7014,6.7014,6.7014,6.7493,6.8122,6.8794,6.8854,6.9123,6.9798,6.9858,6.9887,6.9977,6.8698,6.7996,6.8112,6.622,6.4982,6.4463,6.4696,6.5639,6.7347,6.7604,6.8687,7.0531,7.0531,7.0661,4.7556,5.296,5.8364,6.4142,6.652,6.7373,6.7074,6.7448,6.7717,6.7134,6.6436,6.5598,6.4483,6.2186,6.0291,5.9792,5.8408,5.743,5.7481,5.743,5.7204,5.6702,5.7495,5.7965,5.7751,5.863,5.9235,5.9235,5.9954,6.0418,6.0418,6.1157,6.2047,6.3084,6.3894,6.479,6.5796,6.5945,6.5817,6.5458,6.5144,6.5368,6.5996,6.5996,6.637,6.7014,6.7014,6.7014,6.7014,6.7014,6.7014,6.7014,6.7014,6.7014,6.7014,6.7014,6.7014,6.7014,6.7014,6.7014,6.7014,6.7014,6.7014,6.7014,6.7014,6.7014,6.7014,6.7014,6.7014,6.7014,6.7014,6.7014,6.7014,6.7014,6.7014,6.7014,6.7014,6.7014,6.7014,6.7014,6.7014,6.7014,6.7014,6.7014,6.7014,6.7014,6.7014,6.7134,6.7493,6.7808,6.8391,6.9439,6.9558,6.9812,7.044,7.05,7.05,7.05,6.9992,6.9682,6.9682,6.8856,6.8376,6.8376,6.7341,6.7249,6.8112,6.9153,7.0108,7.0889,7.0889,7.1098,4.9295,5.2908,5.602,6.174,6.3971,6.4974,6.5714,6.5629,6.5728,6.6786,6.5184,6.3765,6.4217,6.1584,5.9315,5.9241,5.8749,5.8491,5.8771,5.8987,5.8914,5.8483,5.9394,5.9912,5.9601,6.0801,6.1595,6.1595,6.2031,6.228,6.228,6.2739,6.3574,6.4933,6.501,6.5551,6.6714,6.5922,6.5159,6.453,6.4665,6.5099,6.5757,6.5906,6.637,6.7014,6.7014,6.7014,6.7014,6.7014,6.7014,6.7014,6.7014,6.7014,6.7014,6.7014,6.7014,6.7014,6.7014,6.7014,6.7014,6.7014,6.7014,6.7014,6.7014,6.7014,6.7014,6.7014,6.7014,6.7014,6.7014,6.7014,6.7014,6.7014,6.7014,6.7014,6.7014,6.7014,6.7014,6.7014,6.7014,6.7014,6.7014,6.7014,6.7074,6.7224,6.7254,6.7493,6.8151,6.8391,6.887,6.9887,7.0127,7.041,7.0859,7.0889,7.0889,7.0889,7.0889,7.0889,7.0889,7.0889,7.0889,7.0889,6.9503,6.8805,6.8805,7.0223,7.0979,7.1158,7.1158,7.1517,4.4917,4.7613,5.0356,5.4391,5.7086,5.9483,6.2223,6.1931,6.2247,6.6204,6.4201,6.2247,6.3991,6.222,5.9948,5.8275,6.0326,6.1922,6.1395,6.3317,6.4149,6.2512,6.2822,6.2729,6.1571,6.1528,6.1595,6.1595,6.3199,6.4153,6.4153,6.578,6.6754,6.6846,6.6846,6.6593,6.6056,6.4755,6.3797,6.3227,6.3782,6.4411,6.5084,6.5697,6.637,6.7014,6.7014,6.7014,6.7014,6.7014,6.7014,6.7014,6.7014,6.7014,6.7014,6.7014,6.7014,6.7014,6.7014,6.7014,6.7014,6.7014,6.7014,6.7014,6.7014,6.7014,6.7014,6.7014,6.7014,6.7014,6.7014,6.7014,6.7014,6.7014,6.7014,6.7014,6.7014,6.7014,6.7014,6.7014,6.7014,6.7014,6.7014,6.7014,6.7224,6.7868,6.7958,6.8181,6.8854,6.9498,6.9917,6.9977,7.05,7.0859,7.0889,7.0889,7.0889,7.0889,7.0889,7.0889,7.0889,7.0889,7.0889,7.0889,7.0791,7.0743,7.0743,7.084,7.1218,7.1863,7.1863,7.2206,4.4586,4.6395,4.8453,5.3122,5.5455,5.7298,5.977,6.1496,6.3041,6.488,6.4233,6.3525,6.4169,6.261,6.1295,6.1398,6.2345,6.325,6.3785,6.4355,6.43,6.3232,6.3993,6.4283,6.3415,6.4361,6.5073,6.5073,6.567,6.6028,6.6028,6.6661,6.7014,6.7014,6.658,6.5832,6.4725,6.468,6.4321,6.3677,6.3887,6.4575,6.5637,6.5877,6.637,6.7014,6.7014,6.7014,6.7014,6.7014,6.7014,6.7014,6.7014,6.7014,6.7014,6.7014,6.7014,6.7014,6.7014,6.7014,6.7014,6.7014,6.7014,6.7014,6.7014,6.7014,6.7014,6.7014,6.7014,6.7014,6.7014,6.7014,6.7014,6.7014,6.7313,6.7643,6.7643,6.7313,6.7014,6.7014,6.7343,6.7643,6.7643,6.8002,6.8211,6.8047,6.8361,6.8734,6.8974,6.9588,7.0157,7.053,7.0769,7.0889,7.0889,7.0889,7.0889,7.0889,7.1308,7.1338,7.0919,7.1308,7.1338,7.0919,7.0889,7.0889,7.0889,7.0889,7.1248,7.1893,7.1893,7.2475,4.2944,4.4122,4.5729,5.0069,5.1716,5.3332,5.7284,5.8966,6.0533,6.3644,6.383,6.3781,6.4994,6.4217,6.3341,6.3093,6.3963,6.4934,6.5729,6.6262,6.6248,6.5372,6.6033,6.6195,6.5288,6.6307,6.7014,6.7014,6.7014,6.7014,6.7014,6.7014,6.7014,6.7014,6.6116,6.5248,6.4351,6.4351,6.4231,6.4006,6.4246,6.4919,6.5996,6.6236,6.658,6.7014,6.7014,6.7014,6.7014,6.7014,6.7014,6.7014,6.7014,6.7014,6.7014,6.7014,6.7014,6.7014,6.7014,6.7014,6.7014,6.7014,6.7014,6.7014,6.7014,6.7014,6.7014,6.7014,6.7014,6.7014,6.7014,6.7164,6.7403,6.7613,6.8002,6.8331,6.8331,6.8002,6.7657,6.7657,6.8032,6.8331,6.8331,6.872,6.8914,6.869,6.9049,6.9393,6.9602,7.0021,7.044,7.0859,7.0889,7.0889,7.0889,7.0889,7.0889,7.0889,7.1308,7.1368,7.0919,7.1338,7.1338,7.0919,7.0889,7.1009,7.1248,7.1248,7.1577,7.2235,7.2491,7.2814,0.0,0.0,0.0,4.4694,4.5441,4.7363,5.4541,5.4118,5.4488,6.2543,6.2868,6.2753,6.6324,6.7014,6.6017,6.3012,6.5125,6.7113,6.7142,6.9293,7.041,6.9123,6.9004,6.8465,6.7134,6.7014,6.7014,6.7014,6.7014,6.7014,6.7014,6.7014,6.6984,6.6969,6.5727,6.5024,6.4994,6.3797,6.3482,6.4066,6.471,6.5398,6.6056,6.67,6.7014,6.7014,6.7014,6.7014,6.7014,6.7014,6.7014,6.7014,6.7014,6.7014,6.7014,6.7014,6.7014,6.7014,6.7014,6.7014,6.7014,6.7014,6.7014,6.7014,6.7014,6.7014,6.7014,6.7014,6.7014,6.7014,6.7014,6.7523,6.8197,6.8854,6.9004,6.9034,6.9034,6.9034,6.9034,6.9004,6.9004,6.9034,6.9034,6.9034,6.9273,6.9887,7.0007,7.0217,7.0799,7.0889,7.0889,7.0889,7.0889,7.0889,7.0889,7.0889,7.0889,7.0889,7.0949,7.0949,7.0889,7.0949,7.0949,7.0919,7.0919,7.1248,7.1923,7.1923,7.2235,7.2937,7.3612,7.3204,4.0819,0.0,0.0,0.0,0.0,0.0,5.0326,5.2998,5.6052,6.1104,6.2763,6.4087,6.6547,6.7014,6.6736,6.5874,6.6862,6.7919,6.8422,6.9493,6.9768,6.8421,6.872,6.8465,6.7134,6.7014,6.7014,6.7014,6.7014,6.7014,6.7014,6.7014,6.6759,6.6281,6.64,6.5966,6.5024,6.5129,6.5293,6.5443,6.5637,6.6056,6.6729,6.6924,6.7014,6.7014,6.7014,6.7014,6.7014,6.7014,6.7014,6.7014,6.7014,6.7014,6.7014,6.7014,6.7014,6.7014,6.7014,6.7014,6.7014,6.7014,6.7014,6.7014,6.7014,6.7014,6.7014,6.7014,6.7014,6.7104,6.7583,6.8211,6.8764,6.8944,6.9363,6.9738,6.9738,7.0051,7.0111,6.9183,6.9393,6.9738,6.9738,7.0081,7.029,7.0037,7.0007,7.0067,7.0217,7.0247,7.0426,7.0859,7.0889,7.0889,7.0889,7.0889,7.0889,7.0889,7.1816,7.189,7.0949,7.183,7.2116,7.1637,7.1607,7.1936,7.2624,7.2132,7.2475,7.3642,7.4317,7.3635,0.0,0.0,0.0,4.3075,0.0,0.0,5.0218,5.2807,5.5607,6.0323,6.2378,6.3873,6.5815,6.6161,6.6251,6.655,6.6909,6.7493,6.8451,6.9169,6.9289,6.8511,6.8511,6.8391,6.7867,6.7343,6.7134,6.7403,6.7164,6.7014,6.7014,6.7014,6.6819,6.643,6.652,6.6221,6.5413,6.5518,6.5727,6.5996,6.5996,6.634,6.7014,6.7014,6.7014,6.7014,6.7014,6.7014,6.7014,6.7014,6.7014,6.7014,6.7014,6.7014,6.7014,6.7014,6.7014,6.7014,6.7014,6.7014,6.7014,6.7014,6.7014,6.7014,6.7014,6.7014,6.7014,6.7014,6.7194,6.7553,6.8241,6.89,6.9482,6.9722,7.0081,7.0396,7.0396,7.0649,7.0679,6.9931,7.0111,7.0396,7.0396,7.0679,7.0769,7.0426,7.0396,7.0396,7.0396,7.0396,7.05,7.0859,7.0889,7.0889,7.0889,7.0889,7.1009,7.1308,7.2056,7.2265,7.1757,7.2488,7.2714,7.2325,7.2325,7.2654,7.3313,7.2924,7.33,7.4317,7.4706,7.3363,4.3365,4.2731,0.0,0.0,4.5568,0.0,5.1897,5.283,5.406,5.9596,6.1323,6.2389,6.4219,6.4635,6.4859,6.5368,6.5697,6.637,6.7703,6.8481,6.8884,6.8884,6.8421,6.8331,6.8944,6.7926,6.7433,6.7958,6.7373,6.7014,6.7014,6.7014,6.7014,6.7014,6.643,6.6116,6.6116,6.5518,6.5518,6.6116,6.6116,6.643,6.7014,6.7014,6.7014,6.7014,6.7014,6.7014,6.7014,6.7014,6.7014,6.7014,6.7014,6.7014,6.7014,6.7014,6.7014,6.7014,6.7014,6.7014,6.7014,6.7014,6.7014,6.7014,6.7014,6.7014,6.7014,6.7104,6.7583,6.8271,6.896,6.9602,7.0247,7.0769,7.0889,7.0889,7.0889,7.0889,7.0889,7.0889,7.0889,7.0889,7.0889,7.0889,7.0889,7.0889,7.0829,7.0829,7.0889,7.0829,7.0829,7.0889,7.0889,7.0889,7.0889,7.0889,7.1158,7.1743,7.1923,7.2235,7.2757,7.2937,7.2997,7.2997,7.3086,7.3432,7.4001,7.4001,7.4317,7.4886,7.468,7.2539,4.4548,4.3755,4.2678,4.3843,4.5854,0.0,4.8485,5.0929,5.3824,5.6611,5.8105,5.9537,6.1512,6.2287,6.254,6.2107,6.3812,6.5667,6.7014,6.7762,6.8181,6.8181,6.8571,6.8854,6.9004,6.8764,6.8451,6.8047,6.7373,6.7014,6.7014,6.7014,6.7014,6.7014,6.6879,6.6789,6.6789,6.667,6.667,6.6789,6.6789,6.6879,6.7014,6.7014,6.7014,6.7014,6.7014,6.7014,6.7014,6.7014,6.7014,6.7014,6.7014,6.7014,6.7014,6.7014,6.7014,6.7014,6.7014,6.7014,6.7014,6.7014,6.7014,6.7014,6.7014,6.7014,6.7104,6.7643,6.8301,6.8944,6.9618,7.026,7.0739,7.0889,7.0889,7.0889,7.0889,7.0889,7.0889,7.0889,7.0889,7.0889,7.0889,7.0889,7.0889,7.0889,7.0486,7.0366,7.0829,7.0486,7.0366,7.0859,7.0889,7.0889,7.0889,7.0889,7.0949,7.1098,7.2116,7.2535,7.2132,7.3133,7.3702,7.3702,7.421,7.4557,7.4706,7.4706,7.4766,7.4852,7.324,7.1206,4.6497,4.5698,4.4869,4.6444,0.0,0.0,0.0,5.1274,5.2965,5.5653,5.6718,5.7543,5.886,5.9368,5.9817,6.0505,6.2257,6.3992,6.5323,6.6655,6.7628,6.7958,6.8301,6.875,6.9439,6.89,6.8211,6.7553,6.7194,6.7014,6.7014,6.7014,6.7014,6.7014,6.7014,6.7014,6.7014,6.7014,6.7014,6.7014,6.7014,6.7014,6.7014,6.7014,6.7014,6.7014,6.7014,6.7014,6.7014,6.7014,6.7014,6.7014,6.7014,6.7014,6.7014,6.7014,6.7014,6.7014,6.7014,6.7014,6.7014,6.7014,6.7014,6.7014,6.7014,6.7014,6.7134,6.7808,6.8481,6.9153,6.9828,7.044,7.0889,7.0889,7.0889,7.0889,7.0889,7.0889,7.0889,7.0889,7.0889,7.0889,7.0889,7.0889,7.0889,7.0889,7.0649,7.056,7.0859,7.0649,7.056,7.0859,7.0889,7.0889,7.0889,7.0889,7.1038,7.1368,7.2339,7.2894,7.291,7.3868,7.4407,7.4407,7.4736,7.4886,7.4886,7.3882,7.3398,7.338,7.2367,7.0282,4.874,4.8116,4.7794,0.0,0.0,4.9924,0.0,0.0,0.0,5.4743,5.5444,5.5773,5.6269,5.6436,5.7064,5.8693,6.0386,6.1882,6.2899,6.4919,6.6625,6.7688,6.7808,6.8331,6.9678,6.8481,6.7493,6.7224,6.6819,6.6729,6.6984,6.7014,6.7014,6.7014,6.7014,6.7014,6.7014,6.7014,6.7014,6.7014,6.7014,6.7014,6.7014,6.7014,6.7014,6.7014,6.7014,6.7014,6.7014,6.7014,6.7014,6.7014,6.7014,6.7014,6.7014,6.7014,6.7014,6.7014,6.7014,6.7014,6.7014,6.7014,6.7014,6.7014,6.7014,6.7014,6.7134,6.7808,6.8481,6.9153,6.9828,7.044,7.0889,7.0889,7.0889,7.0889,7.0889,7.0889,7.0889,7.0889,7.0889,7.0889,7.0889,7.0889,7.0889,7.0889,7.0889,7.0889,7.0889,7.0889,7.0889,7.0889,7.0889,7.0889,7.0889,7.0889,7.1188,7.1863,7.2535,7.3206,7.3881,7.4557,7.4886,7.4886,7.4886,7.4886,7.4886,7.2876,7.1891,7.1874,7.1086,6.8972,0.0,0.0,0.0,0.0,5.148,0.0,4.9565,0.0,5.2737,5.1935,0.0,5.3558,5.3648,0.0,0.0,5.4837,5.7453,5.9488,5.9638,6.1896,6.444,6.6835,6.7104,6.7643,6.8974,6.7358,6.67,6.7808,6.6236,6.5757,6.6954,6.7014,6.7014,6.7014,6.7014,6.7014,6.7014,6.7014,6.7014,6.7014,6.7014,6.7014,6.7014,6.7014,6.7014,6.7014,6.7014,6.7014,6.7014,6.7014,6.7014,6.7014,6.7014,6.7014,6.7014,6.7014,6.7014,6.7014,6.7014,6.7014,6.7014,6.7014,6.7014,6.7014,6.7014,6.7014,6.7134,6.7808,6.8481,6.9153,6.9828,7.044,7.0889,7.0889,7.0889,7.0889,7.0889,7.0889,7.0889,7.0889,7.0889,7.0889,7.0889,7.0889,7.0889,7.0889,7.0889,7.0889,7.0889,7.0889,7.0889,7.0889,7.0889,7.0889,7.0889,7.0889,7.1188,7.1863,7.2535,7.3206,7.3881,7.4557,7.4886,7.4886,7.4886,7.4886,7.4886,7.2876,7.1891,7.182,6.8181,6.6227,0.0,0.0,0.0,0.0,0.0,0.0,4.9961,0.0,5.0403,0.0,0.0,0.0,0.0,0.0,0.0,0.0,5.6316,5.8082,5.8457,6.0146,6.2195,6.447,6.4739,6.5099,6.6011,6.5697,6.5817,6.6775,6.5697,6.5577,6.6924,6.7014,6.7014,6.7014,6.7014,6.7014,6.7014,6.7014,6.7014,6.7014,6.7014,6.7014,6.7014,6.7014,6.7014,6.7014,6.7014,6.7014,6.7014,6.7014,6.7014,6.7014,6.7014,6.7014,6.7014,6.7014,6.7014,6.7014,6.7014,6.7014,6.7014,6.7014,6.7014,6.7014,6.7014,6.7014,6.7224,6.8271,6.8764,6.9243,7.026,7.0709,7.0889,7.0889,7.0889,7.0889,7.0889,7.0889,7.0889,7.0889,7.0889,7.0889,7.0889,7.0889,7.0889,7.0889,7.0889,7.0889,7.0889,7.0889,7.1038,7.1427,7.1128,7.1068,7.1457,7.1474,7.1593,7.1893,7.2894,7.3762,7.4437,7.4736,7.4886,7.4886,7.4886,7.434,7.314,7.1151,6.9533,6.8332,6.6597,6.5161,5.3845,0.0,0.0,0.0,0.0,0.0,0.0,0.0,0.0,0.0,5.1445,0.0,0.0,0.0,5.3294,0.0,0.0,5.6958,5.7261,5.8291,5.9845,6.2016,6.2764,6.3422,6.4216,6.4082,6.45,6.5892,6.4889,6.4949,6.664,6.6894,6.6924,6.6729,6.6894,6.7014,6.7014,6.7014,6.7014,6.7014,6.7014,6.7014,6.7014,6.7014,6.7014,6.7014,6.7014,6.7014,6.7014,6.7014,6.7014,6.7014,6.7014,6.7014,6.7014,6.7014,6.7014,6.7014,6.7014,6.7014,6.7014,6.7014,6.7014,6.7014,6.7014,6.7134,6.7493,6.8451,6.8974,6.9482,7.041,7.0769,7.0889,7.0889,7.0889,7.0889,7.0889,7.0889,7.0889,7.0889,7.0889,7.0889,7.0889,7.0889,7.0889,7.0889,7.0889,7.0889,7.0889,7.1068,7.1368,7.1863,7.1637,7.1637,7.2116,7.2176,7.2235,7.2432,7.3539,7.4377,7.4886,7.4886,7.4886,7.4886,7.4374,7.3363,7.1891,6.9318,6.7272,6.5785,6.522,6.4197,0.0,0.0,0.0,5.3174,0.0,0.0,0.0,0.0,5.3037,0.0,0.0,0.0,0.0,0.0,0.0,0.0,0.0,0.0,0.0,5.588,5.73,5.9891,6.1896,6.3602,6.4859,6.2705,6.2556,6.5757,6.3647,6.3318,6.5877,6.664,6.67,6.6056,6.667,6.7014,6.7014,6.7014,6.7014,6.7014,6.7014,6.7014,6.7014,6.7014,6.7014,6.7014,6.7014,6.7014,6.7014,6.7014,6.7014,6.7014,6.7014,6.7014,6.7014,6.7014,6.7014,6.7014,6.7014,6.7014,6.7014,6.7014,6.7014,6.7014,6.7014,6.7433,6.7987,6.8017,6.8975,6.9977,7.0007,7.044,7.0889,7.0889,7.0889,7.0889,7.0889,7.0889,7.0889,7.0889,7.0889,7.0889,7.0889,7.0889,7.0889,7.0889,7.0889,7.0889,7.0889,7.1474,7.1893,7.1893,7.2475,7.2847,7.2877,7.2877,7.3146,7.3791,7.4497,7.4886,7.4886,7.4886,7.4886,7.4886,7.2982,7.1963,7.1891,6.7857,6.5863,6.5745,6.3801,6.2863,0.0,0.0,5.9145,5.5179,0.0,0.0,0.0,0.0,0.0,0.0,0.0,0.0,0.0,0.0,0.0,0.0,0.0,0.0,0.0,5.4354,5.5025,5.727,5.9262,6.0446,6.0418,6.0851,6.1748,6.3288,6.26,6.3049,6.5218,6.5966,6.6236,6.5996,6.664,6.7014,6.7014,6.7014,6.7014,6.7014,6.7014,6.7014,6.7014,6.7014,6.7014,6.7014,6.7014,6.7014,6.7014,6.7014,6.7014,6.7014,6.7014,6.7014,6.7014,6.7014,6.7014,6.7014,6.7014,6.7014,6.7014,6.7014,6.7014,6.7014,6.7014,6.7463,6.8107,6.8541,6.9273,7.0051,7.047,7.0739,7.0889,7.0889,7.0889,7.0889,7.0889,7.0889,7.0889,7.0889,7.0889,7.0889,7.0889,7.0889,7.0889,7.0889,7.0889,7.1068,7.1487,7.1773,7.2252,7.315,7.3043,7.3086,7.3522,7.3552,7.3851,7.4527,7.4766,7.4886,7.4886,7.4886,7.4258,7.2946,7.226,7.0566,6.7857,6.6461,6.5121,6.3801,6.3123,6.2802,6.0296,6.0611,0.0,5.7646,5.6898,0.0,5.3312,0.0,5.5641,0.0,0.0,0.0,0.0,0.0,0.0,0.0,0.0,0.0,0.0,5.3336,5.3767,5.5311,5.7227,5.8577,5.9115,5.9474,6.0446,6.2315,6.1343,6.1462,6.3282,6.4829,6.5351,6.4775,6.6215,6.7014,6.7014,6.7014,6.7014,6.7014,6.7014,6.7014,6.7014,6.7014,6.7014,6.7014,6.7014,6.7014,6.7014,6.7014,6.7014,6.7014,6.7014,6.7014,6.7014,6.7014,6.7014,6.7014,6.7014,6.7014,6.7014,6.7014,6.7014,6.7029,6.7284,6.7822,6.8511,6.9169,6.9782,7.0364,7.0799,7.0889,7.0889,7.0889,7.0889,7.0889,7.0889,7.0889,7.0889,7.0889,7.0889,7.0889,7.0889,7.0889,7.0889,7.0889,7.1098,7.1398,7.1833,7.2312,7.2924,7.3791,7.3732,7.3791,7.4227,7.4257,7.4437,7.4856,7.4886,7.4886,7.4886,7.4206,7.3222,7.1927,7.0456,6.8446,6.5804,6.5062,6.4083,6.2802,6.2802,6.2802]}]]